Time,TemperatureF,DewpointF,PressureIn,WindDirection,WindDirectionDegrees,WindSpeedMPH,WindSpeedGustMPH,Humidity,HourlyPrecipIn,Conditions,Clouds,dailyrainin,SoftwareType,DateUTC
2013-03-05 00:00:00,28.6,27.8,28.64,NNE,28,0.0,0.0,97,0.00,,---,0.00,VWS V14.01,2013-03-05 05:00:00,
2013-03-05 00:01:00,28.6,27.8,28.64,NNE,23,0.0,0.0,97,0.00,,---,0.00,VWS V14.01,2013-03-05 05:01:00,
2013-03-05 00:02:00,28.8,28.0,28.64,NNE,14,0.0,0.0,97,0.00,,---,0.00,VWS V14.01,2013-03-05 05:02:00,
2013-03-05 00:03:00,28.8,28.0,28.64,NNE,33,0.0,0.0,97,0.00,,---,0.00,VWS V14.01,2013-03-05 05:03:00,
2013-03-05 00:04:00,28.8,28.0,28.64,NNE,20,0.0,0.0,97,0.00,,---,0.00,VWS V14.01,2013-03-05 05:04:00,
2013-03-05 00:05:00,28.8,28.0,28.64,North,9,0.0,0.0,97,0.00,,---,0.00,VWS V14.01,2013-03-05 05:05:00,
2013-03-05 00:06:00,28.8,28.0,28.64,NNE,21,0.0,0.0,97,0.00,,---,0.00,VWS V14.01,2013-03-05 05:06:00,
2013-03-05 00:07:00,28.8,28.0,28.64,NNE,22,0.0,0.0,97,0.00,,---,0.00,VWS V14.01,2013-03-05 05:07:00,
2013-03-05 00:08:00,28.8,28.0,28.64,NNE,20,0.0,0.0,97,0.00,,---,0.00,VWS V14.01,2013-03-05 05:08:00,
2013-03-05 00:09:00,28.8,28.0,28.64,NNE,15,0.0,0.0,97,0.00,,---,0.00,VWS V14.01,2013-03-05 05:09:00,
2013-03-05 00:10:00,28.8,28.0,28.64,NNE,23,0.0,0.0,97,0.00,,---,0.00,VWS V14.01,2013-03-05 05:10:00,
2013-03-05 00:11:00,28.8,28.0,28.64,NNE,18,0.0,0.0,97,0.00,,---,0.00,VWS V14.01,2013-03-05 05:11:00,
2013-03-05 00:12:00,28.8,28.0,28.64,NNE,24,0.0,0.0,97,0.00,,---,0.00,VWS V14.01,2013-03-05 05:12:00,
2013-03-05 00:13:00,28.8,28.0,28.64,NNE,18,0.0,0.0,97,0.00,,---,0.00,VWS V14.01,2013-03-05 05:13:00,
2013-03-05 00:14:00,28.8,28.0,28.64,NNE,16,0.0,0.0,97,0.00,,---,0.00,VWS V14.01,2013-03-05 05:14:00,
2013-03-05 00:15:00,28.8,28.0,28.64,North,3,0.0,0.0,97,0.00,,---,0.00,VWS V14.01,2013-03-05 05:15:00,
2013-03-05 00:16:00,28.8,28.0,28.64,NE,35,0.0,0.0,97,0.00,,---,0.00,VWS V14.01,2013-03-05 05:16:00,
2013-03-05 00:17:00,28.8,28.0,28.64,NNE,28,0.0,0.0,97,0.00,,---,0.00,VWS V14.01,2013-03-05 05:17:00,
2013-03-05 00:18:00,28.8,28.0,28.64,NNE,25,0.0,0.0,97,0.00,,---,0.00,VWS V14.01,2013-03-05 05:18:00,
2013-03-05 00:19:00,28.8,28.0,28.64,NNE,32,0.0,0.0,97,0.00,,---,0.00,VWS V14.01,2013-03-05 05:19:00,
2013-03-05 00:20:00,28.8,28.0,28.64,NNE,12,0.0,0.0,97,0.00,,---,0.00,VWS V14.01,2013-03-05 05:20:00,
2013-03-05 00:21:00,28.8,28.0,28.64,North,5,0.0,0.0,97,0.00,,---,0.00,VWS V14.01,2013-03-05 05:21:00,
2013-03-05 00:22:00,28.8,28.0,28.64,NNE,19,0.0,0.0,97,0.00,,---,0.00,VWS V14.01,2013-03-05 05:22:00,
2013-03-05 00:23:00,28.8,28.0,28.64,NE,34,0.0,0.0,97,0.00,,---,0.00,VWS V14.01,2013-03-05 05:23:00,
2013-03-05 00:24:00,28.8,28.0,28.64,NNE,25,0.0,0.0,97,0.00,,---,0.00,VWS V14.01,2013-03-05 05:24:00,
2013-03-05 00:25:00,28.8,28.0,28.64,NNE,29,0.0,0.0,97,0.00,,---,0.00,VWS V14.01,2013-03-05 05:25:00,
2013-03-05 00:26:00,28.8,28.0,28.64,ENE,60,0.0,0.0,97,0.00,,---,0.00,VWS V14.01,2013-03-05 05:26:00,
2013-03-05 00:27:00,28.8,28.0,28.64,NE,51,0.0,0.0,97,0.00,,---,0.00,VWS V14.01,2013-03-05 05:27:00,
2013-03-05 00:28:00,28.8,28.0,28.64,NNE,32,0.0,0.0,97,0.00,,---,0.00,VWS V14.01,2013-03-05 05:28:00,
2013-03-05 00:29:00,28.8,28.0,28.64,NNE,26,0.0,0.0,97,0.00,,---,0.00,VWS V14.01,2013-03-05 05:29:00,
2013-03-05 00:30:00,28.8,28.0,28.64,NNE,19,0.0,0.0,97,0.00,,---,0.00,VWS V14.01,2013-03-05 05:30:00,
2013-03-05 00:31:00,28.8,28.0,28.64,NE,43,0.0,0.0,97,0.00,,---,0.00,VWS V14.01,2013-03-05 05:31:00,
2013-03-05 00:32:00,28.8,28.0,28.64,NNE,18,0.0,0.0,97,0.00,,---,0.00,VWS V14.01,2013-03-05 05:32:00,
2013-03-05 00:33:00,28.8,28.0,28.64,NNE,29,0.0,0.0,97,0.00,,---,0.00,VWS V14.01,2013-03-05 05:33:00,
2013-03-05 00:34:00,28.8,28.0,28.64,North,10,0.0,0.0,97,0.00,,---,0.00,VWS V14.01,2013-03-05 05:34:00,
2013-03-05 00:35:00,28.8,28.0,28.64,NE,35,0.0,0.0,97,0.00,,---,0.00,VWS V14.01,2013-03-05 05:35:00,
2013-03-05 00:36:00,28.8,28.0,28.64,North,3,0.0,0.0,97,0.00,,---,0.00,VWS V14.01,2013-03-05 05:36:00,
2013-03-05 00:37:00,28.8,28.0,28.67,NNE,27,0.0,0.0,97,0.00,,---,0.00,VWS V14.01,2013-03-05 05:37:00,
2013-03-05 00:38:00,28.8,28.0,28.67,NNE,26,0.0,0.0,97,0.00,,---,0.00,VWS V14.01,2013-03-05 05:38:00,
2013-03-05 00:39:00,28.8,28.0,28.67,NNE,32,0.0,0.0,97,0.00,,---,0.00,VWS V14.01,2013-03-05 05:39:00,
2013-03-05 00:40:00,28.8,28.0,28.67,North,356,0.0,0.0,97,0.00,,---,0.00,VWS V14.01,2013-03-05 05:40:00,
2013-03-05 00:41:00,28.8,28.0,28.67,NNE,31,0.0,0.0,97,0.00,,---,0.00,VWS V14.01,2013-03-05 05:41:00,
2013-03-05 00:42:00,28.8,28.0,28.67,NE,39,0.0,0.0,97,0.00,,---,0.00,VWS V14.01,2013-03-05 05:42:00,
2013-03-05 00:43:00,28.8,28.0,28.67,NNE,15,0.0,0.0,97,0.00,,---,0.00,VWS V14.01,2013-03-05 05:43:00,
2013-03-05 00:44:00,28.8,28.0,28.67,NNE,22,0.0,0.0,97,0.00,,---,0.00,VWS V14.01,2013-03-05 05:44:00,
2013-03-05 00:45:00,28.8,28.0,28.67,NE,34,0.0,0.0,97,0.00,,---,0.00,VWS V14.01,2013-03-05 05:45:00,
2013-03-05 00:46:00,28.8,28.0,28.67,NE,43,0.0,0.0,97,0.00,,---,0.00,VWS V14.01,2013-03-05 05:46:00,
2013-03-05 00:47:00,28.8,28.0,28.67,NNE,16,0.0,0.0,97,0.00,,---,0.00,VWS V14.01,2013-03-05 05:47:00,
2013-03-05 00:48:00,28.8,28.0,28.67,NNE,18,0.0,0.0,97,0.00,,---,0.00,VWS V14.01,2013-03-05 05:48:00,
2013-03-05 00:49:00,28.8,28.0,28.67,North,6,0.0,0.0,97,0.00,,---,0.00,VWS V14.01,2013-03-05 05:49:00,
2013-03-05 00:50:00,28.8,28.0,28.67,NE,38,0.0,0.0,97,0.00,,---,0.00,VWS V14.01,2013-03-05 05:50:00,
2013-03-05 00:51:00,28.8,28.0,28.67,NNE,28,0.0,0.0,97,0.00,,---,0.00,VWS V14.01,2013-03-05 05:51:00,
2013-03-05 00:52:00,28.8,28.0,28.67,NE,44,0.0,0.0,97,0.00,,---,0.00,VWS V14.01,2013-03-05 05:52:00,
2013-03-05 00:53:00,28.8,28.0,28.67,NNE,18,0.0,0.0,97,0.00,,---,0.00,VWS V14.01,2013-03-05 05:53:00,
2013-03-05 00:54:00,28.8,28.0,28.67,NNE,21,0.0,0.0,97,0.00,,---,0.00,VWS V14.01,2013-03-05 05:54:00,
2013-03-05 00:55:00,28.8,28.0,28.67,NE,53,0.0,0.0,97,0.00,,---,0.00,VWS V14.01,2013-03-05 05:55:00,
2013-03-05 00:56:00,28.8,28.0,28.67,NE,36,0.0,0.0,97,0.00,,---,0.00,VWS V14.01,2013-03-05 05:56:00,
2013-03-05 00:57:00,28.8,28.0,28.67,NNE,20,0.0,0.0,97,0.00,,---,0.00,VWS V14.01,2013-03-05 05:57:00,
2013-03-05 00:58:00,28.8,28.0,28.67,NNE,27,0.0,0.0,97,0.00,,---,0.00,VWS V14.01,2013-03-05 05:58:00,
2013-03-05 00:59:00,31.8,31.1,28.94,East,100,6.7,8.3,97,0.00,,---,0.00,VWS V14.01,2013-03-05 05:59:00,
2013-03-05 01:00:00,28.8,28.0,28.67,NNE,20,0.0,0.0,97,0.00,,---,0.00,VWS V14.01,2013-03-05 06:00:00,
2013-03-05 01:01:00,28.8,28.0,28.67,ENE,60,0.0,0.0,97,0.00,,---,0.00,VWS V14.01,2013-03-05 06:01:00,
2013-03-05 01:02:00,28.8,28.0,28.67,North,356,0.0,0.0,97,0.00,,---,0.00,VWS V14.01,2013-03-05 06:02:00,
2013-03-05 01:03:00,28.8,28.0,28.67,NNE,18,0.0,0.0,97,0.00,,---,0.00,VWS V14.01,2013-03-05 06:03:00,
2013-03-05 01:04:00,31.8,31.1,28.94,East,97,6.3,6.7,97,0.00,,---,0.00,VWS V14.01,2013-03-05 06:04:00,
2013-03-05 01:05:00,28.8,28.0,28.67,NE,35,0.0,0.0,97,0.00,,---,0.00,VWS V14.01,2013-03-05 06:05:00,
2013-03-05 01:06:00,28.8,28.0,28.67,NNE,22,0.0,0.0,97,0.00,,---,0.00,VWS V14.01,2013-03-05 06:06:00,
2013-03-05 01:07:00,28.8,28.0,28.67,NE,49,0.0,0.0,97,0.00,,---,0.00,VWS V14.01,2013-03-05 06:07:00,
2013-03-05 01:08:00,28.8,28.0,28.67,NNE,31,0.0,0.0,97,0.00,,---,0.00,VWS V14.01,2013-03-05 06:08:00,
2013-03-05 01:09:00,28.8,28.0,28.67,NE,44,0.0,0.0,97,0.00,,---,0.00,VWS V14.01,2013-03-05 06:09:00,
2013-03-05 01:10:00,28.8,28.0,28.67,NNE,24,0.0,0.0,97,0.00,,---,0.00,VWS V14.01,2013-03-05 06:10:00,
2013-03-05 01:11:00,28.8,28.0,28.67,NNE,25,0.0,0.0,97,0.00,,---,0.00,VWS V14.01,2013-03-05 06:11:00,
2013-03-05 01:12:00,32.0,31.2,28.94,ESE,109,5.4,7.4,97,0.00,,---,0.00,VWS V14.01,2013-03-05 06:12:00,
2013-03-05 01:13:00,28.8,28.0,28.67,NNE,15,0.0,0.0,97,0.00,,---,0.00,VWS V14.01,2013-03-05 06:13:00,
2013-03-05 01:14:00,28.8,28.0,28.67,NNE,25,0.0,0.0,97,0.00,,---,0.00,VWS V14.01,2013-03-05 06:14:00,
2013-03-05 01:15:00,28.8,28.0,28.67,NNE,16,0.0,0.0,97,0.00,,---,0.00,VWS V14.01,2013-03-05 06:15:00,
2013-03-05 01:16:00,28.8,28.0,28.67,NNE,21,0.0,0.0,97,0.00,,---,0.00,VWS V14.01,2013-03-05 06:16:00,
2013-03-05 01:17:00,28.8,28.0,28.67,NNE,23,0.0,0.0,97,0.00,,---,0.00,VWS V14.01,2013-03-05 06:17:00,
2013-03-05 01:18:00,32.0,31.2,28.94,ESE,106,5.4,7.4,97,0.00,,---,0.00,VWS V14.01,2013-03-05 06:18:00,
2013-03-05 01:19:00,28.8,28.0,28.67,NE,47,0.0,0.0,97,0.00,,---,0.00,VWS V14.01,2013-03-05 06:19:00,
2013-03-05 01:20:00,28.8,28.0,28.67,NNE,27,0.0,0.0,97,0.00,,---,0.00,VWS V14.01,2013-03-05 06:20:00,
2013-03-05 01:21:00,28.8,28.0,28.67,NNE,14,0.0,0.0,97,0.00,,---,0.00,VWS V14.01,2013-03-05 06:21:00,
2013-03-05 01:22:00,28.8,28.0,28.67,NNE,16,0.0,0.0,97,0.00,,---,0.00,VWS V14.01,2013-03-05 06:22:00,
2013-03-05 01:23:00,32.0,31.2,28.94,East,87,8.3,9.6,97,0.00,,---,0.00,VWS V14.01,2013-03-05 06:23:00,
2013-03-05 01:24:00,28.8,28.0,28.67,NNE,17,0.0,0.0,97,0.00,,---,0.00,VWS V14.01,2013-03-05 06:24:00,
2013-03-05 01:25:00,28.8,28.0,28.67,NNE,32,0.0,0.0,97,0.00,,---,0.00,VWS V14.01,2013-03-05 06:25:00,
2013-03-05 01:26:00,28.8,28.0,28.67,NNE,20,0.0,0.0,97,0.00,,---,0.00,VWS V14.01,2013-03-05 06:26:00,
2013-03-05 01:27:00,28.8,28.0,28.67,North,10,0.0,0.0,97,0.00,,---,0.00,VWS V14.01,2013-03-05 06:27:00,
2013-03-05 01:28:00,32.0,31.2,28.94,East,94,5.4,6.3,97,0.00,,---,0.00,VWS V14.01,2013-03-05 06:28:00,
2013-03-05 01:29:00,28.8,28.0,28.67,NNE,21,0.0,0.0,97,0.00,,---,0.00,VWS V14.01,2013-03-05 06:29:00,
2013-03-05 01:30:00,28.8,28.0,28.67,NNE,23,0.0,0.0,97,0.00,,---,0.00,VWS V14.01,2013-03-05 06:30:00,
2013-03-05 01:31:00,28.8,28.0,28.67,NNE,19,0.0,0.0,97,0.00,,---,0.00,VWS V14.01,2013-03-05 06:31:00,
2013-03-05 01:32:00,28.8,28.0,28.67,NE,38,0.0,0.0,97,0.00,,---,0.00,VWS V14.01,2013-03-05 06:32:00,
2013-03-05 01:33:00,32.0,31.2,28.94,East,89,4.9,5.8,97,0.00,,---,0.00,VWS V14.01,2013-03-05 06:33:00,
2013-03-05 01:34:00,28.8,28.0,28.67,NNE,23,0.0,0.0,97,0.00,,---,0.00,VWS V14.01,2013-03-05 06:34:00,
2013-03-05 01:35:00,28.8,28.0,28.67,NNE,29,0.0,0.0,97,0.00,,---,0.00,VWS V14.01,2013-03-05 06:35:00,
2013-03-05 01:36:00,28.8,28.0,28.67,NE,36,0.0,0.0,97,0.00,,---,0.00,VWS V14.01,2013-03-05 06:36:00,
2013-03-05 01:37:00,28.8,28.0,28.67,NNE,23,0.0,0.0,97,0.00,,---,0.00,VWS V14.01,2013-03-05 06:37:00,
2013-03-05 01:38:00,32.0,31.2,28.94,East,82,4.9,8.7,97,0.00,,---,0.00,VWS V14.01,2013-03-05 06:38:00,
2013-03-05 01:39:00,28.8,28.0,28.67,NNE,16,0.0,0.0,97,0.00,,---,0.00,VWS V14.01,2013-03-05 06:39:00,
2013-03-05 01:40:00,28.8,28.0,28.67,North,6,0.0,0.0,97,0.00,,---,0.00,VWS V14.01,2013-03-05 06:40:00,
2013-03-05 01:41:00,28.8,28.0,28.67,NNE,30,0.0,0.0,97,0.00,,---,0.00,VWS V14.01,2013-03-05 06:41:00,
2013-03-05 01:42:00,28.8,28.0,28.67,NNE,18,0.0,0.0,97,0.00,,---,0.00,VWS V14.01,2013-03-05 06:42:00,
2013-03-05 01:43:00,32.2,31.4,28.94,East,84,5.8,8.3,97,0.00,,---,0.00,VWS V14.01,2013-03-05 06:43:00,
2013-03-05 01:44:00,28.8,28.0,28.67,NNE,27,0.0,0.0,97,0.00,,---,0.00,VWS V14.01,2013-03-05 06:44:00,
2013-03-05 01:45:00,28.8,28.0,28.67,NNE,17,0.0,0.0,97,0.00,,---,0.00,VWS V14.01,2013-03-05 06:45:00,
2013-03-05 01:46:00,28.8,28.0,28.67,NNE,30,0.0,0.0,97,0.00,,---,0.00,VWS V14.01,2013-03-05 06:46:00,
2013-03-05 01:47:00,28.8,28.0,28.67,NNE,25,0.0,0.0,97,0.00,,---,0.00,VWS V14.01,2013-03-05 06:47:00,
2013-03-05 01:48:00,28.8,28.0,28.67,NNE,23,0.0,0.0,97,0.00,,---,0.00,VWS V14.01,2013-03-05 06:48:00,
2013-03-05 01:49:00,28.8,28.0,28.67,NE,46,0.0,0.0,97,0.00,,---,0.00,VWS V14.01,2013-03-05 06:49:00,
2013-03-05 01:50:00,32.2,31.4,28.94,ESE,104,5.4,7.8,97,0.00,,---,0.00,VWS V14.01,2013-03-05 06:50:00,
2013-03-05 01:51:00,28.8,28.0,28.67,NNE,32,0.0,0.0,97,0.00,,---,0.00,VWS V14.01,2013-03-05 06:51:00,
2013-03-05 01:52:00,28.8,28.0,28.67,NNE,19,0.0,0.0,97,0.00,,---,0.00,VWS V14.01,2013-03-05 06:52:00,
2013-03-05 01:53:00,28.9,28.2,28.67,NE,39,0.0,0.0,97,0.00,,---,0.00,VWS V14.01,2013-03-05 06:53:00,
2013-03-05 01:54:00,28.9,28.2,28.67,NNE,23,0.0,0.0,97,0.00,,---,0.00,VWS V14.01,2013-03-05 06:54:00,
2013-03-05 01:55:00,32.2,31.4,28.94,East,94,9.6,10.1,97,0.00,,---,0.00,VWS V14.01,2013-03-05 06:55:00,
2013-03-05 01:56:00,28.9,28.2,28.67,NNE,14,0.0,0.0,97,0.00,,---,0.00,VWS V14.01,2013-03-05 06:56:00,
2013-03-05 01:57:00,28.9,28.2,28.67,NNE,15,0.0,0.0,97,0.00,,---,0.00,VWS V14.01,2013-03-05 06:57:00,
2013-03-05 01:58:00,28.9,28.2,28.67,NNE,18,0.0,0.0,97,0.00,,---,0.00,VWS V14.01,2013-03-05 06:58:00,
2013-03-05 01:59:00,28.9,28.2,28.67,NNE,14,0.0,0.0,97,0.00,,---,0.00,VWS V14.01,2013-03-05 06:59:00,
2013-03-05 02:00:00,32.2,31.4,28.91,ESE,114,5.4,7.4,97,0.00,,---,0.00,VWS V14.01,2013-03-05 07:00:00,
2013-03-05 02:01:00,28.9,28.2,28.67,NNE,12,0.0,0.0,97,0.00,,---,0.00,VWS V14.01,2013-03-05 07:01:00,
2013-03-05 02:02:00,28.9,28.2,28.67,NNE,25,0.0,0.0,97,0.00,,---,0.00,VWS V14.01,2013-03-05 07:02:00,
2013-03-05 02:03:00,28.9,28.2,28.67,NNE,16,0.0,0.0,97,0.00,,---,0.00,VWS V14.01,2013-03-05 07:03:00,
2013-03-05 02:04:00,28.9,28.2,28.67,NNE,26,0.0,0.0,97,0.00,,---,0.00,VWS V14.01,2013-03-05 07:04:00,
2013-03-05 02:05:00,32.2,31.4,28.91,East,98,6.3,7.8,97,0.00,,---,0.00,VWS V14.01,2013-03-05 07:05:00,
2013-03-05 02:06:00,28.9,28.2,28.67,NE,36,0.0,0.0,97,0.00,,---,0.00,VWS V14.01,2013-03-05 07:06:00,
2013-03-05 02:07:00,29.1,28.4,28.70,NNW,332,0.0,0.0,97,0.00,,---,0.00,VWS V14.01,2013-03-05 07:07:00,
2013-03-05 02:08:00,29.1,28.4,28.70,North,8,0.0,0.0,97,0.00,,---,0.00,VWS V14.01,2013-03-05 07:08:00,
2013-03-05 02:09:00,29.1,28.4,28.70,NNE,31,0.0,0.0,97,0.00,,---,0.00,VWS V14.01,2013-03-05 07:09:00,
2013-03-05 02:10:00,32.2,31.4,28.91,ESE,109,6.7,7.4,97,0.00,,---,0.00,VWS V14.01,2013-03-05 07:10:00,
2013-03-05 02:11:00,29.1,28.4,28.70,North,3,0.0,0.0,97,0.00,,---,0.00,VWS V14.01,2013-03-05 07:11:00,
2013-03-05 02:12:00,29.1,28.4,28.70,NNW,336,0.0,0.0,97,0.00,,---,0.00,VWS V14.01,2013-03-05 07:12:00,
2013-03-05 02:13:00,29.1,28.4,28.70,NNE,19,0.0,0.0,97,0.00,,---,0.00,VWS V14.01,2013-03-05 07:13:00,
2013-03-05 02:14:00,29.1,28.4,28.70,NNE,30,0.0,0.0,97,0.00,,---,0.00,VWS V14.01,2013-03-05 07:14:00,
2013-03-05 02:15:00,32.2,31.4,28.91,ESE,118,5.4,9.2,97,0.00,,---,0.00,VWS V14.01,2013-03-05 07:15:00,
2013-03-05 02:16:00,29.1,28.4,28.70,NNE,12,0.0,0.0,97,0.00,,---,0.00,VWS V14.01,2013-03-05 07:16:00,
2013-03-05 02:17:00,29.1,28.4,28.70,NNE,30,0.0,0.0,97,0.00,,---,0.00,VWS V14.01,2013-03-05 07:17:00,
2013-03-05 02:18:00,29.3,28.6,28.70,NNE,33,0.0,0.0,97,0.00,,---,0.00,VWS V14.01,2013-03-05 07:18:00,
2013-03-05 02:19:00,29.3,28.6,28.70,North,351,0.0,0.0,97,0.00,,---,0.00,VWS V14.01,2013-03-05 07:19:00,
2013-03-05 02:20:00,32.0,31.2,28.91,East,100,9.6,10.5,97,0.00,,---,0.00,VWS V14.01,2013-03-05 07:20:00,
2013-03-05 02:21:00,29.3,28.6,28.70,North,3,0.0,0.0,97,0.00,,---,0.00,VWS V14.01,2013-03-05 07:21:00,
2013-03-05 02:22:00,29.3,28.6,28.70,NNE,17,0.0,0.0,97,0.00,,---,0.00,VWS V14.01,2013-03-05 07:22:00,
2013-03-05 02:23:00,29.3,28.6,28.70,NE,37,0.0,0.0,97,0.00,,---,0.00,VWS V14.01,2013-03-05 07:23:00,
2013-03-05 02:24:00,29.3,28.6,28.70,NNE,24,0.0,0.0,97,0.00,,---,0.00,VWS V14.01,2013-03-05 07:24:00,
2013-03-05 02:25:00,32.0,31.2,28.91,East,99,6.3,7.4,97,0.00,,---,0.00,VWS V14.01,2013-03-05 07:25:00,
2013-03-05 02:26:00,29.3,28.6,28.70,NNE,17,0.0,0.0,97,0.00,,---,0.00,VWS V14.01,2013-03-05 07:26:00,
2013-03-05 02:27:00,29.5,28.7,28.70,NNW,333,0.0,0.0,97,0.00,,---,0.00,VWS V14.01,2013-03-05 07:27:00,
2013-03-05 02:28:00,29.3,28.6,28.70,North,10,0.0,0.0,97,0.00,,---,0.00,VWS V14.01,2013-03-05 07:28:00,
2013-03-05 02:29:00,29.5,28.7,28.70,NNE,30,0.0,0.0,97,0.00,,---,0.00,VWS V14.01,2013-03-05 07:29:00,
2013-03-05 02:30:00,32.0,31.2,28.91,East,94,6.7,10.1,97,0.00,,---,0.00,VWS V14.01,2013-03-05 07:30:00,
2013-03-05 02:31:00,29.5,28.7,28.70,NNE,24,0.0,0.0,97,0.00,,---,0.00,VWS V14.01,2013-03-05 07:31:00,
2013-03-05 02:32:00,29.5,28.7,28.70,NE,35,0.0,0.0,97,0.00,,---,0.00,VWS V14.01,2013-03-05 07:32:00,
2013-03-05 02:33:00,29.5,28.7,28.70,NE,44,0.0,0.0,97,0.00,,---,0.00,VWS V14.01,2013-03-05 07:33:00,
2013-03-05 02:34:00,29.5,28.7,28.70,NNE,33,0.0,0.0,97,0.00,,---,0.00,VWS V14.01,2013-03-05 07:34:00,
2013-03-05 02:35:00,32.2,31.4,28.91,East,99,4.0,6.7,97,0.00,,---,0.00,VWS V14.01,2013-03-05 07:35:00,
2013-03-05 02:40:00,32.2,31.4,28.91,ENE,75,4.9,6.9,97,0.00,,---,0.00,VWS V14.01,2013-03-05 07:40:00,
2013-03-05 02:41:00,29.5,28.7,28.70,NNE,14,0.0,0.0,97,0.00,,---,0.00,VWS V14.01,2013-03-05 07:41:00,
2013-03-05 02:42:00,29.5,28.7,28.70,NNE,19,0.0,0.0,97,0.00,,---,0.00,VWS V14.01,2013-03-05 07:42:00,
2013-03-05 02:43:00,29.5,28.7,28.70,NNE,12,0.0,0.0,97,0.00,,---,0.00,VWS V14.01,2013-03-05 07:43:00,
2013-03-05 02:44:00,29.5,28.7,28.70,NNE,24,0.0,0.0,97,0.00,,---,0.00,VWS V14.01,2013-03-05 07:44:00,
2013-03-05 02:45:00,32.2,31.4,28.91,East,98,6.3,6.3,97,0.00,,---,0.00,VWS V14.01,2013-03-05 07:45:00,
2013-03-05 02:46:00,29.5,28.7,28.70,NNE,33,0.0,0.0,97,0.00,,---,0.00,VWS V14.01,2013-03-05 07:46:00,
2013-03-05 02:47:00,29.5,28.7,28.70,NNE,12,0.0,0.0,97,0.00,,---,0.00,VWS V14.01,2013-03-05 07:47:00,
2013-03-05 02:48:00,29.5,28.7,28.70,NNW,327,0.0,0.0,97,0.00,,---,0.00,VWS V14.01,2013-03-05 07:48:00,
2013-03-05 02:49:00,29.5,28.7,28.70,NNE,29,0.0,0.0,97,0.00,,---,0.00,VWS V14.01,2013-03-05 07:49:00,
2013-03-05 02:50:00,32.2,31.4,28.91,East,94,8.7,10.5,97,0.00,,---,0.00,VWS V14.01,2013-03-05 07:50:00,
2013-03-05 02:51:00,29.5,28.7,28.70,North,351,0.0,0.0,97,0.00,,---,0.00,VWS V14.01,2013-03-05 07:51:00,
2013-03-05 02:52:00,29.5,28.7,28.70,NNE,19,0.0,0.0,97,0.00,,---,0.00,VWS V14.01,2013-03-05 07:52:00,
2013-03-05 02:53:00,29.5,28.7,28.70,NNE,15,0.0,0.0,97,0.00,,---,0.00,VWS V14.01,2013-03-05 07:53:00,
2013-03-05 02:54:00,29.5,28.7,28.70,NNE,18,0.0,0.0,97,0.00,,---,0.00,VWS V14.01,2013-03-05 07:54:00,
2013-03-05 02:55:00,32.2,31.4,28.91,ESE,117,7.8,7.8,97,0.00,,---,0.00,VWS V14.01,2013-03-05 07:55:00,
2013-03-05 02:56:00,29.5,28.7,28.70,North,9,0.0,0.0,97,0.00,,---,0.00,VWS V14.01,2013-03-05 07:56:00,
2013-03-05 02:57:00,29.5,28.7,28.70,NNE,22,0.0,0.0,97,0.00,,---,0.00,VWS V14.01,2013-03-05 07:57:00,
2013-03-05 02:58:00,29.5,28.7,28.70,NE,42,0.0,0.0,97,0.00,,---,0.00,VWS V14.01,2013-03-05 07:58:00,
2013-03-05 02:59:00,29.5,28.7,28.70,NNE,18,0.0,0.0,97,0.00,,---,0.00,VWS V14.01,2013-03-05 07:59:00,
2013-03-05 03:00:00,32.2,31.4,28.91,ESE,110,5.4,6.9,97,0.00,,---,0.00,VWS V14.01,2013-03-05 08:00:00,
2013-03-05 03:01:00,29.5,28.7,28.70,North,8,0.0,0.0,97,0.00,,---,0.00,VWS V14.01,2013-03-05 08:01:00,
2013-03-05 03:02:00,29.5,28.7,28.70,North,356,0.0,0.0,97,0.00,,---,0.00,VWS V14.01,2013-03-05 08:02:00,
2013-03-05 03:03:00,29.5,28.7,28.70,NNE,32,0.0,0.0,97,0.00,,---,0.00,VWS V14.01,2013-03-05 08:03:00,
2013-03-05 03:04:00,29.3,28.6,28.70,NNE,31,0.0,0.0,97,0.00,,---,0.00,VWS V14.01,2013-03-05 08:04:00,
2013-03-05 03:05:00,32.2,31.4,28.91,ESE,117,6.9,7.4,97,0.00,,---,0.00,VWS V14.01,2013-03-05 08:05:00,
2013-03-05 03:06:00,29.3,28.6,28.70,NE,39,0.0,0.0,97,0.00,,---,0.00,VWS V14.01,2013-03-05 08:06:00,
2013-03-05 03:07:00,29.3,28.6,28.70,NNE,23,0.0,0.0,97,0.00,,---,0.00,VWS V14.01,2013-03-05 08:07:00,
2013-03-05 03:08:00,29.3,28.6,28.70,NNE,33,0.0,0.0,97,0.00,,---,0.00,VWS V14.01,2013-03-05 08:08:00,
2013-03-05 03:09:00,29.3,28.6,28.70,NNE,24,0.0,0.0,97,0.00,,---,0.00,VWS V14.01,2013-03-05 08:09:00,
2013-03-05 03:10:00,32.2,31.2,28.91,East,101,4.5,6.7,96,0.00,,---,0.00,VWS V14.01,2013-03-05 08:10:00,
2013-03-05 03:11:00,29.3,28.6,28.70,NNE,20,0.0,0.0,97,0.00,,---,0.00,VWS V14.01,2013-03-05 08:11:00,
2013-03-05 03:12:00,29.3,28.6,28.70,NNE,26,0.0,0.0,97,0.00,,---,0.00,VWS V14.01,2013-03-05 08:12:00,
2013-03-05 03:13:00,29.3,28.6,28.70,NNE,19,0.0,0.0,97,0.00,,---,0.00,VWS V14.01,2013-03-05 08:13:00,
2013-03-05 03:14:00,29.3,28.6,28.70,NNE,25,0.0,0.0,97,0.00,,---,0.00,VWS V14.01,2013-03-05 08:14:00,
2013-03-05 03:15:00,32.2,31.2,28.91,ESE,112,7.8,8.7,96,0.00,,---,0.00,VWS V14.01,2013-03-05 08:15:00,
2013-03-05 03:16:00,29.1,28.4,28.70,North,351,0.0,0.0,97,0.00,,---,0.00,VWS V14.01,2013-03-05 08:16:00,
2013-03-05 03:17:00,28.9,28.2,28.70,NNE,19,0.0,0.0,97,0.00,,---,0.00,VWS V14.01,2013-03-05 08:17:00,
2013-03-05 03:18:00,28.9,28.2,28.70,North,3,0.0,0.0,97,0.00,,---,0.00,VWS V14.01,2013-03-05 08:18:00,
2013-03-05 03:19:00,28.9,28.2,28.70,North,356,0.0,0.0,97,0.00,,---,0.00,VWS V14.01,2013-03-05 08:19:00,
2013-03-05 03:20:00,32.2,31.2,28.91,ESE,104,6.3,8.7,96,0.00,,---,0.00,VWS V14.01,2013-03-05 08:20:00,
2013-03-05 03:21:00,28.8,28.0,28.70,NNW,336,0.0,0.0,97,0.00,,---,0.00,VWS V14.01,2013-03-05 08:21:00,
2013-03-05 03:22:00,28.6,27.8,28.73,NE,35,0.0,0.0,97,0.00,,---,0.00,VWS V14.01,2013-03-05 08:22:00,
2013-03-05 03:23:00,28.6,27.8,28.73,NE,45,0.0,0.0,97,0.00,,---,0.00,VWS V14.01,2013-03-05 08:23:00,
2013-03-05 03:24:00,28.4,27.7,28.73,NNE,27,0.0,0.0,97,0.00,,---,0.00,VWS V14.01,2013-03-05 08:24:00,
2013-03-05 03:25:00,32.0,31.0,28.91,ENE,71,6.9,8.3,96,0.00,,---,0.00,VWS V14.01,2013-03-05 08:25:00,
2013-03-05 03:26:00,28.4,27.7,28.73,North,1,0.0,0.0,97,0.00,,---,0.00,VWS V14.01,2013-03-05 08:26:00,
2013-03-05 03:27:00,28.4,27.7,28.73,NNW,346,0.0,0.0,97,0.00,,---,0.00,VWS V14.01,2013-03-05 08:27:00,
2013-03-05 03:28:00,28.4,27.7,28.73,NNE,19,0.0,0.0,97,0.00,,---,0.00,VWS V14.01,2013-03-05 08:28:00,
2013-03-05 03:29:00,28.4,27.7,28.73,NNE,25,0.0,0.0,97,0.00,,---,0.00,VWS V14.01,2013-03-05 08:29:00,
2013-03-05 03:30:00,32.0,31.0,28.88,ESE,103,6.3,8.3,96,0.00,,---,0.00,VWS V14.01,2013-03-05 08:30:00,
2013-03-05 03:31:00,28.4,27.7,28.73,NNW,343,0.0,0.0,97,0.00,,---,0.00,VWS V14.01,2013-03-05 08:31:00,
2013-03-05 03:32:00,28.4,27.7,28.73,North,356,0.0,0.0,97,0.00,,---,0.00,VWS V14.01,2013-03-05 08:32:00,
2013-03-05 03:33:00,28.2,27.5,28.73,North,4,0.0,0.0,97,0.00,,---,0.00,VWS V14.01,2013-03-05 08:33:00,
2013-03-05 03:34:00,28.2,27.5,28.73,NE,36,0.0,0.0,97,0.00,,---,0.00,VWS V14.01,2013-03-05 08:34:00,
2013-03-05 03:35:00,32.2,31.2,28.88,East,96,5.4,8.7,96,0.00,,---,0.00,VWS V14.01,2013-03-05 08:35:00,
2013-03-05 03:36:00,28.2,27.5,28.73,North,8,0.0,0.0,97,0.00,,---,0.00,VWS V14.01,2013-03-05 08:36:00,
2013-03-05 03:37:00,28.2,27.5,28.73,NNE,13,0.0,0.0,97,0.00,,---,0.00,VWS V14.01,2013-03-05 08:37:00,
2013-03-05 03:38:00,28.0,27.3,28.73,NNE,27,0.0,0.0,97,0.00,,---,0.00,VWS V14.01,2013-03-05 08:38:00,
2013-03-05 03:39:00,28.0,27.3,28.73,NNE,18,0.0,0.0,97,0.00,,---,0.00,VWS V14.01,2013-03-05 08:39:00,
2013-03-05 03:40:00,32.2,30.9,28.88,East,92,7.8,9.2,95,0.00,,---,0.00,VWS V14.01,2013-03-05 08:40:00,
2013-03-05 03:41:00,28.0,27.3,28.73,NNE,23,0.0,0.0,97,0.00,,---,0.00,VWS V14.01,2013-03-05 08:41:00,
2013-03-05 03:42:00,28.0,27.3,28.73,NNE,12,0.0,0.0,97,0.00,,---,0.00,VWS V14.01,2013-03-05 08:42:00,
2013-03-05 03:43:00,28.0,27.3,28.73,NNE,16,0.0,0.0,97,0.00,,---,0.00,VWS V14.01,2013-03-05 08:43:00,
2013-03-05 03:44:00,28.0,27.3,28.73,NNE,27,0.0,0.0,97,0.00,,---,0.00,VWS V14.01,2013-03-05 08:44:00,
2013-03-05 03:45:00,32.2,30.9,28.88,ESE,117,10.1,12.5,95,0.00,,---,0.00,VWS V14.01,2013-03-05 08:45:00,
2013-03-05 03:46:00,28.0,27.3,28.73,NNE,15,0.0,0.0,97,0.00,,---,0.00,VWS V14.01,2013-03-05 08:46:00,
2013-03-05 03:47:00,28.0,27.3,28.73,North,11,0.0,0.0,97,0.00,,---,0.00,VWS V14.01,2013-03-05 08:47:00,
2013-03-05 03:48:00,28.0,27.3,28.73,NNE,23,0.0,0.0,97,0.00,,---,0.00,VWS V14.01,2013-03-05 08:48:00,
2013-03-05 03:49:00,28.0,27.3,28.73,NNE,24,0.0,0.0,97,0.00,,---,0.00,VWS V14.01,2013-03-05 08:49:00,
2013-03-05 03:50:00,32.2,30.9,28.88,ESE,123,6.9,10.5,95,0.00,,---,0.00,VWS V14.01,2013-03-05 08:50:00,
2013-03-05 03:51:00,27.9,27.1,28.73,NE,47,0.0,0.0,97,0.00,,---,0.00,VWS V14.01,2013-03-05 08:51:00,
2013-03-05 03:52:00,27.9,27.1,28.73,NNE,25,0.0,0.0,97,0.00,,---,0.00,VWS V14.01,2013-03-05 08:52:00,
2013-03-05 03:53:00,27.9,27.1,28.73,NE,37,0.0,0.0,97,0.00,,---,0.00,VWS V14.01,2013-03-05 08:53:00,
2013-03-05 03:54:00,27.9,27.1,28.73,NNE,17,0.0,0.0,97,0.00,,---,0.00,VWS V14.01,2013-03-05 08:54:00,
2013-03-05 03:55:00,32.2,30.9,28.88,East,89,6.7,10.5,95,0.00,,---,0.00,VWS V14.01,2013-03-05 08:55:00,
2013-03-05 03:56:00,27.7,26.9,28.73,NNE,31,0.0,0.0,97,0.00,,---,0.00,VWS V14.01,2013-03-05 08:56:00,
2013-03-05 03:57:00,27.7,26.9,28.73,North,2,0.0,0.0,97,0.00,,---,0.00,VWS V14.01,2013-03-05 08:57:00,
2013-03-05 03:58:00,27.7,26.9,28.73,NNE,28,0.0,0.0,97,0.00,,---,0.00,VWS V14.01,2013-03-05 08:58:00,
2013-03-05 03:59:00,27.5,26.8,28.73,NNE,25,0.0,0.0,97,0.00,,---,0.00,VWS V14.01,2013-03-05 08:59:00,
2013-03-05 04:00:00,32.2,30.9,28.88,East,97,6.9,8.3,95,0.00,,---,0.00,VWS V14.01,2013-03-05 09:00:00,
2013-03-05 04:01:00,27.5,26.8,28.73,NNE,22,0.0,0.0,97,0.00,,---,0.00,VWS V14.01,2013-03-05 09:01:00,
2013-03-05 04:02:00,27.5,26.8,28.73,NNE,13,0.0,0.0,97,0.00,,---,0.00,VWS V14.01,2013-03-05 09:02:00,
2013-03-05 04:03:00,27.5,26.8,28.73,NNE,12,0.0,0.0,97,0.00,,---,0.00,VWS V14.01,2013-03-05 09:03:00,
2013-03-05 04:04:00,27.3,26.6,28.73,NE,36,0.0,0.0,97,0.00,,---,0.00,VWS V14.01,2013-03-05 09:04:00,
2013-03-05 04:05:00,32.2,30.6,28.88,ESE,106,6.7,8.3,94,0.00,,---,0.00,VWS V14.01,2013-03-05 09:05:00,
2013-03-05 04:06:00,27.3,26.6,28.73,North,8,0.0,0.0,97,0.00,,---,0.00,VWS V14.01,2013-03-05 09:06:00,
2013-03-05 04:07:00,27.3,26.6,28.73,NE,35,0.0,0.0,97,0.00,,---,0.00,VWS V14.01,2013-03-05 09:07:00,
2013-03-05 04:08:00,27.3,26.6,28.73,NNE,26,0.0,0.0,97,0.00,,---,0.00,VWS V14.01,2013-03-05 09:08:00,
2013-03-05 04:09:00,27.3,26.6,28.73,North,356,0.0,0.0,97,0.00,,---,0.00,VWS V14.01,2013-03-05 09:09:00,
2013-03-05 04:10:00,32.2,30.6,28.88,ESE,111,7.8,8.3,94,0.00,,---,0.00,VWS V14.01,2013-03-05 09:10:00,
2013-03-05 04:11:00,27.3,26.6,28.73,NNE,18,0.0,0.0,97,0.00,,---,0.00,VWS V14.01,2013-03-05 09:11:00,
2013-03-05 04:12:00,27.3,26.6,28.73,NE,40,0.0,0.0,97,0.00,,---,0.00,VWS V14.01,2013-03-05 09:12:00,
2013-03-05 04:13:00,27.3,26.6,28.73,NNW,339,0.0,0.0,97,0.00,,---,0.00,VWS V14.01,2013-03-05 09:13:00,
2013-03-05 04:14:00,27.3,26.6,28.73,NNE,19,0.0,0.0,97,0.00,,---,0.00,VWS V14.01,2013-03-05 09:14:00,
2013-03-05 04:15:00,32.2,30.6,28.88,East,94,6.7,8.3,94,0.00,,---,0.00,VWS V14.01,2013-03-05 09:15:00,
2013-03-05 04:16:00,27.1,26.4,28.73,NNE,26,0.0,0.0,97,0.00,,---,0.00,VWS V14.01,2013-03-05 09:16:00,
2013-03-05 04:17:00,27.3,26.6,28.73,NNE,27,0.0,0.0,97,0.00,,---,0.00,VWS V14.01,2013-03-05 09:17:00,
2013-03-05 04:18:00,27.1,26.4,28.73,NNE,17,0.0,0.0,97,0.00,,---,0.00,VWS V14.01,2013-03-05 09:18:00,
2013-03-05 04:19:00,27.1,26.4,28.73,NNE,25,0.0,0.0,97,0.00,,---,0.00,VWS V14.01,2013-03-05 09:19:00,
2013-03-05 04:20:00,32.2,30.6,28.88,East,95,8.7,8.7,94,0.00,,---,0.00,VWS V14.01,2013-03-05 09:20:00,
2013-03-05 04:21:00,27.3,26.6,28.73,NE,50,0.0,0.0,97,0.00,,---,0.00,VWS V14.01,2013-03-05 09:21:00,
2013-03-05 04:22:00,27.3,26.6,28.76,NNE,17,0.0,0.0,97,0.00,,---,0.00,VWS V14.01,2013-03-05 09:22:00,
2013-03-05 04:23:00,27.1,26.4,28.76,NNE,26,0.0,0.0,97,0.00,,---,0.00,VWS V14.01,2013-03-05 09:23:00,
2013-03-05 04:24:00,27.1,26.4,28.76,NE,38,0.0,0.0,97,0.00,,---,0.00,VWS V14.01,2013-03-05 09:24:00,
2013-03-05 04:25:00,32.2,30.6,28.88,ENE,75,5.8,6.7,94,0.00,,---,0.00,VWS V14.01,2013-03-05 09:25:00,
2013-03-05 04:26:00,27.1,26.4,28.76,NE,34,0.0,0.0,97,0.00,,---,0.00,VWS V14.01,2013-03-05 09:26:00,
2013-03-05 04:27:00,27.3,26.6,28.76,NNE,28,0.0,0.0,97,0.00,,---,0.00,VWS V14.01,2013-03-05 09:27:00,
2013-03-05 04:28:00,27.3,26.6,28.76,NE,42,0.0,0.0,97,0.00,,---,0.00,VWS V14.01,2013-03-05 09:28:00,
2013-03-05 04:29:00,27.3,26.6,28.76,North,356,0.0,0.0,97,0.00,,---,0.00,VWS V14.01,2013-03-05 09:29:00,
2013-03-05 04:30:00,32.2,30.6,28.88,East,79,10.5,12.1,94,0.00,,---,0.00,VWS V14.01,2013-03-05 09:30:00,
2013-03-05 04:31:00,27.1,26.4,28.76,NE,52,0.0,0.0,97,0.00,,---,0.00,VWS V14.01,2013-03-05 09:31:00,
2013-03-05 04:32:00,27.1,26.4,28.76,North,3,0.0,0.0,97,0.00,,---,0.00,VWS V14.01,2013-03-05 09:32:00,
2013-03-05 04:33:00,27.1,26.4,28.76,NE,41,0.0,0.0,97,0.00,,---,0.00,VWS V14.01,2013-03-05 09:33:00,
2013-03-05 04:34:00,27.1,26.4,28.76,NNE,19,0.0,0.0,97,0.00,,---,0.00,VWS V14.01,2013-03-05 09:34:00,
2013-03-05 04:35:00,32.2,30.6,28.88,ESE,103,5.4,7.8,94,0.00,,---,0.00,VWS V14.01,2013-03-05 09:35:00,
2013-03-05 04:36:00,27.1,26.4,28.76,NNE,29,0.0,0.0,97,0.00,,---,0.00,VWS V14.01,2013-03-05 09:36:00,
2013-03-05 04:37:00,27.1,26.4,28.76,NNE,18,0.0,0.0,97,0.00,,---,0.00,VWS V14.01,2013-03-05 09:37:00,
2013-03-05 04:38:00,27.1,26.4,28.76,NNE,31,0.0,0.0,97,0.00,,---,0.00,VWS V14.01,2013-03-05 09:38:00,
2013-03-05 04:39:00,27.1,26.4,28.76,NNE,30,0.0,0.0,97,0.00,,---,0.00,VWS V14.01,2013-03-05 09:39:00,
2013-03-05 04:40:00,32.2,30.6,28.88,ESE,103,9.6,9.6,94,0.00,,---,0.00,VWS V14.01,2013-03-05 09:40:00,
2013-03-05 04:41:00,27.1,26.4,28.76,North,10,0.0,0.0,97,0.00,,---,0.00,VWS V14.01,2013-03-05 09:41:00,
2013-03-05 04:42:00,27.1,26.4,28.76,NNE,12,0.0,0.0,97,0.00,,---,0.00,VWS V14.01,2013-03-05 09:42:00,
2013-03-05 04:43:00,27.1,26.4,28.76,North,351,0.0,0.0,97,0.00,,---,0.00,VWS V14.01,2013-03-05 09:43:00,
2013-03-05 04:44:00,27.1,26.4,28.76,North,3,0.0,0.0,97,0.00,,---,0.00,VWS V14.01,2013-03-05 09:44:00,
2013-03-05 04:45:00,32.2,30.6,28.85,ESE,121,5.8,10.1,94,0.00,,---,0.00,VWS V14.01,2013-03-05 09:45:00,
2013-03-05 04:46:00,27.1,26.4,28.76,NNE,21,0.0,0.0,97,0.00,,---,0.00,VWS V14.01,2013-03-05 09:46:00,
2013-03-05 04:47:00,27.1,26.4,28.76,NNE,18,0.0,0.0,97,0.00,,---,0.00,VWS V14.01,2013-03-05 09:47:00,
2013-03-05 04:48:00,27.0,26.2,28.76,North,3,0.0,0.0,97,0.00,,---,0.00,VWS V14.01,2013-03-05 09:48:00,
2013-03-05 04:49:00,27.0,26.2,28.76,NNW,340,0.0,0.0,97,0.00,,---,0.00,VWS V14.01,2013-03-05 09:49:00,
2013-03-05 04:50:00,32.2,30.6,28.85,East,90,6.7,7.8,94,0.00,,---,0.00,VWS V14.01,2013-03-05 09:50:00,
2013-03-05 04:51:00,27.0,26.2,28.76,North,10,0.0,0.0,97,0.00,,---,0.00,VWS V14.01,2013-03-05 09:51:00,
2013-03-05 04:52:00,27.0,26.2,28.76,NNE,32,0.0,0.0,97,0.00,,---,0.00,VWS V14.01,2013-03-05 09:52:00,
2013-03-05 04:53:00,27.0,26.2,28.76,NNE,18,0.0,0.0,97,0.00,,---,0.00,VWS V14.01,2013-03-05 09:53:00,
2013-03-05 04:54:00,27.0,26.2,28.76,North,4,0.0,0.0,97,0.00,,---,0.00,VWS V14.01,2013-03-05 09:54:00,
2013-03-05 04:55:00,32.2,30.6,28.85,East,80,8.3,8.3,94,0.00,,---,0.00,VWS V14.01,2013-03-05 09:55:00,
2013-03-05 04:56:00,27.1,26.4,28.76,NNE,21,0.0,0.0,97,0.00,,---,0.00,VWS V14.01,2013-03-05 09:56:00,
2013-03-05 04:57:00,27.1,26.4,28.76,NNE,21,0.0,0.0,97,0.00,,---,0.00,VWS V14.01,2013-03-05 09:57:00,
2013-03-05 04:58:00,27.1,26.4,28.76,NNE,15,0.0,0.0,97,0.00,,---,0.00,VWS V14.01,2013-03-05 09:58:00,
2013-03-05 04:59:00,27.1,26.4,28.76,North,351,0.0,0.0,97,0.00,,---,0.00,VWS V14.01,2013-03-05 09:59:00,
2013-03-05 05:00:00,32.2,30.6,28.85,East,100,10.1,10.1,94,0.00,,---,0.00,VWS V14.01,2013-03-05 10:00:00,
2013-03-05 05:02:00,27.0,26.2,28.76,NNE,18,0.0,0.0,97,0.00,,---,0.00,VWS V14.01,2013-03-05 10:02:00,
2013-03-05 05:03:00,27.0,26.2,28.76,NE,40,0.0,0.0,97,0.00,,---,0.00,VWS V14.01,2013-03-05 10:03:00,
2013-03-05 05:04:00,27.0,26.2,28.76,NNE,23,0.0,0.0,97,0.00,,---,0.00,VWS V14.01,2013-03-05 10:04:00,
2013-03-05 05:05:00,32.2,30.6,28.85,SE,125,9.2,9.2,94,0.00,,---,0.00,VWS V14.01,2013-03-05 10:05:00,
2013-03-05 05:06:00,27.0,26.2,28.76,NNW,336,0.0,0.0,97,0.00,,---,0.00,VWS V14.01,2013-03-05 10:06:00,
2013-03-05 05:07:00,27.0,26.2,28.79,NNE,27,0.0,0.0,97,0.00,,---,0.00,VWS V14.01,2013-03-05 10:07:00,
2013-03-05 05:08:00,27.0,26.2,28.79,NW,324,0.0,0.0,97,0.00,,---,0.00,VWS V14.01,2013-03-05 10:08:00,
2013-03-05 05:09:00,26.8,26.0,28.79,West,260,0.0,0.0,97,0.00,,---,0.00,VWS V14.01,2013-03-05 10:09:00,
2013-03-05 05:10:00,32.2,30.6,28.85,East,101,6.7,10.1,94,0.00,,---,0.00,VWS V14.01,2013-03-05 10:10:00,
2013-03-05 05:11:00,27.1,26.4,28.79,NNE,18,0.0,0.0,97,0.00,,---,0.00,VWS V14.01,2013-03-05 10:11:00,
2013-03-05 05:12:00,27.1,26.4,28.79,NNE,31,0.0,0.0,97,0.00,,---,0.00,VWS V14.01,2013-03-05 10:12:00,
2013-03-05 05:13:00,27.1,26.4,28.79,NNW,344,0.0,0.0,97,0.00,,---,0.00,VWS V14.01,2013-03-05 10:13:00,
2013-03-05 05:14:00,27.0,26.2,28.79,NNE,33,0.0,0.0,97,0.00,,---,0.00,VWS V14.01,2013-03-05 10:14:00,
2013-03-05 05:15:00,27.0,26.2,28.79,NNW,336,0.0,0.0,97,0.00,,---,0.00,VWS V14.01,2013-03-05 10:15:00,
2013-03-05 05:16:00,26.8,26.0,28.79,North,356,0.0,0.0,97,0.00,,---,0.00,VWS V14.01,2013-03-05 10:16:00,
2013-03-05 05:17:00,26.8,26.0,28.79,NE,52,0.0,0.0,97,0.00,,---,0.00,VWS V14.01,2013-03-05 10:17:00,
2013-03-05 05:18:00,27.0,26.2,28.79,North,9,0.0,0.0,97,0.00,,---,0.00,VWS V14.01,2013-03-05 10:18:00,
2013-03-05 05:19:00,27.0,26.2,28.79,NNW,331,0.0,0.0,97,0.00,,---,0.00,VWS V14.01,2013-03-05 10:19:00,
2013-03-05 05:20:00,27.1,26.4,28.79,NNE,31,0.0,0.0,97,0.00,,---,0.00,VWS V14.01,2013-03-05 10:20:00,
2013-03-05 05:21:00,27.1,26.4,28.79,NNE,21,0.0,0.0,97,0.00,,---,0.00,VWS V14.01,2013-03-05 10:21:00,
2013-03-05 05:22:00,32.2,30.9,28.85,ESE,110,9.6,9.6,95,0.00,,---,0.00,VWS V14.01,2013-03-05 10:22:00,
2013-03-05 05:23:00,27.0,26.2,28.79,NNE,26,0.0,0.0,97,0.00,,---,0.00,VWS V14.01,2013-03-05 10:23:00,
2013-03-05 05:24:00,27.0,26.2,28.79,NNE,14,0.0,0.0,97,0.00,,---,0.00,VWS V14.01,2013-03-05 10:24:00,
2013-03-05 05:25:00,27.1,26.4,28.79,NNE,21,0.0,0.0,97,0.00,,---,0.00,VWS V14.01,2013-03-05 10:25:00,
2013-03-05 05:26:00,27.0,26.2,28.79,North,351,0.0,0.0,97,0.00,,---,0.00,VWS V14.01,2013-03-05 10:26:00,
2013-03-05 05:27:00,32.2,30.9,28.85,East,86,9.2,9.6,95,0.00,,---,0.00,VWS V14.01,2013-03-05 10:27:00,
2013-03-05 05:28:00,27.1,26.4,28.79,North,351,0.0,0.0,97,0.00,,---,0.00,VWS V14.01,2013-03-05 10:28:00,
2013-03-05 05:29:00,26.8,26.0,28.79,NNE,33,0.0,0.0,97,0.00,,---,0.00,VWS V14.01,2013-03-05 10:29:00,
2013-03-05 05:30:00,27.0,26.0,28.79,NNE,24,0.0,0.0,96,0.00,,---,0.00,VWS V14.01,2013-03-05 10:30:00,
2013-03-05 05:31:00,27.0,26.0,28.79,NNW,329,0.0,0.0,96,0.00,,---,0.00,VWS V14.01,2013-03-05 10:31:00,
2013-03-05 05:32:00,32.2,30.9,28.85,East,93,5.4,6.7,95,0.00,,---,0.00,VWS V14.01,2013-03-05 10:32:00,
2013-03-05 05:33:00,27.1,26.1,28.79,NNE,25,0.0,0.0,96,0.00,,---,0.00,VWS V14.01,2013-03-05 10:33:00,
2013-03-05 05:34:00,27.1,26.1,28.79,NW,308,0.0,0.0,96,0.00,,---,0.00,VWS V14.01,2013-03-05 10:34:00,
2013-03-05 05:35:00,27.0,25.7,28.79,NNE,22,0.0,0.0,95,0.00,,---,0.00,VWS V14.01,2013-03-05 10:35:00,
2013-03-05 05:36:00,27.0,25.7,28.79,NNE,25,0.0,0.0,95,0.00,,---,0.00,VWS V14.01,2013-03-05 10:36:00,
2013-03-05 05:37:00,32.2,30.9,28.85,East,87,4.9,10.5,95,0.00,,---,0.00,VWS V14.01,2013-03-05 10:37:00,
2013-03-05 05:38:00,27.1,25.9,28.79,North,11,0.0,0.0,95,0.00,,---,0.00,VWS V14.01,2013-03-05 10:38:00,
2013-03-05 05:39:00,27.1,25.9,28.79,NNE,14,0.0,0.0,95,0.00,,---,0.00,VWS V14.01,2013-03-05 10:39:00,
2013-03-05 05:40:00,27.1,25.6,28.79,ENE,64,0.0,0.0,94,0.00,,---,0.00,VWS V14.01,2013-03-05 10:40:00,
2013-03-05 05:41:00,27.1,25.6,28.79,North,2,0.0,0.0,94,0.00,,---,0.00,VWS V14.01,2013-03-05 10:41:00,
2013-03-05 05:42:00,27.1,25.6,28.79,NNE,18,0.0,0.0,94,0.00,,---,0.00,VWS V14.01,2013-03-05 10:42:00,
2013-03-05 05:43:00,32.2,30.9,28.85,NE,48,7.4,9.6,95,0.00,,---,0.00,VWS V14.01,2013-03-05 10:43:00,
2013-03-05 05:44:00,27.1,25.6,28.79,NNE,25,0.0,0.0,94,0.00,,---,0.00,VWS V14.01,2013-03-05 10:44:00,
2013-03-05 05:45:00,27.1,25.6,28.79,NNE,27,0.0,0.0,94,0.00,,---,0.00,VWS V14.01,2013-03-05 10:45:00,
2013-03-05 05:46:00,27.0,25.2,28.79,NE,38,0.0,0.0,93,0.00,,---,0.00,VWS V14.01,2013-03-05 10:46:00,
2013-03-05 05:47:00,27.0,25.2,28.79,NNE,24,0.0,0.0,93,0.00,,---,0.00,VWS V14.01,2013-03-05 10:47:00,
2013-03-05 05:48:00,26.8,24.8,28.79,NE,35,0.0,0.0,92,0.00,,---,0.00,VWS V14.01,2013-03-05 10:48:00,
2013-03-05 05:49:00,32.2,30.9,28.85,East,89,8.3,11.2,95,0.00,,---,0.00,VWS V14.01,2013-03-05 10:49:00,
2013-03-05 05:50:00,27.0,25.0,28.79,NNE,31,0.0,0.0,92,0.00,,---,0.00,VWS V14.01,2013-03-05 10:50:00,
2013-03-05 05:51:00,27.0,25.0,28.79,NNW,334,0.0,0.0,92,0.00,,---,0.00,VWS V14.01,2013-03-05 10:51:00,
2013-03-05 05:52:00,27.0,24.7,28.82,NNE,33,0.0,0.0,91,0.00,,---,0.00,VWS V14.01,2013-03-05 10:52:00,
2013-03-05 05:53:00,27.0,24.7,28.82,NNE,24,0.0,0.0,91,0.00,,---,0.00,VWS V14.01,2013-03-05 10:53:00,
2013-03-05 05:54:00,32.2,31.2,28.85,East,82,8.7,8.7,96,0.00,,---,0.00,VWS V14.01,2013-03-05 10:54:00,
2013-03-05 05:55:00,27.0,24.7,28.82,NE,34,0.0,0.0,91,0.00,,---,0.00,VWS V14.01,2013-03-05 10:55:00,
2013-03-05 05:56:00,27.0,24.4,28.82,NNE,24,0.0,0.0,90,0.00,,---,0.00,VWS V14.01,2013-03-05 10:56:00,
2013-03-05 05:57:00,27.1,24.6,28.82,NNE,28,0.0,0.0,90,0.00,,---,0.00,VWS V14.01,2013-03-05 10:57:00,
2013-03-05 05:58:00,27.1,24.6,28.82,NNE,26,0.0,0.0,90,0.00,,---,0.00,VWS V14.01,2013-03-05 10:58:00,
2013-03-05 05:59:00,27.1,24.6,28.82,NNE,18,0.0,0.0,90,0.00,,---,0.00,VWS V14.01,2013-03-05 10:59:00,
2013-03-05 06:00:00,32.2,31.2,28.85,East,85,7.4,11.0,96,0.00,,---,0.00,VWS V14.01,2013-03-05 11:00:00,
2013-03-05 06:01:00,27.1,24.6,28.82,NNE,20,0.0,0.0,90,0.00,,---,0.00,VWS V14.01,2013-03-05 11:01:00,
2013-03-05 06:02:00,27.1,24.6,28.82,North,351,0.0,0.0,90,0.00,,---,0.00,VWS V14.01,2013-03-05 11:02:00,
2013-03-05 06:03:00,27.1,24.6,28.82,NNE,17,0.0,0.0,90,0.00,,---,0.00,VWS V14.01,2013-03-05 11:03:00,
2013-03-05 06:04:00,27.1,24.6,28.82,NNE,15,0.0,0.0,90,0.00,,---,0.00,VWS V14.01,2013-03-05 11:04:00,
2013-03-05 06:05:00,32.0,31.0,28.85,East,88,6.7,8.3,96,0.00,,---,0.00,VWS V14.01,2013-03-05 11:05:00,
2013-03-05 06:06:00,27.1,24.3,28.82,NW,315,0.0,0.0,89,0.00,,---,0.00,VWS V14.01,2013-03-05 11:06:00,
2013-03-05 06:07:00,27.1,24.3,28.82,NNE,23,0.0,0.0,89,0.00,,---,0.00,VWS V14.01,2013-03-05 11:07:00,
2013-03-05 06:08:00,27.0,24.2,28.82,NNE,19,0.0,0.0,89,0.00,,---,0.00,VWS V14.01,2013-03-05 11:08:00,
2013-03-05 06:09:00,27.0,24.2,28.82,NE,35,0.0,0.0,89,0.00,,---,0.00,VWS V14.01,2013-03-05 11:09:00,
2013-03-05 06:10:00,27.0,23.9,28.82,NNE,23,0.0,0.0,88,0.00,,---,0.00,VWS V14.01,2013-03-05 11:10:00,
2013-03-05 06:11:00,32.0,31.0,28.85,East,84,6.7,10.1,96,0.00,,---,0.00,VWS V14.01,2013-03-05 11:11:00,
2013-03-05 06:12:00,27.0,23.9,28.82,NNW,334,0.0,0.0,88,0.00,,---,0.00,VWS V14.01,2013-03-05 11:12:00,
2013-03-05 06:13:00,27.0,23.9,28.82,NE,42,0.0,0.0,88,0.00,,---,0.00,VWS V14.01,2013-03-05 11:13:00,
2013-03-05 06:14:00,27.0,23.9,28.82,North,356,0.0,0.0,88,0.00,,---,0.00,VWS V14.01,2013-03-05 11:14:00,
2013-03-05 06:15:00,27.0,23.6,28.82,NNE,27,0.0,0.0,87,0.00,,---,0.00,VWS V14.01,2013-03-05 11:15:00,
2013-03-05 06:16:00,32.0,31.0,28.85,East,98,5.8,11.0,96,0.00,,---,0.00,VWS V14.01,2013-03-05 11:16:00,
2013-03-05 06:17:00,27.0,23.6,28.82,North,8,0.0,0.0,87,0.00,,---,0.00,VWS V14.01,2013-03-05 11:17:00,
2013-03-05 06:18:00,27.1,23.8,28.82,NNE,13,0.0,0.0,87,0.00,,---,0.00,VWS V14.01,2013-03-05 11:18:00,
2013-03-05 06:19:00,27.0,23.6,28.82,North,8,0.0,0.0,87,0.00,,---,0.00,VWS V14.01,2013-03-05 11:19:00,
2013-03-05 06:20:00,27.1,23.8,28.82,NNE,19,0.0,0.0,87,0.00,,---,0.00,VWS V14.01,2013-03-05 11:20:00,
2013-03-05 06:21:00,32.0,31.0,28.85,ENE,72,4.9,12.5,96,0.00,,---,0.00,VWS V14.01,2013-03-05 11:21:00,
2013-03-05 06:22:00,27.1,23.8,28.82,NNE,28,0.0,0.0,87,0.00,,---,0.00,VWS V14.01,2013-03-05 11:22:00,
2013-03-05 06:23:00,27.0,23.3,28.82,NNE,15,0.0,0.0,86,0.00,,---,0.00,VWS V14.01,2013-03-05 11:23:00,
2013-03-05 06:24:00,27.0,23.3,28.82,NNE,29,0.0,0.0,86,0.00,,---,0.00,VWS V14.01,2013-03-05 11:24:00,
2013-03-05 06:25:00,27.0,23.3,28.82,NNE,22,0.0,0.0,86,0.00,,---,0.00,VWS V14.01,2013-03-05 11:25:00,
2013-03-05 06:26:00,27.0,23.3,28.82,NNE,16,0.0,0.0,86,0.00,,---,0.00,VWS V14.01,2013-03-05 11:26:00,
2013-03-05 06:27:00,27.1,23.5,28.82,North,5,0.0,0.0,86,0.00,,---,0.00,VWS V14.01,2013-03-05 11:27:00,
2013-03-05 06:28:00,27.1,23.5,28.82,NNE,17,0.0,0.0,86,0.00,,---,0.00,VWS V14.01,2013-03-05 11:28:00,
2013-03-05 06:29:00,32.0,31.0,28.85,ESE,108,8.7,11.2,96,0.00,,---,0.00,VWS V14.01,2013-03-05 11:29:00,
2013-03-05 06:30:00,27.1,23.5,28.82,NNE,19,0.0,0.0,86,0.00,,---,0.00,VWS V14.01,2013-03-05 11:30:00,
2013-03-05 06:31:00,27.1,23.5,28.82,North,10,0.0,0.0,86,0.00,,---,0.00,VWS V14.01,2013-03-05 11:31:00,
2013-03-05 06:32:00,27.1,23.5,28.82,NNE,24,0.0,0.0,86,0.00,,---,0.00,VWS V14.01,2013-03-05 11:32:00,
2013-03-05 06:33:00,27.1,23.5,28.82,NNW,333,0.0,0.0,86,0.00,,---,0.00,VWS V14.01,2013-03-05 11:33:00,
2013-03-05 06:34:00,32.0,31.0,28.85,ESE,112,11.0,12.1,96,0.00,,---,0.00,VWS V14.01,2013-03-05 11:34:00,
2013-03-05 06:35:00,27.0,23.1,28.82,NE,36,0.0,0.0,85,0.00,,---,0.00,VWS V14.01,2013-03-05 11:35:00,
2013-03-05 06:36:00,27.0,23.1,28.82,North,351,0.0,0.0,85,0.00,,---,0.00,VWS V14.01,2013-03-05 11:36:00,
2013-03-05 06:37:00,26.8,22.9,28.85,North,7,0.0,0.0,85,0.00,,---,0.00,VWS V14.01,2013-03-05 11:37:00,
2013-03-05 06:38:00,27.0,22.8,28.85,NNE,23,0.0,0.0,84,0.00,,---,0.00,VWS V14.01,2013-03-05 11:38:00,
2013-03-05 06:39:00,32.0,31.0,28.85,East,96,12.1,13.4,96,0.00,,---,0.00,VWS V14.01,2013-03-05 11:39:00,
2013-03-05 06:40:00,27.0,22.5,28.85,NNE,17,0.0,0.0,83,0.00,,---,0.00,VWS V14.01,2013-03-05 11:40:00,
2013-03-05 06:41:00,27.0,22.5,28.85,NNE,15,0.0,0.0,83,0.00,,---,0.00,VWS V14.01,2013-03-05 11:41:00,
2013-03-05 06:42:00,27.0,22.5,28.85,North,351,0.0,0.0,83,0.00,,---,0.00,VWS V14.01,2013-03-05 11:42:00,
2013-03-05 06:44:00,32.0,31.0,28.85,ENE,77,7.8,10.1,96,0.00,,---,0.00,VWS V14.01,2013-03-05 11:44:00,
2013-03-05 06:48:00,26.8,22.0,28.85,North,6,0.0,0.0,82,0.00,,---,0.00,VWS V14.01,2013-03-05 11:48:00,
2013-03-05 06:49:00,26.8,22.0,28.85,NW,324,0.0,0.0,82,0.00,,---,0.00,VWS V14.01,2013-03-05 11:49:00,
2013-03-05 06:50:00,32.0,31.2,28.85,East,80,7.4,8.7,97,0.00,,---,0.00,VWS V14.01,2013-03-05 11:50:00,
2013-03-05 06:51:00,26.8,21.7,28.85,NNW,331,0.0,0.0,81,0.00,,---,0.00,VWS V14.01,2013-03-05 11:51:00,
2013-03-05 06:52:00,26.8,21.7,28.85,NNW,331,0.0,0.0,81,0.00,,---,0.00,VWS V14.01,2013-03-05 11:52:00,
2013-03-05 06:53:00,26.8,21.7,28.85,NNW,330,0.0,0.0,81,0.00,,---,0.00,VWS V14.01,2013-03-05 11:53:00,
2013-03-05 06:54:00,26.8,21.7,28.85,NNW,338,0.0,0.0,81,0.00,,---,0.00,VWS V14.01,2013-03-05 11:54:00,
2013-03-05 06:55:00,32.0,31.2,28.85,East,90,6.7,10.1,97,0.00,,---,0.00,VWS V14.01,2013-03-05 11:55:00,
2013-03-05 06:56:00,26.6,21.6,28.85,NNW,347,0.0,0.0,81,0.00,,---,0.00,VWS V14.01,2013-03-05 11:56:00,
2013-03-05 06:57:00,26.6,21.6,28.85,North,351,0.0,0.0,81,0.00,,---,0.00,VWS V14.01,2013-03-05 11:57:00,
2013-03-05 06:58:00,26.6,21.6,28.85,NW,324,0.0,0.0,81,0.00,,---,0.00,VWS V14.01,2013-03-05 11:58:00,
2013-03-05 06:59:00,26.6,21.6,28.85,North,356,0.0,0.0,81,0.00,,---,0.00,VWS V14.01,2013-03-05 11:59:00,
2013-03-05 07:00:00,32.0,31.2,28.85,ESE,103,5.8,11.6,97,0.00,,---,0.00,VWS V14.01,2013-03-05 12:00:00,
2013-03-05 07:01:00,26.6,21.6,28.85,NNW,336,0.0,0.0,81,0.00,,---,0.00,VWS V14.01,2013-03-05 12:01:00,
2013-03-05 07:02:00,26.6,21.3,28.85,NNE,30,0.0,0.0,80,0.00,,---,0.00,VWS V14.01,2013-03-05 12:02:00,
2013-03-05 07:03:00,26.6,21.3,28.85,NW,318,0.0,0.0,80,0.00,,---,0.00,VWS V14.01,2013-03-05 12:03:00,
2013-03-05 07:04:00,26.6,21.3,28.85,NNW,334,0.0,0.0,80,0.00,,---,0.00,VWS V14.01,2013-03-05 12:04:00,
2013-03-05 07:05:00,32.2,31.4,28.85,East,80,8.3,9.2,97,0.00,,---,0.00,VWS V14.01,2013-03-05 12:05:00,
2013-03-05 07:06:00,26.6,21.3,28.85,NNW,346,0.0,0.0,80,0.00,,---,0.00,VWS V14.01,2013-03-05 12:06:00,
2013-03-05 07:07:00,26.6,21.3,28.88,NW,318,0.0,0.0,80,0.00,,---,0.00,VWS V14.01,2013-03-05 12:07:00,
2013-03-05 07:08:00,26.6,21.3,28.88,NW,323,0.0,0.0,80,0.00,,---,0.00,VWS V14.01,2013-03-05 12:08:00,
2013-03-05 07:09:00,26.6,21.3,28.88,NW,318,0.0,0.0,80,0.00,,---,0.00,VWS V14.01,2013-03-05 12:09:00,
2013-03-05 07:10:00,26.6,21.3,28.88,NNW,338,0.0,0.0,80,0.00,,---,0.00,VWS V14.01,2013-03-05 12:10:00,
2013-03-05 07:11:00,26.6,21.3,28.88,WNW,299,0.0,0.0,80,0.00,,---,0.00,VWS V14.01,2013-03-05 12:11:00,
2013-03-05 07:12:00,32.2,31.4,28.85,ESE,102,6.7,8.7,97,0.00,,---,0.00,VWS V14.01,2013-03-05 12:12:00,
2013-03-05 07:13:00,26.8,21.5,28.88,NNW,329,0.0,0.0,80,0.00,,---,0.00,VWS V14.01,2013-03-05 12:13:00,
2013-03-05 07:14:00,26.8,21.5,28.88,North,351,0.0,0.0,80,0.00,,---,0.00,VWS V14.01,2013-03-05 12:14:00,
2013-03-05 07:15:00,26.8,21.5,28.88,NNE,28,0.0,0.0,80,0.00,,---,0.00,VWS V14.01,2013-03-05 12:15:00,
2013-03-05 07:16:00,26.8,21.5,28.88,North,3,0.0,0.0,80,0.00,,---,0.00,VWS V14.01,2013-03-05 12:16:00,
2013-03-05 07:17:00,26.8,21.5,28.88,NNW,329,0.0,0.0,80,0.00,,---,0.00,VWS V14.01,2013-03-05 12:17:00,
2013-03-05 07:18:00,32.2,31.4,28.85,East,89,5.8,9.2,97,0.00,,---,0.00,VWS V14.01,2013-03-05 12:18:00,
2013-03-05 07:19:00,26.8,21.5,28.88,NNE,33,0.0,0.0,80,0.00,,---,0.00,VWS V14.01,2013-03-05 12:19:00,
2013-03-05 07:20:00,26.8,21.5,28.88,North,8,0.0,0.0,80,0.00,,---,0.00,VWS V14.01,2013-03-05 12:20:00,
2013-03-05 07:21:00,26.8,21.5,28.88,NNW,342,0.0,0.0,80,0.00,,---,0.00,VWS V14.01,2013-03-05 12:21:00,
2013-03-05 07:22:00,27.0,21.6,28.88,NNE,23,0.0,0.0,80,0.00,,---,0.00,VWS V14.01,2013-03-05 12:22:00,
2013-03-05 07:23:00,32.2,31.4,28.85,East,101,8.3,9.2,97,0.00,,---,0.00,VWS V14.01,2013-03-05 12:23:00,
2013-03-05 07:24:00,27.0,21.9,28.88,NNW,339,0.0,0.0,81,0.00,,---,0.00,VWS V14.01,2013-03-05 12:24:00,
2013-03-05 07:25:00,27.0,21.9,28.88,NNE,28,0.0,0.0,81,0.00,,---,0.00,VWS V14.01,2013-03-05 12:25:00,
2013-03-05 07:26:00,27.0,21.9,28.88,NNE,22,0.0,0.0,81,0.00,,---,0.00,VWS V14.01,2013-03-05 12:26:00,
2013-03-05 07:27:00,27.0,21.9,28.88,NNE,13,0.0,0.0,81,0.00,,---,0.00,VWS V14.01,2013-03-05 12:27:00,
2013-03-05 07:28:00,32.2,31.4,28.85,ESE,103,7.8,8.7,97,0.00,,---,0.00,VWS V14.01,2013-03-05 12:28:00,
2013-03-05 07:29:00,27.0,21.9,28.88,NNE,31,0.0,0.0,81,0.00,,---,0.00,VWS V14.01,2013-03-05 12:29:00,
2013-03-05 07:30:00,27.0,21.9,28.88,North,6,0.0,0.0,81,0.00,,---,0.00,VWS V14.01,2013-03-05 12:30:00,
2013-03-05 07:31:00,27.0,21.9,28.88,North,351,0.0,0.0,81,0.00,,---,0.00,VWS V14.01,2013-03-05 12:31:00,
2013-03-05 07:32:00,27.0,21.9,28.88,NNE,31,0.0,0.0,81,0.00,,---,0.00,VWS V14.01,2013-03-05 12:32:00,
2013-03-05 07:33:00,32.2,31.4,28.85,ESE,111,8.3,8.3,97,0.00,,---,0.00,VWS V14.01,2013-03-05 12:33:00,
2013-03-05 07:34:00,27.1,22.1,28.88,NE,35,0.0,0.0,81,0.00,,---,0.00,VWS V14.01,2013-03-05 12:34:00,
2013-03-05 07:35:00,27.1,22.1,28.88,NNE,13,0.0,0.0,81,0.00,,---,0.00,VWS V14.01,2013-03-05 12:35:00,
2013-03-05 07:36:00,27.1,22.1,28.88,North,351,0.0,0.0,81,0.00,,---,0.00,VWS V14.01,2013-03-05 12:36:00,
2013-03-05 07:37:00,27.1,22.1,28.88,NNE,13,0.0,0.0,81,0.00,,---,0.00,VWS V14.01,2013-03-05 12:37:00,
2013-03-05 07:38:00,27.1,22.1,28.88,North,351,0.0,0.0,81,0.00,,---,0.00,VWS V14.01,2013-03-05 12:38:00,
2013-03-05 07:39:00,32.2,31.4,28.85,East,90,7.8,11.2,97,0.00,,---,0.00,VWS V14.01,2013-03-05 12:39:00,
2013-03-05 07:40:00,27.1,22.1,28.88,NNW,329,0.0,0.0,81,0.00,,---,0.00,VWS V14.01,2013-03-05 12:40:00,
2013-03-05 07:41:00,27.1,22.1,28.88,NNW,331,0.0,0.0,81,0.00,,---,0.00,VWS V14.01,2013-03-05 12:41:00,
2013-03-05 07:42:00,27.1,22.1,28.88,North,351,0.0,0.0,81,0.00,,---,0.00,VWS V14.01,2013-03-05 12:42:00,
2013-03-05 07:43:00,27.1,22.1,28.88,NNE,30,0.0,0.0,81,0.00,,---,0.00,VWS V14.01,2013-03-05 12:43:00,
2013-03-05 07:44:00,27.1,22.1,28.88,NNE,20,0.0,0.0,81,0.00,,---,0.00,VWS V14.01,2013-03-05 12:44:00,
2013-03-05 07:45:00,32.2,31.4,28.85,ESE,110,7.4,8.7,97,0.00,,---,0.00,VWS V14.01,2013-03-05 12:45:00,
2013-03-05 07:46:00,27.1,22.1,28.88,NNW,339,0.0,0.0,81,0.00,,---,0.00,VWS V14.01,2013-03-05 12:46:00,
2013-03-05 07:47:00,27.1,22.1,28.88,NNE,17,0.0,0.0,81,0.00,,---,0.00,VWS V14.01,2013-03-05 12:47:00,
2013-03-05 07:48:00,27.1,22.1,28.88,North,356,0.0,0.0,81,0.00,,---,0.00,VWS V14.01,2013-03-05 12:48:00,
2013-03-05 07:49:00,27.1,22.1,28.88,North,4,0.0,0.0,81,0.00,,---,0.00,VWS V14.01,2013-03-05 12:49:00,
2013-03-05 07:50:00,27.1,22.1,28.88,NNE,21,0.0,0.0,81,0.00,,---,0.00,VWS V14.01,2013-03-05 12:50:00,
2013-03-05 07:51:00,27.1,22.1,28.88,North,9,0.0,0.0,81,0.00,,---,0.00,VWS V14.01,2013-03-05 12:51:00,
2013-03-05 07:52:00,27.1,22.1,28.91,North,5,0.0,0.0,81,0.00,,---,0.00,VWS V14.01,2013-03-05 12:52:00,
2013-03-05 07:53:00,27.3,22.3,28.91,NNE,13,0.0,0.0,81,0.00,,---,0.00,VWS V14.01,2013-03-05 12:53:00,
2013-03-05 07:54:00,27.3,22.3,28.91,NW,309,0.0,0.0,81,0.00,,---,0.00,VWS V14.01,2013-03-05 12:54:00,
2013-03-05 07:55:00,32.2,31.2,28.85,ESE,109,5.8,7.8,96,0.00,,---,0.00,VWS V14.01,2013-03-05 12:55:00,
2013-03-05 07:56:00,27.3,22.3,28.91,NNE,24,0.0,0.0,81,0.00,,---,0.00,VWS V14.01,2013-03-05 12:56:00,
2013-03-05 07:57:00,27.3,22.3,28.91,NNW,336,0.0,0.0,81,0.00,,---,0.00,VWS V14.01,2013-03-05 12:57:00,
2013-03-05 07:58:00,27.3,22.3,28.91,North,351,0.0,0.0,81,0.00,,---,0.00,VWS V14.01,2013-03-05 12:58:00,
2013-03-05 07:59:00,27.3,22.3,28.91,NE,39,0.0,0.0,81,0.00,,---,0.00,VWS V14.01,2013-03-05 12:59:00,
2013-03-05 08:00:00,27.3,22.3,28.91,NNE,12,0.0,0.0,81,0.00,,---,0.00,VWS V14.01,2013-03-05 13:00:00,
2013-03-05 08:01:00,32.2,31.2,28.85,ESE,111,7.4,11.0,96,0.00,,---,0.00,VWS V14.01,2013-03-05 13:01:00,
2013-03-05 08:02:00,27.3,22.3,28.91,NNE,17,0.0,0.0,81,0.00,,---,0.00,VWS V14.01,2013-03-05 13:02:00,
2013-03-05 08:03:00,27.3,22.3,28.91,North,0,0.0,0.0,81,0.00,,---,0.00,VWS V14.01,2013-03-05 13:03:00,
2013-03-05 08:04:00,27.3,22.3,28.91,North,351,0.0,0.0,81,0.00,,---,0.00,VWS V14.01,2013-03-05 13:04:00,
2013-03-05 08:05:00,27.3,22.3,28.91,NNW,346,0.0,0.0,81,0.00,,---,0.00,VWS V14.01,2013-03-05 13:05:00,
2013-03-05 08:06:00,27.3,22.3,28.91,NNE,13,0.0,0.0,81,0.00,,---,0.00,VWS V14.01,2013-03-05 13:06:00,
2013-03-05 08:07:00,27.3,22.3,28.91,NNE,22,0.0,0.0,81,0.00,,---,0.00,VWS V14.01,2013-03-05 13:07:00,
2013-03-05 08:08:00,27.3,22.3,28.91,North,7,0.0,0.0,81,0.00,,---,0.00,VWS V14.01,2013-03-05 13:08:00,
2013-03-05 08:09:00,32.4,31.4,28.85,ESE,111,11.2,11.2,96,0.00,,---,0.00,VWS V14.01,2013-03-05 13:09:00,
2013-03-05 08:10:00,27.5,22.5,28.91,North,0,0.0,0.0,81,0.00,,---,0.00,VWS V14.01,2013-03-05 13:10:00,
2013-03-05 08:11:00,27.5,22.5,28.91,NNW,342,0.0,0.0,81,0.00,,---,0.00,VWS V14.01,2013-03-05 13:11:00,
2013-03-05 08:12:00,27.5,22.5,28.91,NNE,18,0.0,0.0,81,0.00,,---,0.00,VWS V14.01,2013-03-05 13:12:00,
2013-03-05 08:13:00,27.5,22.5,28.91,North,356,0.0,0.0,81,0.00,,---,0.00,VWS V14.01,2013-03-05 13:13:00,
2013-03-05 08:14:00,27.5,22.5,28.91,NNW,341,0.0,0.0,81,0.00,,---,0.00,VWS V14.01,2013-03-05 13:14:00,
2013-03-05 08:15:00,32.4,31.1,28.85,ESE,123,7.8,13.0,95,0.00,,---,0.00,VWS V14.01,2013-03-05 13:15:00,
2013-03-05 08:16:00,27.5,22.1,28.91,NNW,333,0.0,0.0,80,0.00,,---,0.00,VWS V14.01,2013-03-05 13:16:00,
2013-03-05 08:17:00,27.5,22.1,28.91,NW,326,0.0,0.0,80,0.00,,---,0.00,VWS V14.01,2013-03-05 13:17:00,
2013-03-05 08:18:00,27.5,22.1,28.91,NNW,332,0.0,0.0,80,0.00,,---,0.00,VWS V14.01,2013-03-05 13:18:00,
2013-03-05 08:19:00,27.5,22.1,28.91,NNW,327,0.0,0.0,80,0.00,,---,0.00,VWS V14.01,2013-03-05 13:19:00,
2013-03-05 08:20:00,27.7,22.3,28.91,NNE,28,0.0,0.0,80,0.00,,---,0.00,VWS V14.01,2013-03-05 13:20:00,
2013-03-05 08:21:00,32.5,31.3,28.85,ESE,110,7.4,9.6,95,0.00,,---,0.00,VWS V14.01,2013-03-05 13:21:00,
2013-03-05 08:22:00,27.7,22.3,28.91,North,0,0.0,0.0,80,0.00,,---,0.00,VWS V14.01,2013-03-05 13:22:00,
2013-03-05 08:23:00,27.7,22.3,28.91,North,3,0.0,0.0,80,0.00,,---,0.00,VWS V14.01,2013-03-05 13:23:00,
2013-03-05 08:24:00,27.7,22.3,28.91,North,351,0.0,0.0,80,0.00,,---,0.00,VWS V14.01,2013-03-05 13:24:00,
2013-03-05 08:25:00,27.7,22.3,28.91,NNE,14,0.0,0.0,80,0.00,,---,0.00,VWS V14.01,2013-03-05 13:25:00,
2013-03-05 08:26:00,27.7,22.3,28.91,NNE,28,0.0,0.0,80,0.00,,---,0.00,VWS V14.01,2013-03-05 13:26:00,
2013-03-05 08:27:00,32.5,31.0,28.85,East,101,6.3,10.5,94,0.00,,---,0.00,VWS V14.01,2013-03-05 13:27:00,
2013-03-05 08:28:00,27.7,22.3,28.91,NNE,29,0.0,0.0,80,0.00,,---,0.00,VWS V14.01,2013-03-05 13:28:00,
2013-03-05 08:29:00,27.7,22.3,28.91,North,351,0.0,0.0,80,0.00,,---,0.00,VWS V14.01,2013-03-05 13:29:00,
2013-03-05 08:30:00,27.9,22.5,28.91,NNE,16,0.0,0.0,80,0.00,,---,0.00,VWS V14.01,2013-03-05 13:30:00,
2013-03-05 08:31:00,27.9,22.5,28.91,NNW,330,0.0,0.0,80,0.00,,---,0.00,VWS V14.01,2013-03-05 13:31:00,
2013-03-05 08:32:00,27.9,22.5,28.91,NNE,17,0.0,0.0,80,0.00,,---,0.00,VWS V14.01,2013-03-05 13:32:00,
2013-03-05 08:33:00,32.7,30.9,28.82,East,84,10.1,10.1,93,0.00,,---,0.00,VWS V14.01,2013-03-05 13:33:00,
2013-03-05 08:34:00,27.9,22.5,28.91,NNW,338,0.0,0.0,80,0.00,,---,0.00,VWS V14.01,2013-03-05 13:34:00,
2013-03-05 08:35:00,27.9,22.5,28.91,NNE,14,0.0,0.0,80,0.00,,---,0.00,VWS V14.01,2013-03-05 13:35:00,
2013-03-05 08:36:00,27.9,22.5,28.91,NNW,331,0.0,0.0,80,0.00,,---,0.00,VWS V14.01,2013-03-05 13:36:00,
2013-03-05 08:37:00,27.9,22.5,28.94,ENE,58,0.0,0.0,80,0.00,,---,0.00,VWS V14.01,2013-03-05 13:37:00,
2013-03-05 08:38:00,27.9,22.5,28.94,NNE,28,0.0,0.0,80,0.00,,---,0.00,VWS V14.01,2013-03-05 13:38:00,
2013-03-05 08:39:00,27.9,22.5,28.94,NNE,29,0.0,0.0,80,0.00,,---,0.00,VWS V14.01,2013-03-05 13:39:00,
2013-03-05 08:40:00,27.9,22.5,28.94,NW,305,0.0,0.0,80,0.00,,---,0.00,VWS V14.01,2013-03-05 13:40:00,
2013-03-05 08:41:00,27.9,22.5,28.94,North,2,0.0,0.0,80,0.00,,---,0.00,VWS V14.01,2013-03-05 13:41:00,
2013-03-05 08:42:00,28.0,22.7,28.94,North,351,0.0,0.0,80,0.00,,---,0.00,VWS V14.01,2013-03-05 13:42:00,
2013-03-05 08:43:00,28.0,22.7,28.94,NNE,31,0.0,0.0,80,0.00,,---,0.00,VWS V14.01,2013-03-05 13:43:00,
2013-03-05 08:44:00,28.0,22.7,28.94,North,3,0.0,0.0,80,0.00,,---,0.00,VWS V14.01,2013-03-05 13:44:00,
2013-03-05 08:45:00,28.0,22.7,28.94,North,7,0.0,0.0,80,0.00,,---,0.00,VWS V14.01,2013-03-05 13:45:00,
2013-03-05 08:46:00,28.0,22.7,28.94,NNW,339,0.0,0.0,80,0.00,,---,0.00,VWS V14.01,2013-03-05 13:46:00,
2013-03-05 08:47:00,28.0,22.4,28.94,North,351,0.0,0.0,79,0.00,,---,0.00,VWS V14.01,2013-03-05 13:47:00,
2013-03-05 08:48:00,28.0,22.4,28.94,NNE,27,0.0,0.0,79,0.00,,---,0.00,VWS V14.01,2013-03-05 13:48:00,
2013-03-05 08:49:00,28.0,22.4,28.94,NNE,25,0.0,0.0,79,0.00,,---,0.00,VWS V14.01,2013-03-05 13:49:00,
2013-03-05 08:50:00,28.0,22.4,28.94,NNE,25,0.0,0.0,79,0.00,,---,0.00,VWS V14.01,2013-03-05 13:50:00,
2013-03-05 08:51:00,28.0,22.4,28.94,North,351,0.0,0.0,79,0.00,,---,0.00,VWS V14.01,2013-03-05 13:51:00,
2013-03-05 08:52:00,28.0,22.4,28.94,North,351,0.0,0.0,79,0.00,,---,0.00,VWS V14.01,2013-03-05 13:52:00,
2013-03-05 08:53:00,28.0,22.4,28.94,North,351,0.0,0.0,79,0.00,,---,0.00,VWS V14.01,2013-03-05 13:53:00,
2013-03-05 08:54:00,28.0,22.4,28.94,North,351,0.0,0.0,79,0.00,,---,0.00,VWS V14.01,2013-03-05 13:54:00,
2013-03-05 08:55:00,28.0,22.4,28.94,NNE,13,0.0,0.0,79,0.00,,---,0.00,VWS V14.01,2013-03-05 13:55:00,
2013-03-05 08:56:00,28.0,22.4,28.94,North,351,0.0,0.0,79,0.00,,---,0.00,VWS V14.01,2013-03-05 13:56:00,
2013-03-05 08:57:00,28.0,22.4,28.94,NNW,334,0.0,0.0,79,0.00,,---,0.00,VWS V14.01,2013-03-05 13:57:00,
2013-03-05 08:58:00,28.0,22.4,28.94,NNE,13,0.0,0.0,79,0.00,,---,0.00,VWS V14.01,2013-03-05 13:58:00,
2013-03-05 08:59:00,28.2,22.6,28.94,NNE,14,0.0,0.0,79,0.00,,---,0.00,VWS V14.01,2013-03-05 13:59:00,
2013-03-05 09:00:00,28.2,22.6,28.94,NE,39,0.0,0.0,79,0.00,,---,0.00,VWS V14.01,2013-03-05 14:00:00,
2013-03-05 09:01:00,28.2,22.6,28.94,North,351,0.0,0.0,79,0.00,,---,0.00,VWS V14.01,2013-03-05 14:01:00,
2013-03-05 09:02:00,28.2,22.6,28.94,North,7,0.0,0.0,79,0.00,,---,0.00,VWS V14.01,2013-03-05 14:02:00,
2013-03-05 09:03:00,28.2,22.6,28.94,NNW,328,0.0,0.0,79,0.00,,---,0.00,VWS V14.01,2013-03-05 14:03:00,
2013-03-05 09:04:00,28.2,22.6,28.94,NNE,15,0.0,0.0,79,0.00,,---,0.00,VWS V14.01,2013-03-05 14:04:00,
2013-03-05 09:05:00,28.2,22.6,28.94,North,351,0.0,0.0,79,0.00,,---,0.00,VWS V14.01,2013-03-05 14:05:00,
2013-03-05 09:06:00,28.2,22.6,28.94,NNW,334,0.0,0.0,79,0.00,,---,0.00,VWS V14.01,2013-03-05 14:06:00,
2013-03-05 09:07:00,28.2,22.6,28.97,North,2,0.0,0.0,79,0.00,,---,0.00,VWS V14.01,2013-03-05 14:07:00,
2013-03-05 09:08:00,28.2,22.6,28.97,North,10,0.0,0.0,79,0.00,,---,0.00,VWS V14.01,2013-03-05 14:08:00,
2013-03-05 09:09:00,28.2,22.6,28.97,North,351,0.0,0.0,79,0.00,,---,0.00,VWS V14.01,2013-03-05 14:09:00,
2013-03-05 09:10:00,28.2,22.6,28.97,NNE,21,0.0,0.0,79,0.00,,---,0.00,VWS V14.01,2013-03-05 14:10:00,
2013-03-05 09:11:00,28.2,22.6,28.97,NNE,13,0.0,0.0,79,0.00,,---,0.00,VWS V14.01,2013-03-05 14:11:00,
2013-03-05 09:12:00,28.2,22.6,28.97,NNW,338,0.0,0.0,79,0.00,,---,0.00,VWS V14.01,2013-03-05 14:12:00,
2013-03-05 09:13:00,28.2,22.6,28.97,NW,310,0.0,0.0,79,0.00,,---,0.00,VWS V14.01,2013-03-05 14:13:00,
2013-03-05 09:14:00,28.2,22.6,28.97,North,0,0.0,0.0,79,0.00,,---,0.00,VWS V14.01,2013-03-05 14:14:00,
2013-03-05 09:15:00,28.2,22.6,28.97,NE,43,0.0,0.0,79,0.00,,---,0.00,VWS V14.01,2013-03-05 14:15:00,
2013-03-05 09:16:00,28.2,22.6,28.97,NNW,343,0.0,0.0,79,0.00,,---,0.00,VWS V14.01,2013-03-05 14:16:00,
2013-03-05 09:17:00,28.2,22.6,28.97,NNE,15,0.0,0.0,79,0.00,,---,0.00,VWS V14.01,2013-03-05 14:17:00,
2013-03-05 09:18:00,28.4,22.7,28.97,North,351,0.0,0.0,79,0.00,,---,0.00,VWS V14.01,2013-03-05 14:18:00,
2013-03-05 09:19:00,28.4,22.7,28.97,NNW,343,0.0,0.0,79,0.00,,---,0.00,VWS V14.01,2013-03-05 14:19:00,
2013-03-05 09:20:00,28.4,22.7,28.97,North,351,0.0,0.0,79,0.00,,---,0.00,VWS V14.01,2013-03-05 14:20:00,
2013-03-05 09:21:00,28.4,22.4,28.97,NNW,339,0.0,0.0,78,0.00,,---,0.00,VWS V14.01,2013-03-05 14:21:00,
2013-03-05 09:22:00,28.4,22.4,28.97,North,351,0.0,0.0,78,0.00,,---,0.00,VWS V14.01,2013-03-05 14:22:00,
2013-03-05 09:23:00,28.4,22.4,28.97,NW,307,0.0,0.0,78,0.00,,---,0.00,VWS V14.01,2013-03-05 14:23:00,
2013-03-05 09:24:00,28.4,22.4,28.97,North,351,0.0,0.0,78,0.00,,---,0.00,VWS V14.01,2013-03-05 14:24:00,
2013-03-05 09:25:00,28.6,22.9,28.97,NNE,13,0.0,0.0,79,0.00,,---,0.00,VWS V14.01,2013-03-05 14:25:00,
2013-03-05 09:26:00,28.6,22.9,28.97,NNE,14,0.0,0.0,79,0.00,,---,0.00,VWS V14.01,2013-03-05 14:26:00,
2013-03-05 09:27:00,28.6,22.6,28.97,NNW,347,0.0,0.0,78,0.00,,---,0.00,VWS V14.01,2013-03-05 14:27:00,
2013-03-05 09:28:00,28.6,22.6,28.97,NNE,19,0.0,0.0,78,0.00,,---,0.00,VWS V14.01,2013-03-05 14:28:00,
2013-03-05 09:29:00,28.8,22.8,28.97,North,356,0.0,0.0,78,0.00,,---,0.00,VWS V14.01,2013-03-05 14:29:00,
2013-03-05 09:30:00,28.8,22.8,28.97,NW,317,0.0,0.0,78,0.00,,---,0.00,VWS V14.01,2013-03-05 14:30:00,
2013-03-05 09:31:00,28.6,22.6,28.97,NNE,29,0.0,0.0,78,0.00,,---,0.00,VWS V14.01,2013-03-05 14:31:00,
2013-03-05 09:32:00,28.6,22.6,28.97,NNE,13,0.0,0.0,78,0.00,,---,0.00,VWS V14.01,2013-03-05 14:32:00,
2013-03-05 09:33:00,28.8,22.8,28.97,NE,39,0.0,0.0,78,0.00,,---,0.00,VWS V14.01,2013-03-05 14:33:00,
2013-03-05 09:34:00,28.8,22.8,28.97,NNW,334,0.0,0.0,78,0.00,,---,0.00,VWS V14.01,2013-03-05 14:34:00,
2013-03-05 09:35:00,28.8,22.8,28.97,NNE,21,0.0,0.0,78,0.00,,---,0.00,VWS V14.01,2013-03-05 14:35:00,
2013-03-05 09:36:00,28.8,22.8,28.97,NNW,333,0.0,0.0,78,0.00,,---,0.00,VWS V14.01,2013-03-05 14:36:00,
2013-03-05 09:37:00,28.8,22.8,29.00,NNE,31,0.0,0.0,78,0.00,,---,0.00,VWS V14.01,2013-03-05 14:37:00,
2013-03-05 09:38:00,28.8,22.8,29.00,NNE,28,0.0,0.0,78,0.00,,---,0.00,VWS V14.01,2013-03-05 14:38:00,
2013-03-05 09:39:00,28.9,23.0,29.00,NNE,22,0.0,0.0,78,0.00,,---,0.00,VWS V14.01,2013-03-05 14:39:00,
2013-03-05 09:40:00,28.9,23.0,29.00,NNE,20,0.0,0.0,78,0.00,,---,0.00,VWS V14.01,2013-03-05 14:40:00,
2013-03-05 09:41:00,28.9,23.0,29.00,North,0,0.0,0.0,78,0.00,,---,0.00,VWS V14.01,2013-03-05 14:41:00,
2013-03-05 09:42:00,28.9,23.0,29.00,NNW,329,0.0,0.0,78,0.00,,---,0.00,VWS V14.01,2013-03-05 14:42:00,
2013-03-05 09:43:00,28.9,23.0,29.00,North,351,0.0,0.0,78,0.00,,---,0.00,VWS V14.01,2013-03-05 14:43:00,
2013-03-05 09:44:00,28.9,23.0,29.00,NNE,27,0.0,0.0,78,0.00,,---,0.00,VWS V14.01,2013-03-05 14:44:00,
2013-03-05 09:45:00,29.1,23.1,29.00,NNE,16,0.0,0.0,78,0.00,,---,0.00,VWS V14.01,2013-03-05 14:45:00,
2013-03-05 09:46:00,29.3,23.3,29.00,NNW,347,0.0,0.0,78,0.00,,---,0.00,VWS V14.01,2013-03-05 14:46:00,
2013-03-05 09:47:00,29.3,23.3,29.00,NNE,19,0.0,0.0,78,0.00,,---,0.00,VWS V14.01,2013-03-05 14:47:00,
2013-03-05 09:48:00,29.3,23.3,29.00,NNW,340,0.0,0.0,78,0.00,,---,0.00,VWS V14.01,2013-03-05 14:48:00,
2013-03-05 09:49:00,29.3,23.3,29.00,NNE,17,0.0,0.0,78,0.00,,---,0.00,VWS V14.01,2013-03-05 14:49:00,
2013-03-05 09:50:00,29.3,23.3,29.00,NNE,18,0.0,0.0,78,0.00,,---,0.00,VWS V14.01,2013-03-05 14:50:00,
2013-03-05 09:51:00,29.5,23.2,29.00,North,356,0.0,0.0,77,0.00,,---,0.00,VWS V14.01,2013-03-05 14:51:00,
2013-03-05 09:52:00,29.3,23.0,29.00,NNE,12,0.0,0.0,77,0.00,,---,0.00,VWS V14.01,2013-03-05 14:52:00,
2013-03-05 09:53:00,29.3,23.0,29.00,North,351,0.0,0.0,77,0.00,,---,0.00,VWS V14.01,2013-03-05 14:53:00,
2013-03-05 09:54:00,29.3,23.0,29.00,NNE,27,0.0,0.0,77,0.00,,---,0.00,VWS V14.01,2013-03-05 14:54:00,
2013-03-05 09:55:00,29.3,23.0,29.00,NNE,13,0.0,0.0,77,0.00,,---,0.00,VWS V14.01,2013-03-05 14:55:00,
2013-03-05 09:56:00,29.3,23.0,29.00,North,10,0.0,0.0,77,0.00,,---,0.00,VWS V14.01,2013-03-05 14:56:00,
2013-03-05 09:57:00,29.5,23.2,29.00,North,351,0.0,0.0,77,0.00,,---,0.00,VWS V14.01,2013-03-05 14:57:00,
2013-03-05 09:58:00,29.3,23.0,29.00,NW,313,0.0,0.0,77,0.00,,---,0.00,VWS V14.01,2013-03-05 14:58:00,
2013-03-05 09:59:00,29.3,23.0,29.00,NW,317,0.0,0.0,77,0.00,,---,0.00,VWS V14.01,2013-03-05 14:59:00,
2013-03-05 10:00:00,29.3,23.0,29.00,North,10,0.0,0.0,77,0.00,,---,0.00,VWS V14.01,2013-03-05 15:00:00,
2013-03-05 10:01:00,29.5,23.2,29.00,SSW,201,0.0,0.0,77,0.00,,---,0.00,VWS V14.01,2013-03-05 15:01:00,
2013-03-05 10:02:00,29.3,23.0,29.00,NNE,13,0.0,0.0,77,0.00,,---,0.00,VWS V14.01,2013-03-05 15:02:00,
2013-03-05 10:03:00,29.5,23.2,29.00,NNE,18,0.0,0.0,77,0.00,,---,0.00,VWS V14.01,2013-03-05 15:03:00,
2013-03-05 10:04:00,29.5,23.2,29.00,North,0,0.0,0.0,77,0.00,,---,0.00,VWS V14.01,2013-03-05 15:04:00,
2013-03-05 10:05:00,29.7,23.4,29.00,NNW,330,0.0,0.0,77,0.00,,---,0.00,VWS V14.01,2013-03-05 15:05:00,
2013-03-05 10:06:00,29.7,23.4,29.00,NNE,13,0.0,0.0,77,0.00,,---,0.00,VWS V14.01,2013-03-05 15:06:00,
2013-03-05 10:07:00,29.8,23.5,29.00,NNW,335,0.0,0.0,77,0.00,,---,0.00,VWS V14.01,2013-03-05 15:07:00,
2013-03-05 10:08:00,29.7,23.4,29.00,North,351,0.0,0.0,77,0.00,,---,0.00,VWS V14.01,2013-03-05 15:08:00,
2013-03-05 10:09:00,29.7,23.0,29.00,NW,304,0.0,0.0,76,0.00,,---,0.00,VWS V14.01,2013-03-05 15:09:00,
2013-03-05 10:10:00,29.7,23.0,29.00,WNW,301,0.0,0.0,76,0.00,,---,0.00,VWS V14.01,2013-03-05 15:10:00,
2013-03-05 10:11:00,29.7,23.0,29.00,North,2,0.0,0.0,76,0.00,,---,0.00,VWS V14.01,2013-03-05 15:11:00,
2013-03-05 10:12:00,29.7,23.0,29.00,NNE,26,0.0,0.0,76,0.00,,---,0.00,VWS V14.01,2013-03-05 15:12:00,
2013-03-05 10:13:00,29.7,23.0,29.00,North,351,0.0,0.0,76,0.00,,---,0.00,VWS V14.01,2013-03-05 15:13:00,
2013-03-05 10:14:00,29.7,23.0,29.00,NNE,23,0.0,0.0,76,0.00,,---,0.00,VWS V14.01,2013-03-05 15:14:00,
2013-03-05 10:15:00,29.8,23.2,29.00,NNW,341,0.0,0.0,76,0.00,,---,0.00,VWS V14.01,2013-03-05 15:15:00,
2013-03-05 10:16:00,29.8,23.2,29.00,North,356,0.0,0.0,76,0.00,,---,0.00,VWS V14.01,2013-03-05 15:16:00,
2013-03-05 10:17:00,29.8,23.2,29.00,NNE,13,0.0,0.0,76,0.00,,---,0.00,VWS V14.01,2013-03-05 15:17:00,
2013-03-05 10:18:00,30.0,23.4,29.00,NNE,23,0.0,0.0,76,0.00,,---,0.00,VWS V14.01,2013-03-05 15:18:00,
2013-03-05 10:19:00,30.2,23.6,29.00,NNE,13,0.0,0.0,76,0.00,,---,0.00,VWS V14.01,2013-03-05 15:19:00,
2013-03-05 10:20:00,30.0,23.4,29.00,NE,43,0.0,0.0,76,0.00,,---,0.00,VWS V14.01,2013-03-05 15:20:00,
2013-03-05 10:21:00,29.8,22.9,29.00,NNE,15,0.0,0.0,75,0.00,,---,0.00,VWS V14.01,2013-03-05 15:21:00,
2013-03-05 10:22:00,29.8,22.9,29.00,NNW,346,0.0,0.0,75,0.00,,---,0.00,VWS V14.01,2013-03-05 15:22:00,
2013-03-05 10:23:00,29.8,22.9,29.00,NNW,333,0.0,0.0,75,0.00,,---,0.00,VWS V14.01,2013-03-05 15:23:00,
2013-03-05 10:24:00,29.7,22.7,29.00,North,351,0.0,0.0,75,0.00,,---,0.00,VWS V14.01,2013-03-05 15:24:00,
2013-03-05 10:25:00,29.8,22.9,29.00,North,356,0.0,0.0,75,0.00,,---,0.00,VWS V14.01,2013-03-05 15:25:00,
2013-03-05 10:26:00,30.0,23.1,29.00,NE,44,0.0,0.0,75,0.00,,---,0.00,VWS V14.01,2013-03-05 15:26:00,
2013-03-05 10:27:00,30.2,23.2,29.00,North,10,0.0,0.0,75,0.00,,---,0.00,VWS V14.01,2013-03-05 15:27:00,
2013-03-05 10:28:00,30.0,23.1,29.00,NNE,29,0.0,0.0,75,0.00,,---,0.00,VWS V14.01,2013-03-05 15:28:00,
2013-03-05 10:29:00,30.2,23.2,29.00,NNE,33,0.0,0.0,75,0.00,,---,0.00,VWS V14.01,2013-03-05 15:29:00,
2013-03-05 10:30:00,30.4,23.4,29.00,NNE,19,0.0,0.0,75,0.00,,---,0.00,VWS V14.01,2013-03-05 15:30:00,
2013-03-05 10:31:00,30.6,23.6,29.00,North,4,0.0,0.0,75,0.00,,---,0.00,VWS V14.01,2013-03-05 15:31:00,
2013-03-05 10:32:00,30.7,23.8,29.00,NNE,21,0.0,0.0,75,0.00,,---,0.00,VWS V14.01,2013-03-05 15:32:00,
2013-03-05 10:34:00,31.3,24.0,29.00,NNE,23,0.0,0.0,74,0.00,,---,0.00,VWS V14.01,2013-03-05 15:34:00,
2013-03-05 10:35:00,31.1,23.8,29.00,NNE,23,0.0,0.0,74,0.00,,---,0.00,VWS V14.01,2013-03-05 15:35:00,
2013-03-05 10:36:00,31.3,24.0,29.00,NNE,13,0.0,0.0,74,0.00,,---,0.00,VWS V14.01,2013-03-05 15:36:00,
2013-03-05 10:37:00,30.9,23.3,29.00,NNW,330,0.0,0.0,73,0.00,,---,0.00,VWS V14.01,2013-03-05 15:37:00,
2013-03-05 10:38:00,34.9,26.1,28.79,East,90,10.1,12.1,70,0.00,,---,0.00,VWS V14.01,2013-03-05 15:38:00,
2013-03-05 10:40:00,30.6,22.3,29.00,NNE,30,0.0,0.0,71,0.00,,---,0.00,VWS V14.01,2013-03-05 15:40:00,
2013-03-05 10:41:00,30.7,22.8,29.00,NNE,15,0.0,0.0,72,0.00,,---,0.00,VWS V14.01,2013-03-05 15:41:00,
2013-03-05 10:42:00,30.7,22.8,29.00,NNW,337,0.0,0.0,72,0.00,,---,0.00,VWS V14.01,2013-03-05 15:42:00,
2013-03-05 10:43:00,30.6,22.3,29.00,NW,320,0.0,0.0,71,0.00,,---,0.00,VWS V14.01,2013-03-05 15:43:00,
2013-03-05 10:44:00,30.4,22.1,29.00,NNE,22,0.0,0.0,71,0.00,,---,0.00,VWS V14.01,2013-03-05 15:44:00,
2013-03-05 10:45:00,30.6,22.3,29.00,NNE,17,0.0,0.0,71,0.00,,---,0.00,VWS V14.01,2013-03-05 15:45:00,
2013-03-05 10:46:00,30.9,22.6,29.00,North,7,0.0,0.0,71,0.00,,---,0.00,VWS V14.01,2013-03-05 15:46:00,
2013-03-05 10:47:00,30.9,22.6,29.00,North,351,0.0,0.0,71,0.00,,---,0.00,VWS V14.01,2013-03-05 15:47:00,
2013-03-05 10:48:00,30.9,22.6,29.00,East,97,0.0,0.0,71,0.00,,---,0.00,VWS V14.01,2013-03-05 15:48:00,
2013-03-05 10:49:00,30.6,22.3,29.00,NNE,20,0.0,0.0,71,0.00,,---,0.00,VWS V14.01,2013-03-05 15:49:00,
2013-03-05 10:50:00,30.4,22.1,29.00,NNW,338,0.0,0.0,71,0.00,,---,0.00,VWS V14.01,2013-03-05 15:50:00,
2013-03-05 10:51:00,30.4,22.1,29.00,North,356,0.0,0.0,71,0.00,,---,0.00,VWS V14.01,2013-03-05 15:51:00,
2013-03-05 10:52:00,30.4,22.1,29.03,North,10,0.0,0.0,71,0.00,,---,0.00,VWS V14.01,2013-03-05 15:52:00,
2013-03-05 10:53:00,30.7,22.5,29.03,NW,320,0.0,0.0,71,0.00,,---,0.00,VWS V14.01,2013-03-05 15:53:00,
2013-03-05 10:54:00,30.7,22.5,29.03,NE,37,0.0,0.0,71,0.00,,---,0.00,VWS V14.01,2013-03-05 15:54:00,
2013-03-05 10:55:00,30.9,23.0,29.03,NNE,15,0.0,0.0,72,0.00,,---,0.00,VWS V14.01,2013-03-05 15:55:00,
2013-03-05 10:56:00,31.3,23.0,29.03,NNE,18,0.0,0.0,71,0.00,,---,0.00,VWS V14.01,2013-03-05 15:56:00,
2013-03-05 10:57:00,31.5,23.5,29.03,NNE,30,0.0,0.0,72,0.00,,---,0.00,VWS V14.01,2013-03-05 15:57:00,
2013-03-05 10:58:00,31.5,23.2,29.03,North,11,0.0,0.0,71,0.00,,---,0.00,VWS V14.01,2013-03-05 15:58:00,
2013-03-05 10:59:00,31.6,23.3,29.03,North,8,0.0,0.0,71,0.00,,---,0.00,VWS V14.01,2013-03-05 15:59:00,
2013-03-05 11:00:00,31.8,23.5,29.03,North,7,0.0,0.0,71,0.00,,---,0.00,VWS V14.01,2013-03-05 16:00:00,
2013-03-05 11:01:00,31.8,23.5,29.03,NNW,338,0.0,0.0,71,0.00,,---,0.00,VWS V14.01,2013-03-05 16:01:00,
2013-03-05 11:02:00,31.8,23.2,29.03,NNE,14,0.0,0.0,70,0.00,,---,0.00,VWS V14.01,2013-03-05 16:02:00,
2013-03-05 11:03:00,32.0,23.3,29.03,NNE,32,0.0,0.0,70,0.00,,---,0.00,VWS V14.01,2013-03-05 16:03:00,
2013-03-05 11:04:00,32.2,23.5,29.03,NNE,17,0.0,0.0,70,0.00,,---,0.00,VWS V14.01,2013-03-05 16:04:00,
2013-03-05 11:05:00,32.2,23.5,29.03,NE,35,0.0,0.0,70,0.00,,---,0.00,VWS V14.01,2013-03-05 16:05:00,
2013-03-05 11:06:00,32.4,23.7,29.03,NNE,16,5.4,5.8,70,0.00,,---,0.00,VWS V14.01,2013-03-05 16:06:00,
2013-03-05 11:07:00,32.0,22.6,29.03,NNE,15,5.4,7.8,68,0.00,,---,0.00,VWS V14.01,2013-03-05 16:07:00,
2013-03-05 11:08:00,31.8,22.1,29.03,NNE,20,2.7,7.8,67,0.00,,---,0.00,VWS V14.01,2013-03-05 16:08:00,
2013-03-05 11:09:00,31.8,21.8,29.03,North,5,3.6,5.8,66,0.00,,---,0.00,VWS V14.01,2013-03-05 16:09:00,
2013-03-05 11:10:00,31.8,21.8,29.03,North,351,2.7,4.5,66,0.00,,---,0.00,VWS V14.01,2013-03-05 16:10:00,
2013-03-05 11:11:00,31.6,21.6,29.03,North,351,3.6,4.5,66,0.00,,---,0.00,VWS V14.01,2013-03-05 16:11:00,
2013-03-05 11:12:00,31.6,21.6,29.03,North,7,3.1,5.4,66,0.00,,---,0.00,VWS V14.01,2013-03-05 16:12:00,
2013-03-05 11:13:00,31.5,21.4,29.03,NNE,16,0.0,8.3,66,0.00,,---,0.00,VWS V14.01,2013-03-05 16:13:00,
2013-03-05 11:14:00,31.6,21.6,29.03,NNW,347,4.5,6.3,66,0.00,,---,0.00,VWS V14.01,2013-03-05 16:14:00,
2013-03-05 11:15:00,31.6,21.6,29.03,NNE,21,0.0,6.3,66,0.00,,---,0.00,VWS V14.01,2013-03-05 16:15:00,
2013-03-05 11:16:00,31.6,21.6,29.03,NNE,27,0.0,4.5,66,0.00,,---,0.00,VWS V14.01,2013-03-05 16:16:00,
2013-03-05 11:17:00,32.0,22.3,29.03,NNE,14,4.5,5.8,67,0.00,,---,0.00,VWS V14.01,2013-03-05 16:17:00,
2013-03-05 11:18:00,32.2,22.5,29.03,NNE,22,5.8,7.4,67,0.00,,---,0.00,VWS V14.01,2013-03-05 16:18:00,
2013-03-05 11:19:00,32.2,22.1,29.03,NNE,22,4.0,5.8,66,0.00,,---,0.00,VWS V14.01,2013-03-05 16:19:00,
2013-03-05 11:20:00,32.5,22.5,29.03,NNE,19,0.0,4.5,66,0.00,,---,0.00,VWS V14.01,2013-03-05 16:20:00,
2013-03-05 11:21:00,32.2,21.8,29.03,NNE,28,2.7,11.0,65,0.00,,---,0.00,VWS V14.01,2013-03-05 16:21:00,
2013-03-05 11:22:00,32.2,21.4,29.03,NNE,19,5.8,5.8,64,0.00,,---,0.00,VWS V14.01,2013-03-05 16:22:00,
2013-03-05 11:23:00,32.2,21.0,29.03,North,3,3.6,5.8,63,0.00,,---,0.00,VWS V14.01,2013-03-05 16:23:00,
2013-03-05 11:24:00,32.5,21.4,29.03,NNE,16,3.6,6.9,63,0.00,,---,0.00,VWS V14.01,2013-03-05 16:24:00,
2013-03-05 11:25:00,32.5,21.4,29.03,NNE,14,0.0,5.8,63,0.00,,---,0.00,VWS V14.01,2013-03-05 16:25:00,
2013-03-05 11:26:00,32.7,21.5,29.03,North,11,3.6,8.3,63,0.00,,---,0.00,VWS V14.01,2013-03-05 16:26:00,
2013-03-05 11:27:00,32.9,21.7,29.03,North,356,4.5,7.8,63,0.00,,---,0.00,VWS V14.01,2013-03-05 16:27:00,
2013-03-05 11:28:00,32.9,21.3,29.03,NNE,13,4.0,6.3,62,0.00,,---,0.00,VWS V14.01,2013-03-05 16:28:00,
2013-03-05 11:29:00,33.1,21.1,29.03,NNE,31,0.0,6.3,61,0.00,,---,0.00,VWS V14.01,2013-03-05 16:29:00,
2013-03-05 11:30:00,33.1,21.1,29.03,North,5,4.9,4.9,61,0.00,,---,0.00,VWS V14.01,2013-03-05 16:30:00,
2013-03-05 11:31:00,32.9,20.5,29.03,NE,44,3.6,4.9,60,0.00,,---,0.00,VWS V14.01,2013-03-05 16:31:00,
2013-03-05 11:32:00,33.1,20.7,29.03,NNE,18,3.1,6.9,60,0.00,,---,0.00,VWS V14.01,2013-03-05 16:32:00,
2013-03-05 11:33:00,33.1,20.7,29.03,North,9,6.3,6.7,60,0.00,,---,0.00,VWS V14.01,2013-03-05 16:33:00,
2013-03-05 11:34:00,33.3,20.5,29.03,NNE,19,3.1,6.3,59,0.00,,---,0.00,VWS V14.01,2013-03-05 16:34:00,
2013-03-05 11:35:00,33.6,21.2,29.03,NNE,19,0.0,3.1,60,0.00,,---,0.00,VWS V14.01,2013-03-05 16:35:00,
2013-03-05 11:36:00,33.8,21.4,29.03,NW,324,5.4,5.4,60,0.00,,---,0.00,VWS V14.01,2013-03-05 16:36:00,
2013-03-05 11:37:00,33.8,21.0,29.03,NNE,16,0.0,5.4,59,0.00,,---,0.00,VWS V14.01,2013-03-05 16:37:00,
2013-03-05 11:38:00,33.8,21.0,29.03,NE,40,4.5,4.9,59,0.00,,---,0.00,VWS V14.01,2013-03-05 16:38:00,
2013-03-05 11:39:00,34.0,20.8,29.03,North,9,4.9,5.4,58,0.00,,---,0.00,VWS V14.01,2013-03-05 16:39:00,
2013-03-05 11:40:00,34.0,20.8,29.03,NE,56,3.1,4.9,58,0.00,,---,0.00,VWS V14.01,2013-03-05 16:40:00,
2013-03-05 11:41:00,34.2,20.5,29.03,NNE,30,4.5,5.4,57,0.00,,---,0.00,VWS V14.01,2013-03-05 16:41:00,
2013-03-05 11:42:00,34.2,20.5,29.03,NNE,12,2.7,4.5,57,0.00,,---,0.00,VWS V14.01,2013-03-05 16:42:00,
2013-03-05 11:43:00,34.2,20.1,29.03,NNE,31,4.0,6.7,56,0.00,,---,0.00,VWS V14.01,2013-03-05 16:43:00,
2013-03-05 11:44:00,34.2,19.7,29.03,NE,47,2.7,4.9,55,0.00,,---,0.00,VWS V14.01,2013-03-05 16:44:00,
2013-03-05 11:45:00,34.2,19.7,29.03,ENE,61,2.7,4.5,55,0.00,,---,0.00,VWS V14.01,2013-03-05 16:45:00,
2013-03-05 11:46:00,34.3,19.4,29.03,North,9,4.9,4.9,54,0.00,,---,0.00,VWS V14.01,2013-03-05 16:46:00,
2013-03-05 11:47:00,34.3,19.4,29.03,North,356,5.8,5.8,54,0.00,,---,0.00,VWS V14.01,2013-03-05 16:47:00,
2013-03-05 11:48:00,34.2,19.3,29.03,NE,49,4.9,6.7,54,0.00,,---,0.00,VWS V14.01,2013-03-05 16:48:00,
2013-03-05 11:49:00,34.2,19.3,29.03,NE,37,4.9,6.7,54,0.00,,---,0.00,VWS V14.01,2013-03-05 16:49:00,
2013-03-05 11:50:00,34.3,19.4,29.03,NNE,23,4.5,5.8,54,0.00,,---,0.00,VWS V14.01,2013-03-05 16:50:00,
2013-03-05 11:51:00,34.3,19.4,29.03,North,8,4.0,5.8,54,0.00,,---,0.00,VWS V14.01,2013-03-05 16:51:00,
2013-03-05 11:52:00,34.5,19.6,29.03,NNE,19,4.0,5.4,54,0.00,,---,0.00,VWS V14.01,2013-03-05 16:52:00,
2013-03-05 11:53:00,34.7,19.8,29.03,NNE,23,5.4,8.3,54,0.00,,---,0.00,VWS V14.01,2013-03-05 16:53:00,
2013-03-05 11:54:00,34.7,19.8,29.03,NNE,22,6.3,6.3,54,0.00,,---,0.00,VWS V14.01,2013-03-05 16:54:00,
2013-03-05 11:55:00,34.9,19.5,29.03,NE,49,4.9,6.3,53,0.00,,---,0.00,VWS V14.01,2013-03-05 16:55:00,
2013-03-05 11:56:00,35.1,19.7,29.03,NNE,29,4.0,5.8,53,0.00,,---,0.00,VWS V14.01,2013-03-05 16:56:00,
2013-03-05 11:57:00,35.1,19.7,29.03,NE,43,4.0,5.4,53,0.00,,---,0.00,VWS V14.01,2013-03-05 16:57:00,
2013-03-05 11:58:00,35.2,19.4,29.03,NNE,29,3.6,4.9,52,0.00,,---,0.00,VWS V14.01,2013-03-05 16:58:00,
2013-03-05 11:59:00,35.1,19.2,29.03,NW,321,6.7,6.7,52,0.00,,---,0.00,VWS V14.01,2013-03-05 16:59:00,
2013-03-05 12:00:00,34.0,17.8,29.03,NNW,347,6.7,8.3,51,0.00,,---,0.00,VWS V14.01,2013-03-05 17:00:00,
2013-03-05 12:01:00,33.4,17.7,29.03,NNE,29,0.0,7.8,52,0.00,,---,0.00,VWS V14.01,2013-03-05 17:01:00,
2013-03-05 12:02:00,33.4,18.2,29.03,NNE,25,4.5,4.5,53,0.00,,---,0.00,VWS V14.01,2013-03-05 17:02:00,
2013-03-05 12:03:00,33.6,18.8,29.03,NNW,328,3.6,5.4,54,0.00,,---,0.00,VWS V14.01,2013-03-05 17:03:00,
2013-03-05 12:04:00,33.6,18.8,29.03,NE,44,4.9,6.3,54,0.00,,---,0.00,VWS V14.01,2013-03-05 17:04:00,
2013-03-05 12:05:00,33.8,19.4,29.03,NE,36,3.6,5.4,55,0.00,,---,0.00,VWS V14.01,2013-03-05 17:05:00,
2013-03-05 12:06:00,34.0,19.5,29.03,North,9,5.8,6.7,55,0.00,,---,0.00,VWS V14.01,2013-03-05 17:06:00,
2013-03-05 12:07:00,34.0,19.5,29.03,NE,51,4.5,6.3,55,0.00,,---,0.00,VWS V14.01,2013-03-05 17:07:00,
2013-03-05 12:08:00,34.2,19.7,29.03,NNE,16,3.1,6.3,55,0.00,,---,0.00,VWS V14.01,2013-03-05 17:08:00,
2013-03-05 12:09:00,34.3,19.9,29.03,North,8,3.6,6.9,55,0.00,,---,0.00,VWS V14.01,2013-03-05 17:09:00,
2013-03-05 12:10:00,34.5,20.0,29.03,North,10,3.1,7.8,55,0.00,,---,0.00,VWS V14.01,2013-03-05 17:10:00,
2013-03-05 12:11:00,34.3,19.4,29.03,NNW,342,3.1,6.7,54,0.00,,---,0.00,VWS V14.01,2013-03-05 17:11:00,
2013-03-05 12:12:00,34.3,19.4,29.03,North,2,7.4,7.4,54,0.00,,---,0.00,VWS V14.01,2013-03-05 17:12:00,
2013-03-05 12:13:00,34.5,19.2,29.03,NNE,14,5.8,7.4,53,0.00,,---,0.00,VWS V14.01,2013-03-05 17:13:00,
2013-03-05 12:14:00,34.5,19.2,29.03,NNE,12,4.5,5.8,53,0.00,,---,0.00,VWS V14.01,2013-03-05 17:14:00,
2013-03-05 12:15:00,34.7,19.3,29.03,NNE,21,4.9,4.9,53,0.00,,---,0.00,VWS V14.01,2013-03-05 17:15:00,
2013-03-05 12:16:00,34.9,19.5,29.03,NNE,24,4.0,5.8,53,0.00,,---,0.00,VWS V14.01,2013-03-05 17:16:00,
2013-03-05 12:17:00,34.9,19.1,29.03,NNE,22,4.0,5.8,52,0.00,,---,0.00,VWS V14.01,2013-03-05 17:17:00,
2013-03-05 12:18:00,35.1,19.2,29.03,NNE,16,4.0,5.4,52,0.00,,---,0.00,VWS V14.01,2013-03-05 17:18:00,
2013-03-05 12:19:00,35.2,19.4,29.03,NNE,16,0.0,4.0,52,0.00,,---,0.00,VWS V14.01,2013-03-05 17:19:00,
2013-03-05 12:20:00,35.4,20.0,29.03,NNE,16,4.0,4.0,53,0.00,,---,0.00,VWS V14.01,2013-03-05 17:20:00,
2013-03-05 12:21:00,35.6,20.2,29.03,NNE,32,4.5,4.9,53,0.00,,---,0.00,VWS V14.01,2013-03-05 17:21:00,
2013-03-05 12:22:00,35.6,20.2,29.06,NNE,27,5.4,5.4,53,0.00,,---,0.00,VWS V14.01,2013-03-05 17:22:00,
2013-03-05 12:24:00,35.8,19.9,29.06,NNE,19,4.0,4.9,52,0.00,,---,0.00,VWS V14.01,2013-03-05 17:24:00,
2013-03-05 12:25:00,35.8,19.4,29.06,NNE,19,0.0,4.0,51,0.00,,---,0.00,VWS V14.01,2013-03-05 17:25:00,
2013-03-05 12:26:00,35.8,19.4,29.06,NNE,19,4.5,5.4,51,0.00,,---,0.00,VWS V14.01,2013-03-05 17:26:00,
2013-03-05 12:27:00,35.8,19.4,29.06,NNE,19,0.0,4.5,51,0.00,,---,0.00,VWS V14.01,2013-03-05 17:27:00,
2013-03-05 12:28:00,35.8,19.0,29.06,NNE,16,3.1,5.8,50,0.00,,---,0.00,VWS V14.01,2013-03-05 17:28:00,
2013-03-05 12:29:00,36.0,19.1,29.06,NNE,16,4.0,4.0,50,0.00,,---,0.00,VWS V14.01,2013-03-05 17:29:00,
2013-03-05 12:30:00,36.1,19.3,29.06,NNE,16,2.7,4.5,50,0.00,,---,0.00,VWS V14.01,2013-03-05 17:30:00,
2013-03-05 12:31:00,36.1,19.3,29.06,NNE,21,5.4,6.7,50,0.00,,---,0.00,VWS V14.01,2013-03-05 17:31:00,
2013-03-05 12:32:00,36.3,19.5,29.06,NNE,18,0.0,5.4,50,0.00,,---,0.00,VWS V14.01,2013-03-05 17:32:00,
2013-03-05 12:33:00,36.3,19.5,29.06,NNE,18,4.5,4.5,50,0.00,,---,0.00,VWS V14.01,2013-03-05 17:33:00,
2013-03-05 12:34:00,36.3,19.5,29.06,NNW,346,3.1,6.7,50,0.00,,---,0.00,VWS V14.01,2013-03-05 17:34:00,
2013-03-05 12:35:00,36.0,18.2,29.06,NE,44,4.9,6.3,48,0.00,,---,0.00,VWS V14.01,2013-03-05 17:35:00,
2013-03-05 12:36:00,35.8,18.0,29.06,North,351,0.0,4.9,48,0.00,,---,0.00,VWS V14.01,2013-03-05 17:36:00,
2013-03-05 12:37:00,34.5,24.7,28.73,SE,129,6.9,9.2,67,0.04,,---,0.04,VWS V14.01,2013-03-05 17:37:00,
2013-03-05 12:38:00,34.9,17.7,29.06,NNW,342,4.9,6.7,49,0.00,,---,0.00,VWS V14.01,2013-03-05 17:38:00,
2013-03-05 12:39:00,34.9,18.1,29.06,NNE,20,4.0,6.3,50,0.00,,---,0.00,VWS V14.01,2013-03-05 17:39:00,
2013-03-05 12:40:00,34.9,18.1,29.06,NNE,14,3.1,6.3,50,0.00,,---,0.00,VWS V14.01,2013-03-05 17:40:00,
2013-03-05 12:41:00,34.9,18.1,29.06,NE,43,2.7,6.3,50,0.00,,---,0.00,VWS V14.01,2013-03-05 17:41:00,
2013-03-05 12:42:00,34.9,18.6,29.06,NNE,23,3.1,5.4,51,0.00,,---,0.00,VWS V14.01,2013-03-05 17:42:00,
2013-03-05 12:43:00,35.1,18.8,29.06,NNE,22,4.9,6.3,51,0.00,,---,0.00,VWS V14.01,2013-03-05 17:43:00,
2013-03-05 12:44:00,35.1,18.8,29.06,NNE,26,7.8,7.8,51,0.00,,---,0.00,VWS V14.01,2013-03-05 17:44:00,
2013-03-05 12:45:00,34.3,24.9,28.73,SE,129,9.6,9.6,68,0.04,,---,0.04,VWS V14.01,2013-03-05 17:45:00,
2013-03-05 12:46:00,35.1,18.8,29.06,NNE,19,4.9,6.3,51,0.00,,---,0.00,VWS V14.01,2013-03-05 17:46:00,
2013-03-05 12:47:00,35.2,18.9,29.06,NNE,21,4.0,6.3,51,0.00,,---,0.00,VWS V14.01,2013-03-05 17:47:00,
2013-03-05 12:48:00,35.4,19.1,29.06,NNE,19,2.7,4.0,51,0.00,,---,0.00,VWS V14.01,2013-03-05 17:48:00,
2013-03-05 12:49:00,35.4,19.1,29.06,NNE,26,0.0,5.8,51,0.00,,---,0.00,VWS V14.01,2013-03-05 17:49:00,
2013-03-05 12:50:00,34.9,18.1,29.06,NNE,31,3.1,6.3,50,0.00,,---,0.00,VWS V14.01,2013-03-05 17:50:00,
2013-03-05 12:51:00,35.1,18.3,29.06,NNE,24,6.3,8.3,50,0.00,,---,0.00,VWS V14.01,2013-03-05 17:51:00,
2013-03-05 12:52:00,35.1,18.3,29.06,NNE,25,3.6,6.9,50,0.00,,---,0.00,VWS V14.01,2013-03-05 17:52:00,
2013-03-05 12:53:00,34.3,25.2,28.73,ESE,121,11.2,12.1,69,0.04,,---,0.04,VWS V14.01,2013-03-05 17:53:00,
2013-03-05 12:54:00,35.1,18.3,29.06,NE,35,3.6,4.0,50,0.00,,---,0.00,VWS V14.01,2013-03-05 17:54:00,
2013-03-05 12:55:00,35.1,18.8,29.06,North,1,0.0,3.6,51,0.00,,---,0.00,VWS V14.01,2013-03-05 17:55:00,
2013-03-05 12:56:00,35.1,18.8,29.06,North,0,2.7,4.0,51,0.00,,---,0.00,VWS V14.01,2013-03-05 17:56:00,
2013-03-05 12:57:00,34.5,18.3,29.06,NNW,342,4.0,7.4,51,0.00,,---,0.00,VWS V14.01,2013-03-05 17:57:00,
2013-03-05 12:58:00,34.0,18.2,29.06,North,351,5.4,6.9,52,0.00,,---,0.00,VWS V14.01,2013-03-05 17:58:00,
2013-03-05 12:59:00,34.3,25.6,28.70,ENE,63,9.2,10.1,70,0.04,,---,0.04,VWS V14.01,2013-03-05 17:59:00,
2013-03-05 13:01:00,33.1,18.7,29.06,NW,315,5.8,6.9,55,0.00,,---,0.00,VWS V14.01,2013-03-05 18:01:00,
2013-03-05 13:02:00,32.9,18.9,29.06,NW,326,5.8,7.8,56,0.00,,---,0.00,VWS V14.01,2013-03-05 18:02:00,
2013-03-05 13:03:00,32.9,19.4,29.06,North,351,2.7,6.7,57,0.00,,---,0.00,VWS V14.01,2013-03-05 18:03:00,
2013-03-05 13:04:00,34.5,25.8,28.70,ENE,66,7.4,7.8,70,0.04,,---,0.04,VWS V14.01,2013-03-05 18:04:00,
2013-03-05 13:05:00,33.3,20.1,29.06,NNE,22,2.7,5.4,58,0.00,,---,0.00,VWS V14.01,2013-03-05 18:05:00,
2013-03-05 13:06:00,33.6,20.8,29.06,NE,38,3.1,4.5,59,0.00,,---,0.00,VWS V14.01,2013-03-05 18:06:00,
2013-03-05 13:07:00,34.0,21.6,29.06,NNE,21,4.0,6.3,60,0.00,,---,0.00,VWS V14.01,2013-03-05 18:07:00,
2013-03-05 13:08:00,33.8,21.0,29.06,NNW,336,7.4,8.3,59,0.00,,---,0.00,VWS V14.01,2013-03-05 18:08:00,
2013-03-05 13:09:00,34.3,25.9,28.70,ESE,110,10.1,11.0,71,0.04,,---,0.04,VWS V14.01,2013-03-05 18:09:00,
2013-03-05 13:10:00,33.6,20.4,29.06,North,4,3.1,4.0,58,0.00,,---,0.00,VWS V14.01,2013-03-05 18:10:00,
2013-03-05 13:11:00,33.4,20.3,29.06,North,351,6.9,6.9,58,0.00,,---,0.00,VWS V14.01,2013-03-05 18:11:00,
2013-03-05 13:12:00,33.1,19.9,29.06,NNE,23,5.8,9.6,58,0.00,,---,0.00,VWS V14.01,2013-03-05 18:12:00,
2013-03-05 13:13:00,33.3,20.1,29.06,NNW,341,3.1,6.3,58,0.00,,---,0.00,VWS V14.01,2013-03-05 18:13:00,
2013-03-05 13:14:00,33.3,20.5,29.06,NE,36,4.5,6.7,59,0.00,,---,0.00,VWS V14.01,2013-03-05 18:14:00,
2013-03-05 13:15:00,33.6,20.8,29.06,NNE,21,3.1,4.9,59,0.00,,---,0.00,VWS V14.01,2013-03-05 18:15:00,
2013-03-05 13:16:00,34.3,26.3,28.70,NE,44,8.7,11.2,72,0.04,,---,0.04,VWS V14.01,2013-03-05 18:16:00,
2013-03-05 13:17:00,34.2,21.7,29.06,NNE,26,0.0,6.3,60,0.00,,---,0.00,VWS V14.01,2013-03-05 18:17:00,
2013-03-05 13:18:00,34.5,22.1,29.06,NNE,24,0.0,4.9,60,0.00,,---,0.00,VWS V14.01,2013-03-05 18:18:00,
2013-03-05 13:19:00,34.5,21.7,29.06,NW,326,5.8,6.3,59,0.00,,---,0.00,VWS V14.01,2013-03-05 18:19:00,
2013-03-05 13:20:00,34.2,20.5,29.06,North,351,2.7,6.7,57,0.00,,---,0.00,VWS V14.01,2013-03-05 18:20:00,
2013-03-05 13:21:00,34.3,26.3,28.70,ENE,74,8.3,10.5,72,0.04,,---,0.04,VWS V14.01,2013-03-05 18:21:00,
2013-03-05 13:22:00,34.5,20.9,29.09,NE,38,3.6,4.9,57,0.00,,---,0.00,VWS V14.01,2013-03-05 18:22:00,
2013-03-05 13:23:00,34.7,21.0,29.09,NNE,21,4.5,5.4,57,0.00,,---,0.00,VWS V14.01,2013-03-05 18:23:00,
2013-03-05 13:24:00,34.3,20.3,29.09,NNW,334,5.8,8.7,56,0.00,,---,0.00,VWS V14.01,2013-03-05 18:24:00,
2013-03-05 13:25:00,34.0,19.5,29.09,North,356,6.3,7.4,55,0.00,,---,0.00,VWS V14.01,2013-03-05 18:25:00,
2013-03-05 13:26:00,34.3,26.6,28.70,ENE,68,7.8,7.8,73,0.00,,---,0.04,VWS V14.01,2013-03-05 18:26:00,
2013-03-05 13:27:00,33.8,19.8,29.09,NNW,329,3.6,7.4,56,0.00,,---,0.00,VWS V14.01,2013-03-05 18:27:00,
2013-03-05 13:28:00,33.6,20.0,29.09,NNW,338,3.6,6.9,57,0.00,,---,0.00,VWS V14.01,2013-03-05 18:28:00,
2013-03-05 13:29:00,33.8,20.2,29.09,North,351,0.0,3.6,57,0.00,,---,0.00,VWS V14.01,2013-03-05 18:29:00,
2013-03-05 13:30:00,34.2,20.9,29.09,NNE,26,4.5,5.8,58,0.00,,---,0.00,VWS V14.01,2013-03-05 18:30:00,
2013-03-05 13:31:00,34.3,26.6,28.70,East,96,10.5,10.5,73,0.00,,---,0.04,VWS V14.01,2013-03-05 18:31:00,
2013-03-05 13:32:00,34.5,21.7,29.09,NNW,328,4.9,4.9,59,0.00,,---,0.00,VWS V14.01,2013-03-05 18:32:00,
2013-03-05 13:33:00,34.5,21.7,29.09,NNW,339,6.7,6.7,59,0.00,,---,0.00,VWS V14.01,2013-03-05 18:33:00,
2013-03-05 13:34:00,34.2,20.5,29.09,NNW,344,3.1,7.8,57,0.00,,---,0.00,VWS V14.01,2013-03-05 18:34:00,
2013-03-05 13:35:00,34.3,20.7,29.09,North,351,4.0,6.3,57,0.00,,---,0.00,VWS V14.01,2013-03-05 18:35:00,
2013-03-05 13:36:00,34.3,26.6,28.70,ESE,110,9.2,13.4,73,0.00,,---,0.04,VWS V14.01,2013-03-05 18:36:00,
2013-03-05 13:37:00,34.5,20.9,29.09,NW,308,6.3,6.9,57,0.00,,---,0.00,VWS V14.01,2013-03-05 18:37:00,
2013-03-05 13:38:00,34.0,20.0,29.09,NNW,331,5.8,7.4,56,0.00,,---,0.00,VWS V14.01,2013-03-05 18:38:00,
2013-03-05 13:39:00,33.8,19.8,29.09,NNW,346,5.8,7.4,56,0.00,,---,0.00,VWS V14.01,2013-03-05 18:39:00,
2013-03-05 13:40:00,33.8,19.8,29.09,NW,323,5.4,5.8,56,0.00,,---,0.00,VWS V14.01,2013-03-05 18:40:00,
2013-03-05 13:41:00,34.0,20.4,29.09,NNE,15,3.1,6.7,57,0.00,,---,0.00,VWS V14.01,2013-03-05 18:41:00,
2013-03-05 13:42:00,34.0,26.2,28.70,ESE,108,8.7,8.7,73,0.00,,---,0.04,VWS V14.01,2013-03-05 18:42:00,
2013-03-05 13:43:00,34.9,21.2,29.09,NNE,20,3.1,5.4,57,0.00,,---,0.00,VWS V14.01,2013-03-05 18:43:00,
2013-03-05 13:44:00,35.2,22.0,29.09,NNE,24,4.0,5.4,58,0.00,,---,0.00,VWS V14.01,2013-03-05 18:44:00,
2013-03-05 13:45:00,35.6,22.3,29.09,NNE,16,0.0,5.8,58,0.00,,---,0.00,VWS V14.01,2013-03-05 18:45:00,
2013-03-05 13:52:00,35.8,19.4,29.09,NNE,28,6.7,6.7,51,0.00,,---,0.00,VWS V14.01,2013-03-05 18:52:00,
2013-03-05 13:53:00,35.8,19.4,29.09,NNW,327,5.4,6.7,51,0.00,,---,0.00,VWS V14.01,2013-03-05 18:53:00,
2013-03-05 13:54:00,35.4,19.1,29.09,NNW,344,5.4,6.7,51,0.00,,---,0.00,VWS V14.01,2013-03-05 18:54:00,
2013-03-05 13:55:00,35.1,18.8,29.09,NNW,327,4.0,7.4,51,0.00,,---,0.00,VWS V14.01,2013-03-05 18:55:00,
2013-03-05 13:57:00,34.5,18.7,29.09,North,6,4.0,4.5,52,0.00,,---,0.00,VWS V14.01,2013-03-05 18:57:00,
2013-03-05 13:58:00,34.7,18.9,29.09,North,11,4.5,4.5,52,0.00,,---,0.00,VWS V14.01,2013-03-05 18:58:00,
2013-03-05 13:59:00,34.5,19.2,29.09,NNW,335,4.0,6.7,53,0.00,,---,0.00,VWS V14.01,2013-03-05 18:59:00,
2013-03-05 14:00:00,34.3,19.4,29.09,NNW,333,4.0,4.9,54,0.00,,---,0.00,VWS V14.01,2013-03-05 19:00:00,
2013-03-05 14:01:00,34.5,19.6,29.09,NNE,21,4.5,5.8,54,0.00,,---,0.00,VWS V14.01,2013-03-05 19:01:00,
2013-03-05 14:02:00,34.9,19.9,29.09,NW,321,5.4,5.4,54,0.00,,---,0.00,VWS V14.01,2013-03-05 19:02:00,
2013-03-05 14:03:00,35.1,20.1,29.09,NNW,329,5.8,5.8,54,0.00,,---,0.00,VWS V14.01,2013-03-05 19:03:00,
2013-03-05 14:04:00,35.2,20.3,29.09,North,0,3.6,5.8,54,0.00,,---,0.00,VWS V14.01,2013-03-05 19:04:00,
2013-03-05 14:05:00,35.4,20.4,29.09,North,11,3.1,4.5,54,0.00,,---,0.00,VWS V14.01,2013-03-05 19:05:00,
2013-03-05 14:06:00,35.4,20.4,29.09,NNW,329,3.1,6.7,54,0.00,,---,0.00,VWS V14.01,2013-03-05 19:06:00,
2013-03-05 14:07:00,35.6,20.6,29.09,NNE,17,3.6,4.9,54,0.00,,---,0.00,VWS V14.01,2013-03-05 19:07:00,
2013-03-05 14:08:00,35.8,20.8,29.09,NNW,337,0.0,5.4,54,0.00,,---,0.00,VWS V14.01,2013-03-05 19:08:00,
2013-03-05 14:09:00,35.8,20.3,29.09,North,351,3.1,4.5,53,0.00,,---,0.00,VWS V14.01,2013-03-05 19:09:00,
2013-03-05 14:10:00,35.2,19.8,29.09,North,356,5.4,7.4,53,0.00,,---,0.00,VWS V14.01,2013-03-05 19:10:00,
2013-03-05 14:11:00,34.7,18.9,29.09,North,351,4.0,6.9,52,0.00,,---,0.00,VWS V14.01,2013-03-05 19:11:00,
2013-03-05 14:12:00,34.5,19.2,29.09,NNW,341,4.9,6.3,53,0.00,,---,0.00,VWS V14.01,2013-03-05 19:12:00,
2013-03-05 14:13:00,34.3,19.0,29.09,North,8,3.6,6.3,53,0.00,,---,0.00,VWS V14.01,2013-03-05 19:13:00,
2013-03-05 14:14:00,34.7,19.8,29.09,NNE,14,4.0,5.4,54,0.00,,---,0.00,VWS V14.01,2013-03-05 19:14:00,
2013-03-05 14:15:00,35.1,20.1,29.09,NNE,21,4.0,6.7,54,0.00,,---,0.00,VWS V14.01,2013-03-05 19:15:00,
2013-03-05 14:16:00,35.2,20.3,29.09,North,351,6.3,6.3,54,0.00,,---,0.00,VWS V14.01,2013-03-05 19:16:00,
2013-03-05 14:17:00,34.7,19.3,29.09,NNW,330,5.4,6.9,53,0.00,,---,0.00,VWS V14.01,2013-03-05 19:17:00,
2013-03-05 14:18:00,34.7,19.3,29.09,NNW,330,3.1,5.4,53,0.00,,---,0.00,VWS V14.01,2013-03-05 19:18:00,
2013-03-05 14:19:00,34.3,19.0,29.09,NNW,342,4.5,6.9,53,0.00,,---,0.00,VWS V14.01,2013-03-05 19:19:00,
2013-03-05 14:20:00,34.2,19.3,29.09,North,5,4.5,7.4,54,0.00,,---,0.00,VWS V14.01,2013-03-05 19:20:00,
2013-03-05 14:21:00,34.3,19.9,29.09,North,5,0.0,4.5,55,0.00,,---,0.00,VWS V14.01,2013-03-05 19:21:00,
2013-03-05 14:22:00,34.5,20.5,29.09,NNW,345,4.9,5.8,56,0.00,,---,0.00,VWS V14.01,2013-03-05 19:22:00,
2013-03-05 14:23:00,34.7,20.6,29.09,NE,45,4.9,6.9,56,0.00,,---,0.00,VWS V14.01,2013-03-05 19:23:00,
2013-03-05 14:24:00,34.9,20.8,29.09,NNE,27,3.6,4.9,56,0.00,,---,0.00,VWS V14.01,2013-03-05 19:24:00,
2013-03-05 14:25:00,34.9,20.8,29.09,NNW,339,3.6,6.7,56,0.00,,---,0.00,VWS V14.01,2013-03-05 19:25:00,
2013-03-05 14:26:00,35.2,21.1,29.09,NNE,29,2.7,4.5,56,0.00,,---,0.00,VWS V14.01,2013-03-05 19:26:00,
2013-03-05 14:27:00,35.4,21.3,29.09,WNW,302,5.4,5.4,56,0.00,,---,0.00,VWS V14.01,2013-03-05 19:27:00,
2013-03-05 14:28:00,35.4,20.9,29.09,NNW,334,4.5,5.4,55,0.00,,---,0.00,VWS V14.01,2013-03-05 19:28:00,
2013-03-05 14:29:00,35.4,20.4,29.09,NE,37,4.0,5.8,54,0.00,,---,0.00,VWS V14.01,2013-03-05 19:29:00,
2013-03-05 14:30:00,35.2,20.3,29.09,NW,320,3.6,5.8,54,0.00,,---,0.00,VWS V14.01,2013-03-05 19:30:00,
2013-03-05 14:31:00,35.1,20.1,29.09,NNW,330,6.7,6.9,54,0.00,,---,0.00,VWS V14.01,2013-03-05 19:31:00,
2013-03-05 14:32:00,34.7,19.3,29.09,North,351,4.0,7.8,53,0.00,,---,0.00,VWS V14.01,2013-03-05 19:32:00,
2013-03-05 14:33:00,34.9,19.5,29.09,North,351,6.3,6.9,53,0.00,,---,0.00,VWS V14.01,2013-03-05 19:33:00,
2013-03-05 14:34:00,34.9,19.5,29.09,NW,325,3.1,6.3,53,0.00,,---,0.00,VWS V14.01,2013-03-05 19:34:00,
2013-03-05 14:35:00,35.1,19.7,29.09,NNW,331,4.5,4.9,53,0.00,,---,0.00,VWS V14.01,2013-03-05 19:35:00,
2013-03-05 14:36:00,35.1,19.7,29.09,NW,325,3.1,5.8,53,0.00,,---,0.00,VWS V14.01,2013-03-05 19:36:00,
2013-03-05 14:37:00,34.9,19.5,29.06,NW,324,5.8,6.7,53,0.00,,---,0.00,VWS V14.01,2013-03-05 19:37:00,
2013-03-05 14:38:00,34.7,19.8,29.06,NW,317,0.0,6.3,54,0.00,,---,0.00,VWS V14.01,2013-03-05 19:38:00,
2013-03-05 14:39:00,34.5,19.6,29.06,North,356,3.6,6.3,54,0.00,,---,0.00,VWS V14.01,2013-03-05 19:39:00,
2013-03-05 14:40:00,34.5,19.6,29.06,NW,323,5.8,7.4,54,0.00,,---,0.00,VWS V14.01,2013-03-05 19:40:00,
2013-03-05 14:41:00,34.3,19.4,29.06,NW,326,5.4,7.4,54,0.00,,---,0.00,VWS V14.01,2013-03-05 19:41:00,
2013-03-05 14:42:00,34.3,19.9,29.06,North,351,6.3,6.3,55,0.00,,---,0.00,VWS V14.01,2013-03-05 19:42:00,
2013-03-05 14:43:00,34.3,19.9,29.06,NNW,331,4.0,6.7,55,0.00,,---,0.00,VWS V14.01,2013-03-05 19:43:00,
2013-03-05 14:44:00,34.3,19.9,29.06,WNW,294,4.5,6.3,55,0.00,,---,0.00,VWS V14.01,2013-03-05 19:44:00,
2013-03-05 14:45:00,34.3,20.3,29.06,North,356,8.7,8.7,56,0.00,,---,0.00,VWS V14.01,2013-03-05 19:45:00,
2013-03-05 14:46:00,34.2,20.1,29.06,NNW,347,0.0,8.7,56,0.00,,---,0.00,VWS V14.01,2013-03-05 19:46:00,
2013-03-05 14:47:00,34.3,20.3,29.06,North,351,0.0,0.0,56,0.00,,---,0.00,VWS V14.01,2013-03-05 19:47:00,
2013-03-05 14:48:00,34.3,20.7,29.06,NNW,340,0.0,4.0,57,0.00,,---,0.00,VWS V14.01,2013-03-05 19:48:00,
2013-03-05 14:49:00,34.5,21.3,29.06,NNW,332,5.4,5.4,58,0.00,,---,0.00,VWS V14.01,2013-03-05 19:49:00,
2013-03-05 14:50:00,34.5,20.9,29.06,NNE,23,4.9,6.7,57,0.00,,---,0.00,VWS V14.01,2013-03-05 19:50:00,
2013-03-05 14:51:00,34.9,21.2,29.06,NNE,22,3.1,4.9,57,0.00,,---,0.00,VWS V14.01,2013-03-05 19:51:00,
2013-03-05 14:52:00,35.1,21.4,29.09,NNE,20,2.7,4.5,57,0.00,,---,0.00,VWS V14.01,2013-03-05 19:52:00,
2013-03-05 14:53:00,35.2,21.5,29.09,North,9,2.7,4.0,57,0.00,,---,0.00,VWS V14.01,2013-03-05 19:53:00,
2013-03-05 14:54:00,35.6,21.9,29.09,North,9,0.0,2.7,57,0.00,,---,0.00,VWS V14.01,2013-03-05 19:54:00,
2013-03-05 14:55:00,35.4,20.9,29.09,NNW,336,2.7,5.8,55,0.00,,---,0.00,VWS V14.01,2013-03-05 19:55:00,
2013-03-05 14:56:00,35.6,21.0,29.09,NNW,329,5.4,5.4,55,0.00,,---,0.00,VWS V14.01,2013-03-05 19:56:00,
2013-03-05 14:57:00,34.9,19.5,29.09,NNW,337,6.7,9.2,53,0.00,,---,0.00,VWS V14.01,2013-03-05 19:57:00,
2013-03-05 14:58:00,34.7,19.3,29.09,NNW,340,3.6,6.7,53,0.00,,---,0.00,VWS V14.01,2013-03-05 19:58:00,
2013-03-05 14:59:00,34.5,19.6,29.09,NW,322,5.8,6.9,54,0.00,,---,0.00,VWS V14.01,2013-03-05 19:59:00,
2013-03-05 15:00:00,34.5,19.6,29.09,NW,314,5.8,6.7,54,0.00,,---,0.00,VWS V14.01,2013-03-05 20:00:00,
2013-03-05 15:01:00,34.5,19.6,29.09,NW,325,3.6,6.7,54,0.00,,---,0.00,VWS V14.01,2013-03-05 20:01:00,
2013-03-05 15:02:00,34.5,19.6,29.09,North,351,4.9,5.4,54,0.00,,---,0.00,VWS V14.01,2013-03-05 20:02:00,
2013-03-05 15:03:00,34.5,20.0,29.09,NNW,329,4.5,6.9,55,0.00,,---,0.00,VWS V14.01,2013-03-05 20:03:00,
2013-03-05 15:04:00,34.5,20.0,29.09,NNW,341,4.9,4.9,55,0.00,,---,0.00,VWS V14.01,2013-03-05 20:04:00,
2013-03-05 15:05:00,34.5,20.0,29.09,NW,317,0.0,5.4,55,0.00,,---,0.00,VWS V14.01,2013-03-05 20:05:00,
2013-03-05 15:06:00,34.7,20.6,29.09,NNW,336,4.0,4.9,56,0.00,,---,0.00,VWS V14.01,2013-03-05 20:06:00,
2013-03-05 15:07:00,34.3,20.3,29.09,NW,314,6.9,8.3,56,0.00,,---,0.00,VWS V14.01,2013-03-05 20:07:00,
2013-03-05 15:08:00,34.3,19.9,29.09,NNW,329,6.3,7.4,55,0.00,,---,0.00,VWS V14.01,2013-03-05 20:08:00,
2013-03-05 15:09:00,34.0,19.5,29.09,NNW,330,5.8,9.2,55,0.00,,---,0.00,VWS V14.01,2013-03-05 20:09:00,
2013-03-05 15:10:00,34.0,20.0,29.09,NW,321,8.7,8.7,56,0.00,,---,0.00,VWS V14.01,2013-03-05 20:10:00,
2013-03-05 15:11:00,33.8,20.2,29.09,NNW,331,6.7,8.7,57,0.00,,---,0.00,VWS V14.01,2013-03-05 20:11:00,
2013-03-05 15:12:00,33.8,20.2,29.09,NW,321,7.8,11.0,57,0.00,,---,0.00,VWS V14.01,2013-03-05 20:12:00,
2013-03-05 15:13:00,33.6,20.0,29.09,NNW,342,6.9,8.7,57,0.00,,---,0.00,VWS V14.01,2013-03-05 20:13:00,
2013-03-05 15:14:00,33.6,20.0,29.09,NNW,336,6.7,8.7,57,0.00,,---,0.00,VWS V14.01,2013-03-05 20:14:00,
2013-03-05 15:15:00,33.6,20.4,29.09,NW,319,5.4,6.7,58,0.00,,---,0.00,VWS V14.01,2013-03-05 20:15:00,
2013-03-05 15:16:00,33.6,20.4,29.09,WNW,287,5.8,7.4,58,0.00,,---,0.00,VWS V14.01,2013-03-05 20:16:00,
2013-03-05 15:17:00,33.6,20.4,29.09,NNW,333,5.8,8.7,58,0.00,,---,0.00,VWS V14.01,2013-03-05 20:17:00,
2013-03-05 15:18:00,33.6,20.4,29.09,North,351,8.3,8.3,58,0.00,,---,0.00,VWS V14.01,2013-03-05 20:18:00,
2013-03-05 15:19:00,33.6,20.4,29.09,NW,326,4.9,8.3,58,0.00,,---,0.00,VWS V14.01,2013-03-05 20:19:00,
2013-03-05 15:20:00,33.8,20.6,29.09,WNW,294,5.8,8.3,58,0.00,,---,0.00,VWS V14.01,2013-03-05 20:20:00,
2013-03-05 15:21:00,33.8,20.6,29.09,NW,322,4.9,7.4,58,0.00,,---,0.00,VWS V14.01,2013-03-05 20:21:00,
2013-03-05 15:22:00,34.0,21.2,29.09,NNW,329,4.5,6.9,59,0.00,,---,0.00,VWS V14.01,2013-03-05 20:22:00,
2013-03-05 15:23:00,33.8,20.6,29.09,NW,311,6.3,6.9,58,0.00,,---,0.00,VWS V14.01,2013-03-05 20:23:00,
2013-03-05 15:24:00,34.0,21.2,29.09,NW,308,5.4,6.9,59,0.00,,---,0.00,VWS V14.01,2013-03-05 20:24:00,
2013-03-05 15:25:00,34.0,21.2,29.09,NW,323,6.3,7.4,59,0.00,,---,0.00,VWS V14.01,2013-03-05 20:25:00,
2013-03-05 15:26:00,33.8,21.0,29.09,NNW,347,6.7,6.7,59,0.00,,---,0.00,VWS V14.01,2013-03-05 20:26:00,
2013-03-05 15:27:00,33.8,20.6,29.09,NNW,327,6.7,7.4,58,0.00,,---,0.00,VWS V14.01,2013-03-05 20:27:00,
2013-03-05 15:28:00,33.8,20.2,29.09,NNW,347,5.8,8.3,57,0.00,,---,0.00,VWS V14.01,2013-03-05 20:28:00,
2013-03-05 15:29:00,33.8,20.6,29.09,NNW,338,2.7,6.7,58,0.00,,---,0.00,VWS V14.01,2013-03-05 20:29:00,
2013-03-05 15:30:00,34.0,20.8,29.09,North,351,3.1,4.5,58,0.00,,---,0.00,VWS V14.01,2013-03-05 20:30:00,
2013-03-05 15:31:00,34.2,21.3,29.09,NNW,330,3.6,6.3,59,0.00,,---,0.00,VWS V14.01,2013-03-05 20:31:00,
2013-03-05 15:32:00,34.3,21.5,29.09,North,0,0.0,5.8,59,0.00,,---,0.00,VWS V14.01,2013-03-05 20:32:00,
2013-03-05 15:33:00,34.3,21.5,29.09,NNW,339,4.0,4.5,59,0.00,,---,0.00,VWS V14.01,2013-03-05 20:33:00,
2013-03-05 15:34:00,34.5,21.7,29.09,NNW,336,5.8,5.8,59,0.00,,---,0.00,VWS V14.01,2013-03-05 20:34:00,
2013-03-05 15:35:00,34.3,21.1,29.09,NNW,334,2.7,6.9,58,0.00,,---,0.00,VWS V14.01,2013-03-05 20:35:00,
2013-03-05 15:36:00,34.5,21.3,29.09,NNE,24,4.5,4.5,58,0.00,,---,0.00,VWS V14.01,2013-03-05 20:36:00,
2013-03-05 15:37:00,34.7,21.5,29.09,NNW,347,4.0,4.9,58,0.00,,---,0.00,VWS V14.01,2013-03-05 20:37:00,
2013-03-05 15:38:00,34.7,21.5,29.09,NNW,329,6.7,6.9,58,0.00,,---,0.00,VWS V14.01,2013-03-05 20:38:00,
2013-03-05 15:39:00,34.7,21.0,29.09,NNW,330,0.0,6.7,57,0.00,,---,0.00,VWS V14.01,2013-03-05 20:39:00,
2013-03-05 15:40:00,34.7,21.0,29.09,NNW,336,3.1,5.8,57,0.00,,---,0.00,VWS V14.01,2013-03-05 20:40:00,
2013-03-05 15:41:00,34.7,20.6,29.09,NNW,337,2.7,4.9,56,0.00,,---,0.00,VWS V14.01,2013-03-05 20:41:00,
2013-03-05 15:42:00,34.7,20.6,29.09,NNW,335,4.5,6.3,56,0.00,,---,0.00,VWS V14.01,2013-03-05 20:42:00,
2013-03-05 15:43:00,34.5,20.5,29.09,NW,321,6.3,7.4,56,0.00,,---,0.00,VWS V14.01,2013-03-05 20:43:00,
2013-03-05 15:44:00,34.5,20.0,29.09,NW,325,2.7,6.3,55,0.00,,---,0.00,VWS V14.01,2013-03-05 20:44:00,
2013-03-05 15:45:00,34.7,20.6,29.09,NW,325,3.1,4.9,56,0.00,,---,0.00,VWS V14.01,2013-03-05 20:45:00,
2013-03-05 15:47:00,34.7,20.6,29.09,NNW,333,7.4,7.4,56,0.00,,---,0.00,VWS V14.01,2013-03-05 20:47:00,
2013-03-05 15:48:00,34.5,20.5,29.09,NNW,327,6.3,7.4,56,0.00,,---,0.00,VWS V14.01,2013-03-05 20:48:00,
2013-03-05 15:49:00,34.3,19.9,29.09,North,351,5.4,7.8,55,0.00,,---,0.00,VWS V14.01,2013-03-05 20:49:00,
2013-03-05 15:50:00,34.3,20.3,29.09,NNW,331,6.7,7.8,56,0.00,,---,0.00,VWS V14.01,2013-03-05 20:50:00,
2013-03-05 15:51:00,34.3,20.3,29.09,NW,323,4.0,6.7,56,0.00,,---,0.00,VWS V14.01,2013-03-05 20:51:00,
2013-03-05 15:52:00,34.3,20.3,29.09,WNW,290,5.8,6.9,56,0.00,,---,0.00,VWS V14.01,2013-03-05 20:52:00,
2013-03-05 15:53:00,34.2,20.1,29.09,NNW,335,3.6,7.4,56,0.00,,---,0.00,VWS V14.01,2013-03-05 20:53:00,
2013-03-05 15:54:00,34.5,20.5,29.09,NW,325,5.4,5.4,56,0.00,,---,0.00,VWS V14.01,2013-03-05 20:54:00,
2013-03-05 15:55:00,34.3,20.7,29.09,NNW,337,5.8,5.8,57,0.00,,---,0.00,VWS V14.01,2013-03-05 20:55:00,
2013-03-05 15:56:00,34.3,20.7,29.09,NW,306,6.7,6.9,57,0.00,,---,0.00,VWS V14.01,2013-03-05 20:56:00,
2013-03-05 15:57:00,34.3,20.7,29.09,NW,318,5.4,6.9,57,0.00,,---,0.00,VWS V14.01,2013-03-05 20:57:00,
2013-03-05 15:58:00,34.3,20.3,29.09,NNW,331,5.4,5.8,56,0.00,,---,0.00,VWS V14.01,2013-03-05 20:58:00,
2013-03-05 15:59:00,34.2,20.1,29.09,NNW,331,7.4,7.4,56,0.00,,---,0.00,VWS V14.01,2013-03-05 20:59:00,
2013-03-05 16:00:00,34.0,20.0,29.09,NNW,332,7.8,7.8,56,0.00,,---,0.00,VWS V14.01,2013-03-05 21:00:00,
2013-03-05 16:02:00,33.8,20.2,29.09,NNW,331,4.9,8.7,57,0.00,,---,0.00,VWS V14.01,2013-03-05 21:02:00,
2013-03-05 16:03:00,33.8,20.2,29.09,NNW,331,4.9,4.9,57,0.00,,---,0.00,VWS V14.01,2013-03-05 21:03:00,
2013-03-05 16:04:00,34.0,20.8,29.09,North,356,3.6,5.8,58,0.00,,---,0.00,VWS V14.01,2013-03-05 21:04:00,
2013-03-05 16:05:00,34.0,20.8,29.09,NW,322,4.0,4.5,58,0.00,,---,0.00,VWS V14.01,2013-03-05 21:05:00,
2013-03-05 16:06:00,34.0,20.8,29.09,NNW,330,0.0,4.9,58,0.00,,---,0.00,VWS V14.01,2013-03-05 21:06:00,
2013-03-05 16:07:00,34.0,20.8,29.09,NNW,333,5.4,6.9,58,0.00,,---,0.00,VWS V14.01,2013-03-05 21:07:00,
2013-03-05 16:08:00,34.2,20.9,29.09,NW,323,5.4,6.9,58,0.00,,---,0.00,VWS V14.01,2013-03-05 21:08:00,
2013-03-05 16:09:00,34.0,20.8,29.09,NNW,328,6.9,7.4,58,0.00,,---,0.00,VWS V14.01,2013-03-05 21:09:00,
2013-03-05 16:10:00,34.0,20.4,29.09,NW,322,5.4,6.9,57,0.00,,---,0.00,VWS V14.01,2013-03-05 21:10:00,
2013-03-05 16:11:00,34.0,20.4,29.09,NNW,329,6.9,6.9,57,0.00,,---,0.00,VWS V14.01,2013-03-05 21:11:00,
2013-03-05 16:12:00,34.0,20.8,29.09,NNW,342,5.4,6.9,58,0.00,,---,0.00,VWS V14.01,2013-03-05 21:12:00,
2013-03-05 16:13:00,34.2,20.9,29.09,NW,325,4.0,5.8,58,0.00,,---,0.00,VWS V14.01,2013-03-05 21:13:00,
2013-03-05 16:14:00,34.3,21.1,29.09,NW,306,6.3,6.7,58,0.00,,---,0.00,VWS V14.01,2013-03-05 21:14:00,
2013-03-05 16:15:00,34.2,20.9,29.09,NNW,327,6.7,6.9,58,0.00,,---,0.00,VWS V14.01,2013-03-05 21:15:00,
2013-03-05 16:16:00,34.0,20.4,29.09,NW,326,5.4,6.7,57,0.00,,---,0.00,VWS V14.01,2013-03-05 21:16:00,
2013-03-05 16:17:00,34.2,20.5,29.09,NW,306,7.4,7.4,57,0.00,,---,0.00,VWS V14.01,2013-03-05 21:17:00,
2013-03-05 16:18:00,34.0,20.4,29.09,North,351,4.0,8.3,57,0.00,,---,0.00,VWS V14.01,2013-03-05 21:18:00,
2013-03-05 16:19:00,34.2,20.9,29.09,WNW,303,5.8,6.9,58,0.00,,---,0.00,VWS V14.01,2013-03-05 21:19:00,
2013-03-05 16:20:00,34.2,20.9,29.09,NNW,330,4.5,5.8,58,0.00,,---,0.00,VWS V14.01,2013-03-05 21:20:00,
2013-03-05 16:21:00,34.2,20.9,29.09,NNW,333,4.5,6.3,58,0.00,,---,0.00,VWS V14.01,2013-03-05 21:21:00,
2013-03-05 16:22:00,34.2,20.9,29.09,NW,323,5.8,6.9,58,0.00,,---,0.00,VWS V14.01,2013-03-05 21:22:00,
2013-03-05 16:23:00,34.2,20.9,29.09,NNW,341,6.7,7.8,58,0.00,,---,0.00,VWS V14.01,2013-03-05 21:23:00,
2013-03-05 16:24:00,34.0,20.4,29.09,NW,312,6.3,9.6,57,0.00,,---,0.00,VWS V14.01,2013-03-05 21:24:00,
2013-03-05 16:25:00,34.0,20.4,29.09,NW,324,4.5,6.7,57,0.00,,---,0.00,VWS V14.01,2013-03-05 21:25:00,
2013-03-05 16:26:00,34.0,20.4,29.09,NNW,330,5.8,5.8,57,0.00,,---,0.00,VWS V14.01,2013-03-05 21:26:00,
2013-03-05 16:27:00,34.0,20.8,29.09,NNW,334,7.8,7.8,58,0.00,,---,0.00,VWS V14.01,2013-03-05 21:27:00,
2013-03-05 16:28:00,34.0,20.4,29.09,NNW,336,6.7,7.8,57,0.00,,---,0.00,VWS V14.01,2013-03-05 21:28:00,
2013-03-05 16:29:00,34.0,20.8,29.09,NW,304,6.7,6.7,58,0.00,,---,0.00,VWS V14.01,2013-03-05 21:29:00,
2013-03-05 16:30:00,34.0,20.8,29.09,NW,322,6.3,6.7,58,0.00,,---,0.00,VWS V14.01,2013-03-05 21:30:00,
2013-03-05 16:31:00,33.8,20.2,29.09,NW,308,5.8,8.7,57,0.00,,---,0.00,VWS V14.01,2013-03-05 21:31:00,
2013-03-05 16:32:00,34.0,20.4,29.09,NW,324,5.8,6.3,57,0.00,,---,0.00,VWS V14.01,2013-03-05 21:32:00,
2013-03-05 16:33:00,34.0,20.8,29.09,NW,307,4.9,6.7,58,0.00,,---,0.00,VWS V14.01,2013-03-05 21:33:00,
2013-03-05 16:34:00,34.0,20.8,29.09,NNW,333,4.9,7.4,58,0.00,,---,0.00,VWS V14.01,2013-03-05 21:34:00,
2013-03-05 16:35:00,34.0,20.8,29.09,NNW,329,7.4,7.4,58,0.00,,---,0.00,VWS V14.01,2013-03-05 21:35:00,
2013-03-05 16:36:00,34.0,20.4,29.09,NNW,335,4.5,7.4,57,0.00,,---,0.00,VWS V14.01,2013-03-05 21:36:00,
2013-03-05 16:37:00,34.0,20.8,29.09,NNW,338,5.8,5.8,58,0.00,,---,0.00,VWS V14.01,2013-03-05 21:37:00,
2013-03-05 16:43:00,33.8,20.2,29.09,NW,324,5.4,6.7,57,0.00,,---,0.00,VWS V14.01,2013-03-05 21:43:00,
2013-03-05 16:44:00,33.8,20.2,29.09,NNW,335,5.8,9.2,57,0.00,,---,0.00,VWS V14.01,2013-03-05 21:44:00,
2013-03-05 16:45:00,33.8,20.2,29.09,NNW,339,4.5,6.3,57,0.00,,---,0.00,VWS V14.01,2013-03-05 21:45:00,
2013-03-05 16:46:00,34.0,20.8,29.09,NNW,327,3.1,5.8,58,0.00,,---,0.00,VWS V14.01,2013-03-05 21:46:00,
2013-03-05 16:47:00,34.0,21.2,29.09,NW,323,4.9,6.7,59,0.00,,---,0.00,VWS V14.01,2013-03-05 21:47:00,
2013-03-05 16:48:00,34.0,21.2,29.09,NW,309,4.9,4.9,59,0.00,,---,0.00,VWS V14.01,2013-03-05 21:48:00,
2013-03-05 16:49:00,34.2,21.3,29.09,NW,307,5.4,5.4,59,0.00,,---,0.00,VWS V14.01,2013-03-05 21:49:00,
2013-03-05 16:50:00,34.3,21.5,29.09,NW,310,4.5,5.4,59,0.00,,---,0.00,VWS V14.01,2013-03-05 21:50:00,
2013-03-05 16:51:00,34.3,21.5,29.09,NW,326,6.3,6.7,59,0.00,,---,0.00,VWS V14.01,2013-03-05 21:51:00,
2013-03-05 16:52:00,34.2,21.3,29.09,NW,320,4.9,6.3,59,0.00,,---,0.00,VWS V14.01,2013-03-05 21:52:00,
2013-03-05 16:53:00,34.2,20.9,29.09,NNW,338,7.4,7.4,58,0.00,,---,0.00,VWS V14.01,2013-03-05 21:53:00,
2013-03-05 16:54:00,34.0,20.4,29.09,NW,318,5.4,7.4,57,0.00,,---,0.00,VWS V14.01,2013-03-05 21:54:00,
2013-03-05 16:55:00,34.0,20.4,29.09,NNW,339,4.0,6.9,57,0.00,,---,0.00,VWS V14.01,2013-03-05 21:55:00,
2013-03-05 16:57:00,34.0,20.8,29.09,NNW,341,6.7,6.7,58,0.00,,---,0.00,VWS V14.01,2013-03-05 21:57:00,
2013-03-05 16:58:00,34.0,20.4,29.09,NNW,338,4.9,6.7,57,0.00,,---,0.00,VWS V14.01,2013-03-05 21:58:00,
2013-03-05 16:59:00,34.0,20.4,29.09,NNW,331,7.4,7.4,57,0.00,,---,0.00,VWS V14.01,2013-03-05 21:59:00,
2013-03-05 17:00:00,34.0,20.4,29.09,NNW,339,3.1,7.4,57,0.00,,---,0.00,VWS V14.01,2013-03-05 22:00:00,
2013-03-05 17:01:00,33.8,20.2,29.09,NNW,342,4.9,8.7,57,0.00,,---,0.00,VWS V14.01,2013-03-05 22:01:00,
2013-03-05 17:02:00,33.8,20.6,29.09,NNW,339,6.7,7.8,58,0.00,,---,0.00,VWS V14.01,2013-03-05 22:02:00,
2013-03-05 17:03:00,33.8,20.2,29.09,North,351,6.7,6.9,57,0.00,,---,0.00,VWS V14.01,2013-03-05 22:03:00,
2013-03-05 17:04:00,33.8,20.2,29.09,NNW,333,6.7,7.8,57,0.00,,---,0.00,VWS V14.01,2013-03-05 22:04:00,
2013-03-05 17:05:00,33.6,20.0,29.09,NNW,336,6.9,8.3,57,0.00,,---,0.00,VWS V14.01,2013-03-05 22:05:00,
2013-03-05 17:06:00,33.6,20.0,29.09,NNW,327,5.4,6.9,57,0.00,,---,0.00,VWS V14.01,2013-03-05 22:06:00,
2013-03-05 17:07:00,33.6,20.4,29.09,NW,320,6.7,7.4,58,0.00,,---,0.00,VWS V14.01,2013-03-05 22:07:00,
2013-03-05 17:08:00,33.6,20.4,29.09,NNW,341,6.3,7.8,58,0.00,,---,0.00,VWS V14.01,2013-03-05 22:08:00,
2013-03-05 17:09:00,33.6,20.4,29.09,NNW,333,6.7,9.2,58,0.00,,---,0.00,VWS V14.01,2013-03-05 22:09:00,
2013-03-05 17:10:00,33.6,20.0,29.09,NNW,329,10.1,11.0,57,0.00,,---,0.00,VWS V14.01,2013-03-05 22:10:00,
2013-03-05 17:11:00,33.4,19.9,29.09,NNW,339,6.3,10.1,57,0.00,,---,0.00,VWS V14.01,2013-03-05 22:11:00,
2013-03-05 17:12:00,33.6,20.0,29.09,NW,318,4.5,6.7,57,0.00,,---,0.00,VWS V14.01,2013-03-05 22:12:00,
2013-03-05 17:13:00,33.6,20.4,29.09,NW,318,5.8,6.7,58,0.00,,---,0.00,VWS V14.01,2013-03-05 22:13:00,
2013-03-05 17:14:00,33.6,20.4,29.09,NNW,332,6.7,9.2,58,0.00,,---,0.00,VWS V14.01,2013-03-05 22:14:00,
2013-03-05 17:15:00,32.9,31.6,28.59,ESE,106,3.6,5.4,95,0.00,,---,0.04,VWS V14.01,2013-03-05 22:15:00,
2013-03-05 17:16:00,33.6,20.4,29.09,West,281,5.4,6.3,58,0.00,,---,0.00,VWS V14.01,2013-03-05 22:16:00,
2013-03-05 17:17:00,33.8,21.0,29.09,NW,318,4.9,5.8,59,0.00,,---,0.00,VWS V14.01,2013-03-05 22:17:00,
2013-03-05 17:18:00,33.6,20.8,29.09,NW,311,4.5,7.8,59,0.00,,---,0.00,VWS V14.01,2013-03-05 22:18:00,
2013-03-05 17:19:00,33.8,21.0,29.09,NW,308,4.9,6.7,59,0.00,,---,0.00,VWS V14.01,2013-03-05 22:19:00,
2013-03-05 17:20:00,32.7,31.5,28.59,East,94,0.0,0.0,95,0.00,,---,0.04,VWS V14.01,2013-03-05 22:20:00,
2013-03-05 17:21:00,33.8,21.0,29.09,NNW,347,2.7,6.7,59,0.00,,---,0.00,VWS V14.01,2013-03-05 22:21:00,
2013-03-05 17:22:00,33.8,21.0,29.12,NNW,336,4.9,5.8,59,0.00,,---,0.00,VWS V14.01,2013-03-05 22:22:00,
2013-03-05 17:23:00,33.8,21.0,29.12,NNW,327,4.0,6.3,59,0.00,,---,0.00,VWS V14.01,2013-03-05 22:23:00,
2013-03-05 17:24:00,33.8,21.4,29.12,NW,324,4.5,4.5,60,0.00,,---,0.00,VWS V14.01,2013-03-05 22:24:00,
2013-03-05 17:25:00,32.7,31.5,28.59,East,98,0.0,0.0,95,0.00,,---,0.04,VWS V14.01,2013-03-05 22:25:00,
2013-03-05 17:26:00,34.0,22.0,29.12,NW,323,4.0,4.0,61,0.00,,---,0.00,VWS V14.01,2013-03-05 22:26:00,
2013-03-05 17:27:00,34.0,22.0,29.12,NNW,330,4.9,5.8,61,0.00,,---,0.00,VWS V14.01,2013-03-05 22:27:00,
2013-03-05 17:28:00,34.0,21.6,29.12,NNW,332,6.9,6.9,60,0.00,,---,0.00,VWS V14.01,2013-03-05 22:28:00,
2013-03-05 17:29:00,34.0,21.2,29.12,NNW,332,4.5,6.9,59,0.00,,---,0.00,VWS V14.01,2013-03-05 22:29:00,
2013-03-05 17:30:00,32.7,31.5,28.61,ENE,68,0.0,0.0,95,0.00,,---,0.04,VWS V14.01,2013-03-05 22:30:00,
2013-03-05 17:31:00,33.8,21.0,29.12,NNW,332,6.7,6.7,59,0.00,,---,0.00,VWS V14.01,2013-03-05 22:31:00,
2013-03-05 17:32:00,33.8,20.6,29.12,NNW,335,5.4,8.3,58,0.00,,---,0.00,VWS V14.01,2013-03-05 22:32:00,
2013-03-05 17:33:00,33.8,20.6,29.12,NNW,333,4.5,5.4,58,0.00,,---,0.00,VWS V14.01,2013-03-05 22:33:00,
2013-03-05 17:34:00,33.8,20.6,29.12,NNW,330,4.5,4.9,58,0.00,,---,0.00,VWS V14.01,2013-03-05 22:34:00,
2013-03-05 17:35:00,32.9,31.9,28.61,ENE,73,0.0,0.0,96,0.00,,---,0.04,VWS V14.01,2013-03-05 22:35:00,
2013-03-05 17:36:00,33.6,20.4,29.12,North,351,5.4,6.9,58,0.00,,---,0.00,VWS V14.01,2013-03-05 22:36:00,
2013-03-05 17:37:00,33.6,20.4,29.12,NNW,333,4.9,5.8,58,0.00,,---,0.00,VWS V14.01,2013-03-05 22:37:00,
2013-03-05 17:38:00,33.8,21.0,29.12,NNW,330,3.1,5.4,59,0.00,,---,0.00,VWS V14.01,2013-03-05 22:38:00,
2013-03-05 17:39:00,33.8,21.0,29.12,NNW,330,4.5,4.9,59,0.00,,---,0.00,VWS V14.01,2013-03-05 22:39:00,
2013-03-05 17:40:00,33.8,21.0,29.12,NNW,328,6.3,6.3,59,0.00,,---,0.00,VWS V14.01,2013-03-05 22:40:00,
2013-03-05 17:41:00,32.7,31.7,28.61,ENE,69,0.0,0.0,96,0.00,,---,0.04,VWS V14.01,2013-03-05 22:41:00,
2013-03-05 17:42:00,33.8,21.0,29.12,NW,320,4.9,5.8,59,0.00,,---,0.00,VWS V14.01,2013-03-05 22:42:00,
2013-03-05 17:43:00,33.8,21.0,29.12,NW,316,4.5,5.8,59,0.00,,---,0.00,VWS V14.01,2013-03-05 22:43:00,
2013-03-05 17:44:00,33.8,21.0,29.12,NNW,328,4.9,6.3,59,0.00,,---,0.00,VWS V14.01,2013-03-05 22:44:00,
2013-03-05 17:45:00,33.8,21.0,29.12,NW,319,7.8,7.8,59,0.00,,---,0.00,VWS V14.01,2013-03-05 22:45:00,
2013-03-05 17:46:00,33.6,20.8,29.12,NNW,336,3.6,7.8,59,0.00,,---,0.00,VWS V14.01,2013-03-05 22:46:00,
2013-03-05 17:47:00,32.7,31.7,28.61,ENE,64,0.0,0.0,96,0.00,,---,0.04,VWS V14.01,2013-03-05 22:47:00,
2013-03-05 17:48:00,33.6,20.8,29.12,NW,315,4.9,5.8,59,0.00,,---,0.00,VWS V14.01,2013-03-05 22:48:00,
2013-03-05 17:49:00,33.6,20.4,29.12,NNW,340,3.6,6.3,58,0.00,,---,0.00,VWS V14.01,2013-03-05 22:49:00,
2013-03-05 17:50:00,33.6,20.4,29.12,NNW,329,4.5,4.5,58,0.00,,---,0.00,VWS V14.01,2013-03-05 22:50:00,
2013-03-05 17:51:00,33.6,20.8,29.12,NW,312,4.9,5.4,59,0.00,,---,0.00,VWS V14.01,2013-03-05 22:51:00,
2013-03-05 17:52:00,33.6,20.8,29.12,NW,312,3.6,5.8,59,0.00,,---,0.00,VWS V14.01,2013-03-05 22:52:00,
2013-03-05 17:53:00,33.6,20.8,29.12,NNW,341,3.6,6.3,59,0.00,,---,0.00,VWS V14.01,2013-03-05 22:53:00,
2013-03-05 17:54:00,33.6,20.8,29.12,NNW,328,5.8,8.3,59,0.00,,---,0.00,VWS V14.01,2013-03-05 22:54:00,
2013-03-05 17:55:00,33.6,20.8,29.12,NNW,328,5.4,6.3,59,0.00,,---,0.00,VWS V14.01,2013-03-05 22:55:00,
2013-03-05 17:56:00,33.4,20.3,29.12,NNW,331,6.7,10.5,58,0.00,,---,0.00,VWS V14.01,2013-03-05 22:56:00,
2013-03-05 17:57:00,33.4,20.3,29.12,NNW,330,4.9,10.5,58,0.00,,---,0.00,VWS V14.01,2013-03-05 22:57:00,
2013-03-05 17:58:00,33.4,20.7,29.12,NNW,338,5.4,7.8,59,0.00,,---,0.00,VWS V14.01,2013-03-05 22:58:00,
2013-03-05 17:59:00,33.3,20.5,29.12,NW,323,7.8,8.7,59,0.00,,---,0.00,VWS V14.01,2013-03-05 22:59:00,
2013-03-05 18:00:00,33.3,20.1,29.12,NNW,336,5.8,7.8,58,0.00,,---,0.00,VWS V14.01,2013-03-05 23:00:00,
2013-03-05 18:01:00,33.3,20.1,29.12,NNW,339,8.3,8.7,58,0.00,,---,0.00,VWS V14.01,2013-03-05 23:01:00,
2013-03-05 18:02:00,33.3,20.1,29.12,NW,324,5.4,8.3,58,0.00,,---,0.00,VWS V14.01,2013-03-05 23:02:00,
2013-03-05 18:03:00,33.3,20.1,29.12,NNW,332,5.8,6.9,58,0.00,,---,0.00,VWS V14.01,2013-03-05 23:03:00,
2013-03-05 18:04:00,33.3,20.1,29.12,NNW,336,6.7,7.4,58,0.00,,---,0.00,VWS V14.01,2013-03-05 23:04:00,
2013-03-05 18:05:00,33.3,20.1,29.12,NW,317,4.9,7.8,58,0.00,,---,0.00,VWS V14.01,2013-03-05 23:05:00,
2013-03-05 18:06:00,33.3,20.1,29.12,NW,322,4.9,7.4,58,0.00,,---,0.00,VWS V14.01,2013-03-05 23:06:00,
2013-03-05 18:07:00,33.3,20.1,29.12,NW,322,4.5,7.4,58,0.00,,---,0.00,VWS V14.01,2013-03-05 23:07:00,
2013-03-05 18:08:00,33.3,20.1,29.12,NW,321,4.9,6.3,58,0.00,,---,0.00,VWS V14.01,2013-03-05 23:08:00,
2013-03-05 18:09:00,33.3,20.1,29.12,NNW,341,6.7,6.7,58,0.00,,---,0.00,VWS V14.01,2013-03-05 23:09:00,
2013-03-05 18:10:00,33.3,20.1,29.12,NNW,347,6.3,6.7,58,0.00,,---,0.00,VWS V14.01,2013-03-05 23:10:00,
2013-03-05 18:11:00,33.3,20.1,29.12,NW,323,6.9,7.8,58,0.00,,---,0.00,VWS V14.01,2013-03-05 23:11:00,
2013-03-05 18:12:00,33.3,20.1,29.12,NNW,332,4.5,6.9,58,0.00,,---,0.00,VWS V14.01,2013-03-05 23:12:00,
2013-03-05 18:13:00,33.3,20.5,29.12,NW,325,5.4,5.4,59,0.00,,---,0.00,VWS V14.01,2013-03-05 23:13:00,
2013-03-05 18:14:00,33.3,20.5,29.12,NNW,327,3.1,6.7,59,0.00,,---,0.00,VWS V14.01,2013-03-05 23:14:00,
2013-03-05 18:15:00,33.3,20.9,29.12,NNW,329,4.5,5.8,60,0.00,,---,0.00,VWS V14.01,2013-03-05 23:15:00,
2013-03-05 18:16:00,33.3,20.9,29.12,NW,322,3.6,6.3,60,0.00,,---,0.00,VWS V14.01,2013-03-05 23:16:00,
2013-03-05 18:17:00,33.3,20.9,29.12,NNW,331,4.5,6.3,60,0.00,,---,0.00,VWS V14.01,2013-03-05 23:17:00,
2013-03-05 18:18:00,32.5,31.8,28.61,ENE,64,0.0,0.0,97,0.00,,---,0.04,VWS V14.01,2013-03-05 23:18:00,
2013-03-05 18:19:00,33.3,20.9,29.12,NNW,330,3.1,7.4,60,0.00,,---,0.00,VWS V14.01,2013-03-05 23:19:00,
2013-03-05 18:20:00,33.3,20.9,29.12,NNW,342,6.9,6.9,60,0.00,,---,0.00,VWS V14.01,2013-03-05 23:20:00,
2013-03-05 18:21:00,33.3,20.9,29.12,NNW,338,6.3,6.9,60,0.00,,---,0.00,VWS V14.01,2013-03-05 23:21:00,
2013-03-05 18:22:00,33.1,20.7,29.12,NNW,330,4.5,7.8,60,0.00,,---,0.00,VWS V14.01,2013-03-05 23:22:00,
2013-03-05 18:23:00,32.5,31.8,28.61,NE,56,0.0,0.0,97,0.00,,---,0.04,VWS V14.01,2013-03-05 23:23:00,
2013-03-05 18:24:00,33.1,20.7,29.12,NNW,340,5.4,6.9,60,0.00,,---,0.00,VWS V14.01,2013-03-05 23:24:00,
2013-03-05 18:25:00,33.1,20.7,29.12,NNW,328,4.5,6.3,60,0.00,,---,0.00,VWS V14.01,2013-03-05 23:25:00,
2013-03-05 18:26:00,33.1,21.1,29.12,NNW,329,3.1,4.5,61,0.00,,---,0.00,VWS V14.01,2013-03-05 23:26:00,
2013-03-05 18:27:00,33.3,21.3,29.12,NNW,331,4.5,4.9,61,0.00,,---,0.00,VWS V14.01,2013-03-05 23:27:00,
2013-03-05 18:28:00,32.5,31.8,28.61,ENE,59,0.0,0.0,97,0.00,,---,0.04,VWS V14.01,2013-03-05 23:28:00,
2013-03-05 18:29:00,33.1,21.5,29.12,NNW,328,2.7,4.5,62,0.00,,---,0.00,VWS V14.01,2013-03-05 23:29:00,
2013-03-05 18:30:00,33.1,21.5,29.12,NNW,332,4.5,6.3,62,0.00,,---,0.00,VWS V14.01,2013-03-05 23:30:00,
2013-03-05 18:31:00,33.1,21.5,29.12,NNW,332,2.7,4.5,62,0.00,,---,0.00,VWS V14.01,2013-03-05 23:31:00,
2013-03-05 18:32:00,33.1,21.5,29.12,NNW,331,4.5,4.9,62,0.00,,---,0.00,VWS V14.01,2013-03-05 23:32:00,
2013-03-05 18:33:00,33.1,21.5,29.12,NNW,335,4.0,4.9,62,0.00,,---,0.00,VWS V14.01,2013-03-05 23:33:00,
2013-03-05 18:34:00,32.5,31.8,28.61,ENE,60,0.0,0.0,97,0.00,,---,0.04,VWS V14.01,2013-03-05 23:34:00,
2013-03-05 18:35:00,33.1,21.5,29.12,NNW,328,0.0,5.4,62,0.00,,---,0.00,VWS V14.01,2013-03-05 23:35:00,
2013-03-05 18:36:00,33.1,21.5,29.12,NNW,328,4.5,4.5,62,0.00,,---,0.00,VWS V14.01,2013-03-05 23:36:00,
2013-03-05 18:37:00,33.1,21.5,29.12,NNW,340,4.5,6.3,62,0.00,,---,0.00,VWS V14.01,2013-03-05 23:37:00,
2013-03-05 18:38:00,33.1,21.5,29.12,NNW,334,5.8,5.8,62,0.00,,---,0.00,VWS V14.01,2013-03-05 23:38:00,
2013-03-05 18:39:00,33.1,21.5,29.12,NNW,334,4.0,5.8,62,0.00,,---,0.00,VWS V14.01,2013-03-05 23:39:00,
2013-03-05 18:40:00,33.1,21.5,29.12,NNW,332,5.4,6.7,62,0.00,,---,0.00,VWS V14.01,2013-03-05 23:40:00,
2013-03-05 18:41:00,33.1,21.9,29.12,NNW,334,3.6,5.4,63,0.00,,---,0.00,VWS V14.01,2013-03-05 23:41:00,
2013-03-05 18:42:00,33.1,21.9,29.12,NW,323,4.0,4.9,63,0.00,,---,0.00,VWS V14.01,2013-03-05 23:42:00,
2013-03-05 18:43:00,32.4,31.6,28.61,NE,48,0.0,0.0,97,0.00,,---,0.04,VWS V14.01,2013-03-05 23:43:00,
2013-03-05 18:44:00,33.1,21.9,29.12,NNW,328,4.9,6.3,63,0.00,,---,0.00,VWS V14.01,2013-03-05 23:44:00,
2013-03-05 18:45:00,33.1,21.9,29.12,NNW,327,4.0,7.4,63,0.00,,---,0.00,VWS V14.01,2013-03-05 23:45:00,
2013-03-05 18:46:00,33.1,21.9,29.12,NNW,328,5.4,5.8,63,0.00,,---,0.00,VWS V14.01,2013-03-05 23:46:00,
2013-03-05 18:47:00,32.9,21.7,29.12,NW,317,3.1,6.3,63,0.00,,---,0.00,VWS V14.01,2013-03-05 23:47:00,
2013-03-05 18:48:00,32.9,21.3,29.12,NNW,328,3.1,5.8,62,0.00,,---,0.00,VWS V14.01,2013-03-05 23:48:00,
2013-03-05 18:49:00,33.1,21.5,29.12,NNW,328,5.8,5.8,62,0.00,,---,0.00,VWS V14.01,2013-03-05 23:49:00,
2013-03-05 18:50:00,32.9,21.3,29.12,NNW,328,4.0,5.8,62,0.00,,---,0.00,VWS V14.01,2013-03-05 23:50:00,
2013-03-05 18:51:00,32.5,31.8,28.61,NE,48,0.0,0.0,97,0.00,,---,0.04,VWS V14.01,2013-03-05 23:51:00,
2013-03-05 18:52:00,33.1,21.9,29.12,NNW,328,2.7,3.6,63,0.00,,---,0.00,VWS V14.01,2013-03-05 23:52:00,
2013-03-05 18:53:00,33.1,21.9,29.12,NNW,328,3.1,3.6,63,0.00,,---,0.00,VWS V14.01,2013-03-05 23:53:00,
2013-03-05 18:54:00,33.1,21.9,29.12,NNW,328,2.7,4.0,63,0.00,,---,0.00,VWS V14.01,2013-03-05 23:54:00,
2013-03-05 18:55:00,33.1,22.2,29.12,NNW,328,0.0,3.6,64,0.00,,---,0.00,VWS V14.01,2013-03-05 23:55:00,
2013-03-05 18:56:00,33.1,22.2,29.12,NNW,328,0.0,0.0,64,0.00,,---,0.00,VWS V14.01,2013-03-05 23:56:00,
2013-03-05 18:57:00,33.1,22.2,29.12,NNW,328,4.5,4.5,64,0.00,,---,0.00,VWS V14.01,2013-03-05 23:57:00,
2013-03-05 18:58:00,33.1,22.2,29.12,NNW,328,0.0,4.5,64,0.00,,---,0.00,VWS V14.01,2013-03-05 23:58:00,
2013-03-05 18:59:00,33.1,22.2,29.12,North,351,5.4,5.4,64,0.00,,---,0.00,VWS V14.01,2013-03-05 23:59:00,
2013-03-05 19:00:00,33.1,22.2,29.12,West,277,4.9,6.9,64,0.00,,---,0.00,VWS V14.01,2013-03-06 00:00:00,
2013-03-05 19:01:00,33.1,22.2,29.12,West,278,3.1,4.9,64,0.00,,---,0.00,VWS V14.01,2013-03-06 00:01:00,
2013-03-05 19:02:00,32.9,22.1,29.12,WNW,287,4.0,5.4,64,0.00,,---,0.00,VWS V14.01,2013-03-06 00:02:00,
2013-03-05 19:03:00,32.9,22.1,29.12,WNW,289,4.5,4.9,64,0.00,,---,0.00,VWS V14.01,2013-03-06 00:03:00,
2013-03-05 19:04:00,32.9,22.1,29.12,WNW,290,2.7,4.5,64,0.00,,---,0.00,VWS V14.01,2013-03-06 00:04:00,
2013-03-05 19:05:00,32.9,22.1,29.12,WNW,290,3.6,4.0,64,0.00,,---,0.00,VWS V14.01,2013-03-06 00:05:00,
2013-03-05 19:06:00,32.9,22.1,29.12,WNW,290,3.6,4.5,64,0.00,,---,0.00,VWS V14.01,2013-03-06 00:06:00,
2013-03-05 19:07:00,32.9,22.1,29.12,WNW,290,3.6,4.5,64,0.00,,---,0.00,VWS V14.01,2013-03-06 00:07:00,
2013-03-05 19:08:00,32.9,22.1,29.12,NW,318,4.5,5.4,64,0.00,,---,0.00,VWS V14.01,2013-03-06 00:08:00,
2013-03-05 19:09:00,32.9,22.1,29.12,NNW,336,4.9,5.4,64,0.00,,---,0.00,VWS V14.01,2013-03-06 00:09:00,
2013-03-05 19:10:00,32.9,22.1,29.12,NNW,333,0.0,4.9,64,0.00,,---,0.00,VWS V14.01,2013-03-06 00:10:00,
2013-03-05 19:11:00,32.9,22.1,29.12,NNW,334,3.1,4.0,64,0.00,,---,0.00,VWS V14.01,2013-03-06 00:11:00,
2013-03-05 19:12:00,32.9,22.4,29.12,NNW,333,2.7,4.0,65,0.00,,---,0.00,VWS V14.01,2013-03-06 00:12:00,
2013-03-05 19:13:00,32.9,22.4,29.12,NNW,329,4.0,5.4,65,0.00,,---,0.00,VWS V14.01,2013-03-06 00:13:00,
2013-03-05 19:14:00,32.9,22.4,29.12,NW,305,4.0,4.9,65,0.00,,---,0.00,VWS V14.01,2013-03-06 00:14:00,
2013-03-05 19:15:00,32.9,22.8,29.12,NNW,335,5.4,5.4,66,0.00,,---,0.00,VWS V14.01,2013-03-06 00:15:00,
2013-03-05 19:16:00,32.7,22.3,29.12,NNW,335,4.9,6.7,65,0.00,,---,0.00,VWS V14.01,2013-03-06 00:16:00,
2013-03-05 19:17:00,32.7,22.3,29.12,NNW,334,6.9,6.9,65,0.00,,---,0.00,VWS V14.01,2013-03-06 00:17:00,
2013-03-05 19:18:00,32.7,22.3,29.12,NW,323,4.0,6.9,65,0.00,,---,0.00,VWS V14.01,2013-03-06 00:18:00,
2013-03-05 19:19:00,32.7,22.3,29.12,NW,318,4.0,4.9,65,0.00,,---,0.00,VWS V14.01,2013-03-06 00:19:00,
2013-03-05 19:20:00,32.7,22.3,29.12,NNW,331,4.5,5.8,65,0.00,,---,0.00,VWS V14.01,2013-03-06 00:20:00,
2013-03-05 19:21:00,32.7,22.3,29.12,NNW,328,5.8,5.8,65,0.00,,---,0.00,VWS V14.01,2013-03-06 00:21:00,
2013-03-05 19:22:00,32.7,22.3,29.15,North,4,5.4,6.3,65,0.00,,---,0.00,VWS V14.01,2013-03-06 00:22:00,
2013-03-05 19:23:00,32.7,21.9,29.15,NNW,331,5.8,6.3,64,0.00,,---,0.00,VWS V14.01,2013-03-06 00:23:00,
2013-03-05 19:24:00,32.7,21.9,29.15,NW,319,5.8,6.3,64,0.00,,---,0.00,VWS V14.01,2013-03-06 00:24:00,
2013-03-05 19:25:00,32.7,21.9,29.15,NNW,335,6.7,6.7,64,0.00,,---,0.00,VWS V14.01,2013-03-06 00:25:00,
2013-03-05 19:26:00,32.7,21.9,29.15,NW,317,4.5,7.4,64,0.00,,---,0.00,VWS V14.01,2013-03-06 00:26:00,
2013-03-05 19:27:00,32.7,21.9,29.15,NW,310,4.9,5.8,64,0.00,,---,0.00,VWS V14.01,2013-03-06 00:27:00,
2013-03-05 19:28:00,32.7,21.5,29.15,NNW,332,4.0,4.9,63,0.00,,---,0.00,VWS V14.01,2013-03-06 00:28:00,
2013-03-05 19:29:00,32.7,21.5,29.15,NNW,332,4.0,4.5,63,0.00,,---,0.00,VWS V14.01,2013-03-06 00:29:00,
2013-03-05 19:30:00,32.7,21.5,29.15,NNW,328,4.5,4.9,63,0.00,,---,0.00,VWS V14.01,2013-03-06 00:30:00,
2013-03-05 19:31:00,32.7,21.9,29.15,NW,326,3.6,4.5,64,0.00,,---,0.00,VWS V14.01,2013-03-06 00:31:00,
2013-03-05 19:32:00,32.7,21.9,29.15,NW,326,4.0,4.0,64,0.00,,---,0.00,VWS V14.01,2013-03-06 00:32:00,
2013-03-05 19:33:00,32.7,22.3,29.15,NW,317,2.7,4.9,65,0.00,,---,0.00,VWS V14.01,2013-03-06 00:33:00,
2013-03-05 19:34:00,32.7,22.3,29.15,NW,318,3.6,4.9,65,0.00,,---,0.00,VWS V14.01,2013-03-06 00:34:00,
2013-03-05 19:35:00,32.7,22.3,29.15,NNW,327,4.9,5.4,65,0.00,,---,0.00,VWS V14.01,2013-03-06 00:35:00,
2013-03-05 19:36:00,32.7,22.3,29.15,NNW,327,0.0,4.9,65,0.00,,---,0.00,VWS V14.01,2013-03-06 00:36:00,
2013-03-05 19:37:00,32.7,22.3,29.15,WNW,299,5.4,6.3,65,0.00,,---,0.00,VWS V14.01,2013-03-06 00:37:00,
2013-03-05 19:38:00,32.7,22.6,29.15,WNW,299,4.0,6.3,66,0.00,,---,0.00,VWS V14.01,2013-03-06 00:38:00,
2013-03-05 19:39:00,32.7,22.6,29.15,NW,314,5.4,5.4,66,0.00,,---,0.00,VWS V14.01,2013-03-06 00:39:00,
2013-03-05 19:40:00,32.7,22.3,29.15,NW,324,4.5,5.4,65,0.00,,---,0.00,VWS V14.01,2013-03-06 00:40:00,
2013-03-05 19:41:00,32.7,22.3,29.15,NNW,339,3.6,5.4,65,0.00,,---,0.00,VWS V14.01,2013-03-06 00:41:00,
2013-03-05 19:42:00,32.7,22.3,29.15,NNW,335,5.4,6.3,65,0.00,,---,0.00,VWS V14.01,2013-03-06 00:42:00,
2013-03-05 19:43:00,32.7,22.3,29.15,NW,321,4.0,5.8,65,0.00,,---,0.00,VWS V14.01,2013-03-06 00:43:00,
2013-03-05 19:44:00,32.7,22.3,29.15,NW,321,5.4,5.4,65,0.00,,---,0.00,VWS V14.01,2013-03-06 00:44:00,
2013-03-05 19:45:00,32.7,22.3,29.15,NW,322,4.9,5.4,65,0.00,,---,0.00,VWS V14.01,2013-03-06 00:45:00,
2013-03-05 19:46:00,32.7,22.3,29.15,NNW,335,5.4,5.8,65,0.00,,---,0.00,VWS V14.01,2013-03-06 00:46:00,
2013-03-05 19:47:00,32.7,22.3,29.15,NNW,329,3.6,5.8,65,0.00,,---,0.00,VWS V14.01,2013-03-06 00:47:00,
2013-03-05 19:48:00,32.7,22.3,29.15,NNW,331,4.0,4.9,65,0.00,,---,0.00,VWS V14.01,2013-03-06 00:48:00,
2013-03-05 19:49:00,32.7,22.3,29.15,NNW,329,4.9,4.9,65,0.00,,---,0.00,VWS V14.01,2013-03-06 00:49:00,
2013-03-05 19:50:00,32.7,22.3,29.15,NNW,336,6.9,8.3,65,0.00,,---,0.00,VWS V14.01,2013-03-06 00:50:00,
2013-03-05 19:51:00,32.7,22.3,29.15,NW,316,4.0,6.9,65,0.00,,---,0.00,VWS V14.01,2013-03-06 00:51:00,
2013-03-05 19:52:00,32.7,22.3,29.15,NW,316,2.7,4.9,65,0.00,,---,0.00,VWS V14.01,2013-03-06 00:52:00,
2013-03-05 19:53:00,32.7,22.3,29.15,NNW,337,5.4,6.3,65,0.00,,---,0.00,VWS V14.01,2013-03-06 00:53:00,
2013-03-05 19:54:00,32.7,22.3,29.15,NNW,336,3.6,5.4,65,0.00,,---,0.00,VWS V14.01,2013-03-06 00:54:00,
2013-03-05 19:55:00,32.7,22.3,29.15,NNW,336,3.6,4.0,65,0.00,,---,0.00,VWS V14.01,2013-03-06 00:55:00,
2013-03-05 19:56:00,32.7,22.6,29.15,NNW,336,3.6,4.0,66,0.00,,---,0.00,VWS V14.01,2013-03-06 00:56:00,
2013-03-05 19:57:00,32.7,22.6,29.15,NNW,336,4.5,4.5,66,0.00,,---,0.00,VWS V14.01,2013-03-06 00:57:00,
2013-03-05 19:58:00,32.7,22.6,29.15,NNW,336,2.7,4.5,66,0.00,,---,0.00,VWS V14.01,2013-03-06 00:58:00,
2013-03-05 19:59:00,32.7,22.6,29.15,NNW,336,3.6,4.5,66,0.00,,---,0.00,VWS V14.01,2013-03-06 00:59:00,
2013-03-05 20:00:00,32.7,22.6,29.15,NNW,336,3.6,4.0,66,0.00,,---,0.00,VWS V14.01,2013-03-06 01:00:00,
2013-03-05 20:01:00,32.7,22.6,29.15,NNW,336,0.0,4.0,66,0.00,,---,0.00,VWS V14.01,2013-03-06 01:01:00,
2013-03-05 20:02:00,32.7,22.6,29.15,NNW,336,3.1,4.0,66,0.00,,---,0.00,VWS V14.01,2013-03-06 01:02:00,
2013-03-05 20:03:00,32.7,22.6,29.15,NW,322,3.6,4.9,66,0.00,,---,0.00,VWS V14.01,2013-03-06 01:03:00,
2013-03-05 20:04:00,32.7,23.0,29.15,NW,322,3.6,4.0,67,0.00,,---,0.00,VWS V14.01,2013-03-06 01:04:00,
2013-03-05 20:05:00,32.5,22.5,29.15,NNW,331,4.5,4.9,66,0.00,,---,0.00,VWS V14.01,2013-03-06 01:05:00,
2013-03-05 20:06:00,32.5,22.5,29.15,NW,320,4.0,5.4,66,0.00,,---,0.00,VWS V14.01,2013-03-06 01:06:00,
2013-03-05 20:07:00,32.5,22.5,29.15,NW,317,4.9,5.8,66,0.00,,---,0.00,VWS V14.01,2013-03-06 01:07:00,
2013-03-05 20:08:00,32.5,22.5,29.15,NW,320,0.0,5.4,66,0.00,,---,0.00,VWS V14.01,2013-03-06 01:08:00,
2013-03-05 20:09:00,32.5,22.5,29.15,NW,320,4.9,5.4,66,0.00,,---,0.00,VWS V14.01,2013-03-06 01:09:00,
2013-03-05 20:10:00,32.5,22.5,29.15,NW,320,3.6,4.9,66,0.00,,---,0.00,VWS V14.01,2013-03-06 01:10:00,
2013-03-05 20:11:00,32.5,22.8,29.15,NW,323,3.6,4.5,67,0.00,,---,0.00,VWS V14.01,2013-03-06 01:11:00,
2013-03-05 20:12:00,32.5,22.8,29.15,NW,323,4.0,4.5,67,0.00,,---,0.00,VWS V14.01,2013-03-06 01:12:00,
2013-03-05 20:13:00,32.5,22.8,29.15,NW,323,3.6,4.5,67,0.00,,---,0.00,VWS V14.01,2013-03-06 01:13:00,
2013-03-05 20:14:00,32.5,22.8,29.15,NW,323,3.6,4.0,67,0.00,,---,0.00,VWS V14.01,2013-03-06 01:14:00,
2013-03-05 20:15:00,32.5,22.8,29.15,NW,324,4.9,4.9,67,0.00,,---,0.00,VWS V14.01,2013-03-06 01:15:00,
2013-03-05 20:16:00,32.5,22.8,29.15,NW,324,3.6,4.9,67,0.00,,---,0.00,VWS V14.01,2013-03-06 01:16:00,
2013-03-05 20:17:00,32.5,22.8,29.15,NW,324,3.6,4.5,67,0.00,,---,0.00,VWS V14.01,2013-03-06 01:17:00,
2013-03-05 20:18:00,32.5,22.8,29.15,NW,324,4.0,4.0,67,0.00,,---,0.00,VWS V14.01,2013-03-06 01:18:00,
2013-03-05 20:19:00,32.5,22.8,29.15,NW,324,2.7,4.5,67,0.00,,---,0.00,VWS V14.01,2013-03-06 01:19:00,
2013-03-05 20:20:00,32.5,22.8,29.15,NW,324,0.0,4.0,67,0.00,,---,0.00,VWS V14.01,2013-03-06 01:20:00,
2013-03-05 20:21:00,32.5,22.8,29.15,NW,324,0.0,2.7,67,0.00,,---,0.00,VWS V14.01,2013-03-06 01:21:00,
2013-03-05 20:22:00,32.5,22.8,29.15,NW,324,3.6,3.6,67,0.00,,---,0.00,VWS V14.01,2013-03-06 01:22:00,
2013-03-05 20:23:00,32.5,22.8,29.15,NW,324,3.6,4.0,67,0.00,,---,0.00,VWS V14.01,2013-03-06 01:23:00,
2013-03-05 20:24:00,32.5,22.8,29.15,NW,324,3.6,4.5,67,0.00,,---,0.00,VWS V14.01,2013-03-06 01:24:00,
2013-03-05 20:25:00,32.5,23.2,29.15,NW,324,3.6,4.0,68,0.00,,---,0.00,VWS V14.01,2013-03-06 01:25:00,
2013-03-05 20:26:00,32.5,23.2,29.15,NW,324,3.1,3.6,68,0.00,,---,0.00,VWS V14.01,2013-03-06 01:26:00,
2013-03-05 20:27:00,32.5,23.2,29.15,NW,324,3.1,3.1,68,0.00,,---,0.00,VWS V14.01,2013-03-06 01:27:00,
2013-03-05 20:28:00,29.7,28.9,28.61,NE,47,0.0,0.0,97,0.00,,---,0.04,VWS V14.01,2013-03-06 01:28:00,
2013-03-05 20:29:00,32.5,23.2,29.15,NW,324,3.1,3.1,68,0.00,,---,0.00,VWS V14.01,2013-03-06 01:29:00,
2013-03-05 20:30:00,32.5,23.2,29.15,NW,324,0.0,3.6,68,0.00,,---,0.00,VWS V14.01,2013-03-06 01:30:00,
2013-03-05 20:31:00,32.5,23.2,29.15,NW,324,0.0,0.0,68,0.00,,---,0.00,VWS V14.01,2013-03-06 01:31:00,
2013-03-05 20:32:00,32.5,23.5,29.15,NW,324,0.0,0.0,69,0.00,,---,0.00,VWS V14.01,2013-03-06 01:32:00,
2013-03-05 20:33:00,32.5,23.5,29.15,NW,324,0.0,3.6,69,0.00,,---,0.00,VWS V14.01,2013-03-06 01:33:00,
2013-03-05 20:34:00,32.5,23.5,29.15,NW,324,3.6,4.5,69,0.00,,---,0.00,VWS V14.01,2013-03-06 01:34:00,
2013-03-05 20:35:00,32.5,23.5,29.15,NW,324,3.1,4.0,69,0.00,,---,0.00,VWS V14.01,2013-03-06 01:35:00,
2013-03-05 20:36:00,32.5,23.9,29.15,NW,324,2.7,3.6,70,0.00,,---,0.00,VWS V14.01,2013-03-06 01:36:00,
2013-03-05 20:37:00,29.3,28.6,28.61,NNE,22,0.0,0.0,97,0.00,,---,0.04,VWS V14.01,2013-03-06 01:37:00,
2013-03-05 20:38:00,32.5,23.9,29.15,NW,324,3.1,3.1,70,0.00,,---,0.00,VWS V14.01,2013-03-06 01:38:00,
2013-03-05 20:39:00,32.5,23.9,29.15,NW,324,3.6,4.0,70,0.00,,---,0.00,VWS V14.01,2013-03-06 01:39:00,
2013-03-05 20:40:00,32.5,23.9,29.15,NW,324,0.0,3.6,70,0.00,,---,0.00,VWS V14.01,2013-03-06 01:40:00,
2013-03-05 20:41:00,32.5,23.9,29.15,NW,324,0.0,0.0,70,0.00,,---,0.00,VWS V14.01,2013-03-06 01:41:00,
2013-03-05 20:42:00,32.4,23.7,29.15,NW,324,0.0,0.0,70,0.00,,---,0.00,VWS V14.01,2013-03-06 01:42:00,
2013-03-05 20:43:00,29.3,28.6,28.61,NE,38,0.0,0.0,97,0.00,,---,0.04,VWS V14.01,2013-03-06 01:43:00,
2013-03-05 20:44:00,32.4,24.0,29.15,NNW,342,3.6,5.8,71,0.00,,---,0.00,VWS V14.01,2013-03-06 01:44:00,
2013-03-05 20:45:00,32.4,23.7,29.15,NW,306,5.4,5.8,70,0.00,,---,0.00,VWS V14.01,2013-03-06 01:45:00,
2013-03-05 20:46:00,32.4,23.7,29.15,NW,315,4.9,5.4,70,0.00,,---,0.00,VWS V14.01,2013-03-06 01:46:00,
2013-03-05 20:47:00,32.5,23.9,29.15,NNW,328,4.5,5.4,70,0.00,,---,0.00,VWS V14.01,2013-03-06 01:47:00,
2013-03-05 20:48:00,29.1,28.4,28.61,NNE,13,0.0,0.0,97,0.00,,---,0.04,VWS V14.01,2013-03-06 01:48:00,
2013-03-05 20:49:00,32.5,23.9,29.15,NW,319,6.3,6.3,70,0.00,,---,0.00,VWS V14.01,2013-03-06 01:49:00,
2013-03-05 20:50:00,32.5,23.9,29.15,NW,315,4.0,6.3,70,0.00,,---,0.00,VWS V14.01,2013-03-06 01:50:00,
2013-03-05 20:51:00,32.5,23.9,29.15,NW,308,4.0,5.8,70,0.00,,---,0.00,VWS V14.01,2013-03-06 01:51:00,
2013-03-05 20:52:00,32.5,23.9,29.15,NW,309,4.5,4.5,70,0.00,,---,0.00,VWS V14.01,2013-03-06 01:52:00,
2013-03-05 20:53:00,29.1,28.4,28.61,NE,42,0.0,0.0,97,0.00,,---,0.04,VWS V14.01,2013-03-06 01:53:00,
2013-03-05 20:54:00,32.5,23.9,29.15,NW,308,0.0,4.0,70,0.00,,---,0.00,VWS V14.01,2013-03-06 01:54:00,
2013-03-05 20:55:00,32.5,24.2,29.15,WNW,287,3.1,5.4,71,0.00,,---,0.00,VWS V14.01,2013-03-06 01:55:00,
2013-03-05 20:56:00,32.5,24.2,29.15,WNW,287,3.6,4.0,71,0.00,,---,0.00,VWS V14.01,2013-03-06 01:56:00,
2013-03-05 20:57:00,32.5,24.5,29.15,NW,312,4.0,5.8,72,0.00,,---,0.00,VWS V14.01,2013-03-06 01:57:00,
2013-03-05 20:58:00,29.1,28.4,28.61,NNE,29,0.0,0.0,97,0.00,,---,0.04,VWS V14.01,2013-03-06 01:58:00,
2013-03-05 20:59:00,32.5,24.9,29.15,NW,318,4.0,5.4,73,0.00,,---,0.00,VWS V14.01,2013-03-06 01:59:00,
2013-03-05 21:00:00,32.5,24.9,29.15,NNW,342,4.0,5.4,73,0.00,,---,0.00,VWS V14.01,2013-03-06 02:00:00,
2013-03-05 21:01:00,32.5,25.2,29.15,NW,324,4.5,5.4,74,0.00,,---,0.00,VWS V14.01,2013-03-06 02:01:00,
2013-03-05 21:02:00,32.5,25.2,29.15,NW,304,4.0,4.5,74,0.00,,---,0.00,VWS V14.01,2013-03-06 02:02:00,
2013-03-05 21:03:00,29.1,28.4,28.61,ENE,62,0.0,0.0,97,0.00,,---,0.04,VWS V14.01,2013-03-06 02:03:00,
2013-03-05 21:05:00,32.5,25.5,29.15,West,281,3.6,4.9,75,0.00,,---,0.00,VWS V14.01,2013-03-06 02:05:00,
2013-03-05 21:06:00,32.5,25.8,29.15,NW,324,4.9,4.9,76,0.00,,---,0.00,VWS V14.01,2013-03-06 02:06:00,
2013-03-05 21:07:00,32.5,25.8,29.15,NW,312,2.7,5.8,76,0.00,,---,0.00,VWS V14.01,2013-03-06 02:07:00,
2013-03-05 21:08:00,28.9,28.2,28.61,NE,50,0.0,0.0,97,0.00,,---,0.04,VWS V14.01,2013-03-06 02:08:00,
2013-03-05 21:09:00,32.5,26.1,29.15,NNW,330,4.0,4.5,77,0.00,,---,0.00,VWS V14.01,2013-03-06 02:09:00,
2013-03-05 21:10:00,32.5,26.1,29.15,NW,326,4.9,4.9,77,0.00,,---,0.00,VWS V14.01,2013-03-06 02:10:00,
2013-03-05 21:11:00,32.5,26.5,29.15,NW,326,4.0,4.9,78,0.00,,---,0.00,VWS V14.01,2013-03-06 02:11:00,
2013-03-05 21:12:00,32.5,26.5,29.15,NW,322,4.0,5.4,78,0.00,,---,0.00,VWS V14.01,2013-03-06 02:12:00,
2013-03-05 21:13:00,32.5,26.5,29.15,NW,316,4.5,4.5,78,0.00,,---,0.00,VWS V14.01,2013-03-06 02:13:00,
2013-03-05 21:14:00,28.8,28.0,28.64,NNE,23,0.0,0.0,97,0.00,,---,0.04,VWS V14.01,2013-03-06 02:14:00,
2013-03-05 21:15:00,32.5,26.8,29.15,NW,319,3.6,4.5,79,0.00,,---,0.00,VWS V14.01,2013-03-06 02:15:00,
2013-03-05 21:16:00,32.4,26.6,29.15,WNW,296,4.9,4.9,79,0.00,,---,0.00,VWS V14.01,2013-03-06 02:16:00,
2013-03-05 21:17:00,32.4,26.6,29.15,WNW,302,4.9,5.4,79,0.00,,---,0.00,VWS V14.01,2013-03-06 02:17:00,
2013-03-05 21:18:00,32.4,26.9,29.15,NW,320,6.3,6.7,80,0.00,,---,0.00,VWS V14.01,2013-03-06 02:18:00,
2013-03-05 21:19:00,28.8,28.0,28.64,NNE,33,0.0,0.0,97,0.00,,---,0.04,VWS V14.01,2013-03-06 02:19:00,
2013-03-05 21:20:00,32.4,26.9,29.15,NW,317,4.0,4.5,80,0.00,,---,0.00,VWS V14.01,2013-03-06 02:20:00,
2013-03-05 21:21:00,32.4,26.9,29.15,NW,317,3.6,4.5,80,0.00,,---,0.00,VWS V14.01,2013-03-06 02:21:00,
2013-03-05 21:22:00,32.4,27.2,29.15,NW,317,3.6,4.5,81,0.00,,---,0.00,VWS V14.01,2013-03-06 02:22:00,
2013-03-05 21:23:00,32.4,27.2,29.15,NW,317,0.0,3.6,81,0.00,,---,0.00,VWS V14.01,2013-03-06 02:23:00,
2013-03-05 21:24:00,32.4,27.2,29.15,NW,317,3.6,3.6,81,0.00,,---,0.00,VWS V14.01,2013-03-06 02:24:00,
2013-03-05 21:25:00,28.8,28.0,28.64,NNE,27,0.0,0.0,97,0.00,,---,0.04,VWS V14.01,2013-03-06 02:25:00,
2013-03-05 21:26:00,32.4,27.5,29.15,NW,308,3.6,5.4,82,0.00,,---,0.00,VWS V14.01,2013-03-06 02:26:00,
2013-03-05 21:27:00,32.4,27.5,29.15,NW,308,4.5,4.9,82,0.00,,---,0.00,VWS V14.01,2013-03-06 02:27:00,
2013-03-05 21:28:00,32.2,27.3,29.15,WNW,298,3.1,5.4,82,0.00,,---,0.00,VWS V14.01,2013-03-06 02:28:00,
2013-03-05 21:29:00,32.2,27.3,29.15,WNW,298,0.0,4.0,82,0.00,,---,0.00,VWS V14.01,2013-03-06 02:29:00,
2013-03-05 21:30:00,28.8,28.0,28.64,NNE,25,0.0,0.0,97,0.00,,---,0.04,VWS V14.01,2013-03-06 02:30:00,
2013-03-05 21:31:00,32.2,27.6,29.15,NW,309,4.0,4.9,83,0.00,,---,0.00,VWS V14.01,2013-03-06 02:31:00,
2013-03-05 21:32:00,32.2,27.6,29.15,WNW,299,5.4,6.9,83,0.00,,---,0.00,VWS V14.01,2013-03-06 02:32:00,
2013-03-05 21:34:00,32.2,27.6,29.15,NW,305,4.5,5.4,83,0.00,,---,0.00,VWS V14.01,2013-03-06 02:34:00,
2013-03-05 21:35:00,28.8,28.0,28.64,NNE,25,0.0,0.0,97,0.00,,---,0.04,VWS V14.01,2013-03-06 02:35:00,
2013-03-05 21:36:00,32.2,27.6,29.15,WNW,294,4.5,5.8,83,0.00,,---,0.00,VWS V14.01,2013-03-06 02:36:00,
2013-03-05 21:37:00,32.2,27.9,29.15,WNW,299,3.1,4.9,84,0.00,,---,0.00,VWS V14.01,2013-03-06 02:37:00,
2013-03-05 21:38:00,32.2,27.9,29.15,WNW,302,5.4,6.3,84,0.00,,---,0.00,VWS V14.01,2013-03-06 02:38:00,
2013-03-05 21:39:00,32.2,27.9,29.15,NW,304,3.6,5.4,84,0.00,,---,0.00,VWS V14.01,2013-03-06 02:39:00,
2013-03-05 21:40:00,28.8,28.0,28.64,NNE,26,0.0,0.0,97,0.00,,---,0.04,VWS V14.01,2013-03-06 02:40:00,
2013-03-05 21:41:00,32.2,27.9,29.15,NW,310,0.0,4.5,84,0.00,,---,0.00,VWS V14.01,2013-03-06 02:41:00,
2013-03-05 21:42:00,32.2,27.9,29.15,NW,310,3.6,4.5,84,0.00,,---,0.00,VWS V14.01,2013-03-06 02:42:00,
2013-03-05 21:43:00,32.2,27.9,29.15,NW,310,3.1,4.0,84,0.00,,---,0.00,VWS V14.01,2013-03-06 02:43:00,
2013-03-05 21:44:00,32.2,27.9,29.15,NW,310,3.6,4.9,84,0.00,,---,0.00,VWS V14.01,2013-03-06 02:44:00,
2013-03-05 21:45:00,28.6,27.8,28.64,NNE,27,0.0,0.0,97,0.00,,---,0.04,VWS V14.01,2013-03-06 02:45:00,
2013-03-05 21:46:00,32.2,27.9,29.15,NW,323,2.7,4.0,84,0.00,,---,0.00,VWS V14.01,2013-03-06 02:46:00,
2013-03-05 21:47:00,32.2,27.9,29.15,NW,323,2.7,3.1,84,0.00,,---,0.00,VWS V14.01,2013-03-06 02:47:00,
2013-03-05 21:48:00,32.2,28.2,29.15,WNW,297,4.0,4.9,85,0.00,,---,0.00,VWS V14.01,2013-03-06 02:48:00,
2013-03-05 21:49:00,32.2,27.9,29.15,NW,322,3.6,4.5,84,0.00,,---,0.00,VWS V14.01,2013-03-06 02:49:00,
2013-03-05 21:50:00,28.6,27.8,28.64,NNE,31,0.0,0.0,97,0.00,,---,0.04,VWS V14.01,2013-03-06 02:50:00,
2013-03-05 21:52:00,32.2,28.2,29.15,WNW,298,3.6,4.0,85,0.00,,---,0.00,VWS V14.01,2013-03-06 02:52:00,
2013-03-05 21:53:00,32.2,28.2,29.15,NW,304,0.0,5.4,85,0.00,,---,0.00,VWS V14.01,2013-03-06 02:53:00,
2013-03-05 21:54:00,32.2,28.2,29.15,NW,304,0.0,4.0,85,0.00,,---,0.00,VWS V14.01,2013-03-06 02:54:00,
2013-03-05 21:55:00,28.6,27.8,28.64,North,11,0.0,0.0,97,0.00,,---,0.04,VWS V14.01,2013-03-06 02:55:00,
2013-03-05 21:56:00,32.2,28.2,29.15,NW,304,4.0,4.0,85,0.00,,---,0.00,VWS V14.01,2013-03-06 02:56:00,
2013-03-05 21:57:00,32.2,28.2,29.15,NW,304,3.1,4.0,85,0.00,,---,0.00,VWS V14.01,2013-03-06 02:57:00,
2013-03-05 21:58:00,32.2,28.2,29.15,NW,304,4.0,4.0,85,0.00,,---,0.00,VWS V14.01,2013-03-06 02:58:00,
2013-03-05 21:59:00,32.2,28.2,29.15,NW,304,0.0,4.0,85,0.00,,---,0.00,VWS V14.01,2013-03-06 02:59:00,
2013-03-05 22:00:00,28.6,27.8,28.64,NNE,28,0.0,0.0,97,0.00,,---,0.04,VWS V14.01,2013-03-06 03:00:00,
2013-03-05 22:01:00,32.2,28.2,29.15,NW,304,0.0,0.0,85,0.00,,---,0.00,VWS V14.01,2013-03-06 03:01:00,
2013-03-05 22:02:00,32.2,28.2,29.15,NW,304,0.0,0.0,85,0.00,,---,0.00,VWS V14.01,2013-03-06 03:02:00,
2013-03-05 22:03:00,32.2,28.2,29.15,NW,304,4.0,4.0,85,0.00,,---,0.00,VWS V14.01,2013-03-06 03:03:00,
2013-03-05 22:04:00,32.2,28.2,29.15,NW,304,2.7,4.0,85,0.00,,---,0.00,VWS V14.01,2013-03-06 03:04:00,
2013-03-05 22:05:00,28.6,27.8,28.64,NNE,24,0.0,0.0,97,0.00,,---,0.04,VWS V14.01,2013-03-06 03:05:00,
2013-03-05 22:06:00,32.2,28.5,29.15,WNW,296,4.5,5.4,86,0.00,,---,0.00,VWS V14.01,2013-03-06 03:06:00,
2013-03-05 22:07:00,32.2,28.5,29.15,NW,317,3.6,6.3,86,0.00,,---,0.00,VWS V14.01,2013-03-06 03:07:00,
2013-03-05 22:08:00,32.0,28.3,29.15,West,269,5.8,5.8,86,0.00,,---,0.00,VWS V14.01,2013-03-06 03:08:00,
2013-03-05 22:09:00,32.0,28.3,29.15,WNW,294,3.6,5.8,86,0.00,,---,0.00,VWS V14.01,2013-03-06 03:09:00,
2013-03-05 22:10:00,28.6,27.8,28.64,NNE,16,0.0,0.0,97,0.00,,---,0.04,VWS V14.01,2013-03-06 03:10:00,
2013-03-05 22:11:00,32.0,28.3,29.15,WNW,293,3.6,5.8,86,0.00,,---,0.00,VWS V14.01,2013-03-06 03:11:00,
2013-03-05 22:12:00,32.0,28.3,29.15,NW,305,3.6,4.5,86,0.00,,---,0.00,VWS V14.01,2013-03-06 03:12:00,
2013-03-05 22:13:00,32.0,28.3,29.15,WNW,297,4.9,5.4,86,0.00,,---,0.00,VWS V14.01,2013-03-06 03:13:00,
2013-03-05 22:14:00,32.0,28.3,29.15,West,272,4.9,5.8,86,0.00,,---,0.00,VWS V14.01,2013-03-06 03:14:00,
2013-03-05 22:15:00,28.6,27.8,28.64,NNE,15,0.0,0.0,97,0.00,,---,0.04,VWS V14.01,2013-03-06 03:15:00,
2013-03-05 22:16:00,32.0,28.3,29.15,WNW,300,2.7,4.9,86,0.00,,---,0.00,VWS V14.01,2013-03-06 03:16:00,
2013-03-05 22:17:00,32.0,28.3,29.15,WNW,296,3.1,5.4,86,0.00,,---,0.00,VWS V14.01,2013-03-06 03:17:00,
2013-03-05 22:18:00,32.0,28.3,29.15,West,276,3.6,4.9,86,0.00,,---,0.00,VWS V14.01,2013-03-06 03:18:00,
2013-03-05 22:19:00,32.0,28.3,29.15,West,276,2.7,4.5,86,0.00,,---,0.00,VWS V14.01,2013-03-06 03:19:00,
2013-03-05 22:20:00,28.6,27.8,28.64,NNE,27,0.0,0.0,97,0.00,,---,0.04,VWS V14.01,2013-03-06 03:20:00,
2013-03-05 22:21:00,32.0,28.3,29.15,West,277,0.0,4.0,86,0.00,,---,0.00,VWS V14.01,2013-03-06 03:21:00,
2013-03-05 22:22:00,32.0,28.3,29.18,West,277,0.0,2.7,86,0.00,,---,0.00,VWS V14.01,2013-03-06 03:22:00,
2013-03-05 22:23:00,32.0,28.3,29.18,West,277,0.0,0.0,86,0.00,,---,0.00,VWS V14.01,2013-03-06 03:23:00,
2013-03-05 22:24:00,32.0,28.3,29.18,West,277,0.0,0.0,86,0.00,,---,0.00,VWS V14.01,2013-03-06 03:24:00,
2013-03-05 22:25:00,32.0,28.6,29.18,WNW,292,5.8,6.7,87,0.00,,---,0.00,VWS V14.01,2013-03-06 03:25:00,
2013-03-05 22:26:00,32.0,28.6,29.18,WNW,289,3.6,5.8,87,0.00,,---,0.00,VWS V14.01,2013-03-06 03:26:00,
2013-03-05 22:27:00,32.0,28.6,29.18,WNW,289,3.6,4.5,87,0.00,,---,0.00,VWS V14.01,2013-03-06 03:27:00,
2013-03-05 22:28:00,32.0,28.6,29.18,WNW,295,4.9,5.8,87,0.00,,---,0.00,VWS V14.01,2013-03-06 03:28:00,
2013-03-05 22:29:00,32.0,28.6,29.18,WNW,299,4.5,4.9,87,0.00,,---,0.00,VWS V14.01,2013-03-06 03:29:00,
2013-03-05 22:30:00,32.0,28.6,29.18,WNW,299,0.0,4.9,87,0.00,,---,0.00,VWS V14.01,2013-03-06 03:30:00,
2013-03-05 22:31:00,32.0,28.6,29.18,WNW,299,0.0,4.0,87,0.00,,---,0.00,VWS V14.01,2013-03-06 03:31:00,
2013-03-05 22:32:00,28.6,27.8,28.64,NNE,20,0.0,0.0,97,0.00,,---,0.04,VWS V14.01,2013-03-06 03:32:00,
2013-03-05 22:33:00,32.0,28.6,29.18,WNW,299,3.6,3.6,87,0.00,,---,0.00,VWS V14.01,2013-03-06 03:33:00,
2013-03-05 22:34:00,32.0,28.6,29.18,WNW,299,0.0,4.0,87,0.00,,---,0.00,VWS V14.01,2013-03-06 03:34:00,
2013-03-05 22:35:00,32.0,28.6,29.18,WNW,295,6.3,6.7,87,0.00,,---,0.00,VWS V14.01,2013-03-06 03:35:00,
2013-03-05 22:36:00,32.0,28.6,29.18,WNW,301,4.0,6.9,87,0.00,,---,0.00,VWS V14.01,2013-03-06 03:36:00,
2013-03-05 22:37:00,28.6,27.8,28.64,NNE,30,0.0,0.0,97,0.00,,---,0.04,VWS V14.01,2013-03-06 03:37:00,
2013-03-05 22:38:00,32.0,28.6,29.18,WNW,291,4.0,6.9,87,0.00,,---,0.00,VWS V14.01,2013-03-06 03:38:00,
2013-03-05 22:39:00,32.0,28.6,29.18,WNW,286,3.6,5.8,87,0.00,,---,0.00,VWS V14.01,2013-03-06 03:39:00,
2013-03-05 22:40:00,32.0,28.6,29.18,WNW,286,3.1,4.0,87,0.00,,---,0.00,VWS V14.01,2013-03-06 03:40:00,
2013-03-05 22:41:00,32.0,28.6,29.18,WNW,288,4.9,5.8,87,0.00,,---,0.00,VWS V14.01,2013-03-06 03:41:00,
2013-03-05 22:42:00,28.6,27.8,28.64,NNE,12,0.0,0.0,97,0.00,,---,0.04,VWS V14.01,2013-03-06 03:42:00,
2013-03-05 22:43:00,32.0,28.6,29.18,WNW,287,0.0,3.1,87,0.00,,---,0.00,VWS V14.01,2013-03-06 03:43:00,
2013-03-05 22:44:00,32.0,28.6,29.18,WNW,287,0.0,0.0,87,0.00,,---,0.00,VWS V14.01,2013-03-06 03:44:00,
2013-03-05 22:45:00,32.0,28.6,29.18,NW,318,3.6,4.9,87,0.00,,---,0.00,VWS V14.01,2013-03-06 03:45:00,
2013-03-05 22:47:00,28.6,27.8,28.64,NE,39,0.0,0.0,97,0.00,,---,0.04,VWS V14.01,2013-03-06 03:47:00,
2013-03-05 22:52:00,28.6,27.8,28.64,NNE,32,0.0,0.0,97,0.00,,---,0.04,VWS V14.01,2013-03-06 03:52:00,
2013-03-05 22:53:00,32.0,28.9,29.18,WNW,295,4.5,4.5,88,0.00,,---,0.00,VWS V14.01,2013-03-06 03:53:00,
2013-03-05 22:54:00,32.0,28.9,29.18,West,278,3.1,5.8,88,0.00,,---,0.00,VWS V14.01,2013-03-06 03:54:00,
2013-03-05 22:55:00,32.0,28.9,29.18,NW,318,6.3,6.3,88,0.00,,---,0.00,VWS V14.01,2013-03-06 03:55:00,
2013-03-05 22:56:00,32.0,28.9,29.18,WNW,303,4.9,6.3,88,0.00,,---,0.00,VWS V14.01,2013-03-06 03:56:00,
2013-03-05 22:57:00,28.6,27.8,28.64,NNE,30,0.0,0.0,97,0.00,,---,0.04,VWS V14.01,2013-03-06 03:57:00,
2013-03-05 22:58:00,32.0,28.9,29.18,WNW,288,4.9,7.4,88,0.00,,---,0.00,VWS V14.01,2013-03-06 03:58:00,
2013-03-05 22:59:00,32.0,29.1,29.18,West,270,0.0,5.4,89,0.00,,---,0.00,VWS V14.01,2013-03-06 03:59:00,
2013-03-05 23:00:00,32.0,29.1,29.18,West,270,3.6,4.5,89,0.00,,---,0.00,VWS V14.01,2013-03-06 04:00:00,
2013-03-05 23:01:00,32.0,29.1,29.18,WNW,294,4.9,4.9,89,0.00,,---,0.00,VWS V14.01,2013-03-06 04:01:00,
2013-03-05 23:02:00,28.6,27.8,28.64,NNE,28,0.0,0.0,97,0.00,,---,0.04,VWS V14.01,2013-03-06 04:02:00,
2013-03-05 23:03:00,32.0,29.1,29.18,WNW,294,3.6,5.4,89,0.00,,---,0.00,VWS V14.01,2013-03-06 04:03:00,
2013-03-05 23:04:00,32.0,29.1,29.18,WNW,294,3.6,4.5,89,0.00,,---,0.00,VWS V14.01,2013-03-06 04:04:00,
2013-03-05 23:05:00,32.0,29.1,29.18,WNW,294,2.7,4.0,89,0.00,,---,0.00,VWS V14.01,2013-03-06 04:05:00,
2013-03-05 23:06:00,32.0,29.1,29.18,NNW,334,4.9,4.9,89,0.00,,---,0.00,VWS V14.01,2013-03-06 04:06:00,
2013-03-05 23:07:00,28.6,27.8,28.64,NNE,23,0.0,0.0,97,0.00,,---,0.00,VWS V14.01,2013-03-06 04:07:00,
2013-03-05 23:08:00,32.0,29.1,29.18,NNW,334,3.1,4.0,89,0.00,,---,0.00,VWS V14.01,2013-03-06 04:08:00,
2013-03-05 23:09:00,32.0,29.1,29.18,WNW,298,2.7,4.5,89,0.00,,---,0.00,VWS V14.01,2013-03-06 04:09:00,
2013-03-05 23:10:00,32.0,29.1,29.18,WNW,298,2.7,4.5,89,0.00,,---,0.00,VWS V14.01,2013-03-06 04:10:00,
2013-03-05 23:11:00,32.0,29.1,29.18,WNW,298,3.1,3.6,89,0.00,,---,0.00,VWS V14.01,2013-03-06 04:11:00,
2013-03-05 23:12:00,28.8,28.0,28.64,NNE,21,0.0,0.0,97,0.00,,---,0.00,VWS V14.01,2013-03-06 04:12:00,
2013-03-05 23:13:00,32.0,29.1,29.18,WNW,298,0.0,0.0,89,0.00,,---,0.00,VWS V14.01,2013-03-06 04:13:00,
2013-03-05 23:14:00,32.0,29.1,29.18,WNW,298,3.6,3.6,89,0.00,,---,0.00,VWS V14.01,2013-03-06 04:14:00,
2013-03-05 23:15:00,32.0,29.1,29.18,WNW,301,3.1,4.0,89,0.00,,---,0.00,VWS V14.01,2013-03-06 04:15:00,
2013-03-05 23:16:00,32.0,29.1,29.18,WNW,301,4.0,4.5,89,0.00,,---,0.00,VWS V14.01,2013-03-06 04:16:00,
2013-03-05 23:17:00,32.0,29.4,29.18,WNW,301,2.7,4.0,90,0.00,,---,0.00,VWS V14.01,2013-03-06 04:17:00,
2013-03-05 23:18:00,28.8,28.0,28.64,NNE,24,0.0,0.0,97,0.00,,---,0.00,VWS V14.01,2013-03-06 04:18:00,
2013-03-05 23:19:00,32.0,29.4,29.18,WNW,301,3.1,4.0,90,0.00,,---,0.00,VWS V14.01,2013-03-06 04:19:00,
2013-03-05 23:20:00,32.0,29.4,29.18,WNW,289,4.5,5.4,90,0.00,,---,0.00,VWS V14.01,2013-03-06 04:20:00,
2013-03-05 23:21:00,32.0,29.4,29.18,WNW,289,3.1,4.5,90,0.00,,---,0.00,VWS V14.01,2013-03-06 04:21:00,
2013-03-05 23:22:00,32.0,29.4,29.18,WNW,289,3.1,3.6,90,0.00,,---,0.00,VWS V14.01,2013-03-06 04:22:00,
2013-03-05 23:23:00,32.0,29.4,29.18,WNW,289,3.1,3.6,90,0.00,,---,0.00,VWS V14.01,2013-03-06 04:23:00,
2013-03-05 23:24:00,28.8,28.0,28.64,NNE,25,0.0,0.0,97,0.00,,---,0.00,VWS V14.01,2013-03-06 04:24:00,
2013-03-05 23:25:00,32.0,29.4,29.18,WNW,289,0.0,0.0,90,0.00,,---,0.00,VWS V14.01,2013-03-06 04:25:00,
2013-03-05 23:26:00,32.0,29.4,29.18,WNW,289,0.0,0.0,90,0.00,,---,0.00,VWS V14.01,2013-03-06 04:26:00,
2013-03-05 23:27:00,32.0,29.4,29.18,WNW,289,4.0,4.5,90,0.00,,---,0.00,VWS V14.01,2013-03-06 04:27:00,
2013-03-05 23:28:00,32.0,29.4,29.18,WNW,289,0.0,4.0,90,0.00,,---,0.00,VWS V14.01,2013-03-06 04:28:00,
2013-03-05 23:29:00,32.0,29.4,29.18,WNW,289,3.1,4.0,90,0.00,,---,0.00,VWS V14.01,2013-03-06 04:29:00,
2013-03-05 23:30:00,32.0,29.4,29.18,WNW,289,3.6,4.0,90,0.00,,---,0.00,VWS V14.01,2013-03-06 04:30:00,
2013-03-05 23:31:00,28.8,28.0,28.64,NNE,29,0.0,0.0,97,0.00,,---,0.00,VWS V14.01,2013-03-06 04:31:00,
2013-03-05 23:32:00,32.0,29.4,29.18,WNW,289,4.5,4.5,90,0.00,,---,0.00,VWS V14.01,2013-03-06 04:32:00,
2013-03-05 23:33:00,32.0,29.4,29.18,WNW,289,2.7,4.5,90,0.00,,---,0.00,VWS V14.01,2013-03-06 04:33:00,
2013-03-05 23:34:00,32.0,29.4,29.18,WNW,289,3.6,4.5,90,0.00,,---,0.00,VWS V14.01,2013-03-06 04:34:00,
2013-03-05 23:35:00,32.0,29.4,29.18,WNW,289,0.0,4.0,90,0.00,,---,0.00,VWS V14.01,2013-03-06 04:35:00,
2013-03-05 23:36:00,28.8,28.0,28.64,NNE,19,0.0,0.0,97,0.00,,---,0.00,VWS V14.01,2013-03-06 04:36:00,
2013-03-05 23:37:00,32.0,29.4,29.18,WNW,289,4.0,4.5,90,0.00,,---,0.00,VWS V14.01,2013-03-06 04:37:00,
2013-03-05 23:38:00,31.8,29.2,29.18,NW,324,4.9,4.9,90,0.00,,---,0.00,VWS V14.01,2013-03-06 04:38:00,
2013-03-05 23:39:00,31.8,29.2,29.18,WNW,293,0.0,4.9,90,0.00,,---,0.00,VWS V14.01,2013-03-06 04:39:00,
2013-03-05 23:40:00,31.8,29.5,29.18,WNW,293,2.7,4.0,91,0.00,,---,0.00,VWS V14.01,2013-03-06 04:40:00,
2013-03-05 23:41:00,28.8,28.0,28.64,NE,35,0.0,0.0,97,0.00,,---,0.00,VWS V14.01,2013-03-06 04:41:00,
2013-03-05 23:42:00,31.8,29.5,29.18,West,263,3.6,4.5,91,0.00,,---,0.00,VWS V14.01,2013-03-06 04:42:00,
2013-03-05 23:43:00,31.8,29.5,29.18,West,261,4.0,4.9,91,0.00,,---,0.00,VWS V14.01,2013-03-06 04:43:00,
2013-03-05 23:44:00,31.8,29.5,29.18,West,281,4.9,6.9,91,0.00,,---,0.00,VWS V14.01,2013-03-06 04:44:00,
2013-03-05 23:45:00,31.8,29.5,29.18,NW,317,4.5,7.4,91,0.00,,---,0.00,VWS V14.01,2013-03-06 04:45:00,
2013-03-05 23:46:00,28.8,28.0,28.67,North,356,0.0,0.0,97,0.00,,---,0.00,VWS V14.01,2013-03-06 04:46:00,
2013-03-05 23:47:00,31.8,29.5,29.18,WNW,282,4.5,4.9,91,0.00,,---,0.00,VWS V14.01,2013-03-06 04:47:00,
2013-03-05 23:48:00,31.8,29.5,29.18,WNW,299,4.0,5.4,91,0.00,,---,0.00,VWS V14.01,2013-03-06 04:48:00,
2013-03-05 23:49:00,31.8,29.5,29.18,WNW,300,5.4,5.4,91,0.00,,---,0.00,VWS V14.01,2013-03-06 04:49:00,
2013-03-05 23:50:00,31.8,29.8,29.18,WNW,300,3.1,5.4,92,0.00,,---,0.00,VWS V14.01,2013-03-06 04:50:00,
2013-03-05 23:51:00,28.8,28.0,28.67,NE,34,0.0,0.0,97,0.00,,---,0.00,VWS V14.01,2013-03-06 04:51:00,
2013-03-05 23:52:00,31.8,29.8,29.15,WNW,300,4.5,4.5,92,0.00,,---,0.00,VWS V14.01,2013-03-06 04:52:00,
2013-03-05 23:53:00,31.8,29.8,29.15,WSW,252,4.0,5.4,92,0.00,,---,0.00,VWS V14.01,2013-03-06 04:53:00,
2013-03-05 23:54:00,31.8,29.8,29.15,WNW,287,5.4,6.3,92,0.00,,---,0.00,VWS V14.01,2013-03-06 04:54:00,
2013-03-05 23:55:00,31.6,29.6,29.15,WNW,293,4.5,5.8,92,0.00,,---,0.00,VWS V14.01,2013-03-06 04:55:00,
2013-03-05 23:56:00,28.8,28.0,28.67,NE,38,0.0,0.0,97,0.00,,---,0.00,VWS V14.01,2013-03-06 04:56:00,
2013-03-05 23:57:00,31.6,29.6,29.15,WNW,293,4.0,4.0,92,0.00,,---,0.00,VWS V14.01,2013-03-06 04:57:00,
2013-03-05 23:58:00,31.6,29.6,29.15,WNW,296,4.5,4.9,92,0.00,,---,0.00,VWS V14.01,2013-03-06 04:58:00,
2013-03-05 23:59:00,31.6,29.6,29.15,NW,311,6.7,6.7,92,0.00,,---,0.00,VWS V14.01,2013-03-06 04:59:00,